Time,TemperatureF,DewpointF,PressureIn,WindDirection,WindDirectionDegrees,WindSpeedMPH,WindSpeedGustMPH,Humidity,HourlyPrecipIn,Conditions,Clouds,dailyrainin,SoftwareType,DateUTC
2013-04-09 00:00:00,73.8,19.9,25.07,SSW,202,13.4,25.1,13,0.00,,---,0.00,VWS V14.01,2013-04-09 05:00:00,
2013-04-09 00:01:00,73.6,19.8,25.07,SW,225,21.9,25.1,13,0.00,,---,0.00,VWS V14.01,2013-04-09 05:01:00,
2013-04-09 00:02:00,73.2,21.2,25.07,SSW,202,19.5,21.9,14,0.00,,---,0.00,VWS V14.01,2013-04-09 05:02:00,
2013-04-09 00:03:00,73.2,21.2,25.07,SSW,202,11.2,19.5,14,0.00,,---,0.00,VWS V14.01,2013-04-09 05:03:00,
2013-04-09 00:04:00,73.0,21.1,25.07,SW,225,21.0,21.0,14,0.00,,---,0.00,VWS V14.01,2013-04-09 05:04:00,
2013-04-09 00:05:00,73.2,21.2,25.07,SSW,202,20.1,23.7,14,0.00,,---,0.00,VWS V14.01,2013-04-09 05:05:00,
2013-04-09 00:06:00,73.2,21.2,25.07,SW,225,15.4,23.9,14,0.00,,---,0.00,VWS V14.01,2013-04-09 05:06:00,
2013-04-09 00:07:00,73.2,21.2,25.07,SW,225,18.8,19.5,14,0.00,,---,0.00,VWS V14.01,2013-04-09 05:07:00,
2013-04-09 00:08:00,73.2,21.2,25.07,SSW,202,16.8,22.6,14,0.00,,---,0.00,VWS V14.01,2013-04-09 05:08:00,
2013-04-09 00:09:00,73.0,21.1,25.07,SSW,202,10.5,19.9,14,0.00,,---,0.00,VWS V14.01,2013-04-09 05:09:00,
2013-04-09 00:10:00,73.0,21.1,25.07,SSW,202,17.5,17.5,14,0.00,,---,0.00,VWS V14.01,2013-04-09 05:10:00,
2013-04-09 00:11:00,73.0,21.1,25.07,SSW,202,17.5,17.5,14,0.00,,---,0.00,VWS V14.01,2013-04-09 05:11:00,
2013-04-09 00:12:00,72.9,20.9,25.07,SSW,202,15.2,22.6,14,0.00,,---,0.00,VWS V14.01,2013-04-09 05:12:00,
2013-04-09 00:13:00,72.9,20.9,25.07,SSW,202,13.2,15.2,14,0.00,,---,0.00,VWS V14.01,2013-04-09 05:13:00,
2013-04-09 00:14:00,72.9,20.9,25.07,SSW,202,11.0,17.7,14,0.00,,---,0.00,VWS V14.01,2013-04-09 05:14:00,
2013-04-09 00:15:00,72.7,20.8,25.07,SW,225,17.5,17.5,14,0.00,,---,0.00,VWS V14.01,2013-04-09 05:15:00,
2013-04-09 00:16:00,72.5,20.6,25.07,SSW,202,18.8,18.8,14,0.00,,---,0.00,VWS V14.01,2013-04-09 05:16:00,
2013-04-09 00:17:00,72.5,20.6,25.07,SW,225,17.9,18.8,14,0.00,,---,0.00,VWS V14.01,2013-04-09 05:17:00,
2013-04-09 00:18:00,72.5,20.6,25.07,SSW,202,14.1,20.1,14,0.00,,---,0.00,VWS V14.01,2013-04-09 05:18:00,
2013-04-09 00:19:00,72.5,20.6,25.07,SW,225,15.4,17.7,14,0.00,,---,0.00,VWS V14.01,2013-04-09 05:19:00,
2013-04-09 00:20:00,72.3,20.5,25.07,SSW,202,16.6,22.8,14,0.00,,---,0.00,VWS V14.01,2013-04-09 05:20:00,
2013-04-09 00:21:00,72.5,20.6,25.07,SSW,202,20.8,22.8,14,0.00,,---,0.00,VWS V14.01,2013-04-09 05:21:00,
2013-04-09 00:22:00,72.5,20.6,25.07,SSW,202,17.5,20.8,14,0.00,,---,0.00,VWS V14.01,2013-04-09 05:22:00,
2013-04-09 00:23:00,72.3,20.5,25.07,SW,225,20.1,20.1,14,0.00,,---,0.00,VWS V14.01,2013-04-09 05:23:00,
2013-04-09 00:24:00,72.3,20.5,25.07,SSW,202,16.8,20.1,14,0.00,,---,0.00,VWS V14.01,2013-04-09 05:24:00,
2013-04-09 00:25:00,72.1,20.4,25.07,SW,225,13.2,18.8,14,0.00,,---,0.00,VWS V14.01,2013-04-09 05:25:00,
2013-04-09 00:26:00,72.1,20.4,25.07,SW,225,14.3,20.1,14,0.00,,---,0.00,VWS V14.01,2013-04-09 05:26:00,
2013-04-09 00:27:00,72.0,20.2,25.07,SSW,202,19.9,19.9,14,0.00,,---,0.00,VWS V14.01,2013-04-09 05:27:00,
2013-04-09 00:28:00,72.1,20.4,25.07,SSW,202,17.2,19.9,14,0.00,,---,0.00,VWS V14.01,2013-04-09 05:28:00,
2013-04-09 00:29:00,72.1,20.4,25.07,SSW,202,15.4,23.5,14,0.00,,---,0.00,VWS V14.01,2013-04-09 05:29:00,
2013-04-09 00:30:00,72.1,20.4,25.07,SSW,202,17.2,17.2,14,0.00,,---,0.00,VWS V14.01,2013-04-09 05:30:00,
2013-04-09 00:31:00,72.1,20.4,25.07,SSW,202,26.6,26.6,14,0.00,,---,0.00,VWS V14.01,2013-04-09 05:31:00,
2013-04-09 00:32:00,72.1,20.4,25.07,SSW,202,14.8,26.6,14,0.00,,---,0.00,VWS V14.01,2013-04-09 05:32:00,
2013-04-09 00:33:00,72.0,20.2,25.07,SSW,202,13.6,20.4,14,0.00,,---,0.00,VWS V14.01,2013-04-09 05:33:00,
2013-04-09 00:34:00,72.1,20.4,25.07,SSW,202,22.2,22.6,14,0.00,,---,0.00,VWS V14.01,2013-04-09 05:34:00,
2013-04-09 00:35:00,72.1,20.4,25.07,South,180,23.9,23.9,14,0.00,,---,0.00,VWS V14.01,2013-04-09 05:35:00,
2013-04-09 00:36:00,72.0,20.2,25.07,SSW,202,13.6,23.9,14,0.00,,---,0.00,VWS V14.01,2013-04-09 05:36:00,
2013-04-09 00:37:00,71.8,20.1,25.07,SSW,202,14.1,23.7,14,0.00,,---,0.00,VWS V14.01,2013-04-09 05:37:00,
2013-04-09 00:38:00,71.8,20.1,25.07,SSW,202,19.7,22.4,14,0.00,,---,0.00,VWS V14.01,2013-04-09 05:38:00,
2013-04-09 00:40:00,72.1,20.4,25.07,SW,225,17.7,23.7,14,0.00,,---,0.00,VWS V14.01,2013-04-09 05:40:00,
2013-04-09 00:41:00,72.1,20.4,25.07,SSW,202,15.2,26.4,14,0.00,,---,0.00,VWS V14.01,2013-04-09 05:41:00,
2013-04-09 00:42:00,71.8,20.1,25.07,SSW,202,19.5,24.4,14,0.00,,---,0.00,VWS V14.01,2013-04-09 05:42:00,
2013-04-09 00:43:00,71.6,19.9,25.07,SW,225,22.4,22.4,14,0.00,,---,0.00,VWS V14.01,2013-04-09 05:43:00,
2013-04-09 00:45:00,71.8,20.1,25.07,SSW,202,17.7,17.7,14,0.00,,---,0.00,VWS V14.01,2013-04-09 05:45:00,
2013-04-09 00:46:00,71.6,19.9,25.07,SSW,202,18.6,24.6,14,0.00,,---,0.00,VWS V14.01,2013-04-09 05:46:00,
2013-04-09 00:47:00,71.4,19.8,25.07,SSW,202,13.0,18.6,14,0.00,,---,0.00,VWS V14.01,2013-04-09 05:47:00,
2013-04-09 00:48:00,71.4,19.8,25.07,SSW,202,15.4,15.4,14,0.00,,---,0.00,VWS V14.01,2013-04-09 05:48:00,
2013-04-09 00:49:00,71.6,19.9,25.07,SSW,202,15.7,19.2,14,0.00,,---,0.00,VWS V14.01,2013-04-09 05:49:00,
2013-04-09 00:50:00,71.8,20.1,25.07,SSW,202,12.1,24.6,14,0.00,,---,0.00,VWS V14.01,2013-04-09 05:50:00,
2013-04-09 00:51:00,71.8,20.1,25.07,SSW,202,17.7,17.7,14,0.00,,---,0.00,VWS V14.01,2013-04-09 05:51:00,
2013-04-09 00:52:00,71.8,20.1,25.07,SSW,202,17.7,20.8,14,0.00,,---,0.00,VWS V14.01,2013-04-09 05:52:00,
2013-04-09 00:53:00,71.8,20.1,25.07,SSW,202,14.8,22.6,14,0.00,,---,0.00,VWS V14.01,2013-04-09 05:53:00,
2013-04-09 00:54:00,71.4,19.8,25.07,SSW,202,19.0,19.0,14,0.00,,---,0.00,VWS V14.01,2013-04-09 05:54:00,
2013-04-09 00:55:00,71.2,19.6,25.07,SSW,202,13.0,19.0,14,0.00,,---,0.00,VWS V14.01,2013-04-09 05:55:00,
2013-04-09 00:56:00,71.2,19.6,25.07,SSW,202,24.2,24.2,14,0.00,,---,0.00,VWS V14.01,2013-04-09 05:56:00,
2013-04-09 00:57:00,71.2,19.6,25.07,SW,225,24.2,24.2,14,0.00,,---,0.00,VWS V14.01,2013-04-09 05:57:00,
2013-04-09 00:58:00,71.1,19.5,25.07,SSW,202,23.9,24.2,14,0.00,,---,0.00,VWS V14.01,2013-04-09 05:58:00,
2013-04-09 00:59:00,71.2,19.6,25.07,South,180,19.0,23.9,14,0.00,,---,0.00,VWS V14.01,2013-04-09 05:59:00,
2013-04-09 01:00:00,71.1,19.5,25.07,SSW,202,17.7,19.2,14,0.00,,---,0.00,VWS V14.01,2013-04-09 06:00:00,
2013-04-09 01:01:00,71.1,19.5,25.07,SW,225,17.2,19.5,14,0.00,,---,0.00,VWS V14.01,2013-04-09 06:01:00,
2013-04-09 01:02:00,71.2,19.6,25.07,SW,225,17.2,17.2,14,0.00,,---,0.00,VWS V14.01,2013-04-09 06:02:00,
2013-04-09 01:03:00,71.4,19.8,25.07,SSW,202,20.1,20.1,14,0.00,,---,0.00,VWS V14.01,2013-04-09 06:03:00,
2013-04-09 01:04:00,71.4,19.8,25.07,SW,225,25.5,25.5,14,0.00,,---,0.00,VWS V14.01,2013-04-09 06:04:00,
2013-04-09 01:05:00,71.4,19.8,25.07,SSW,202,20.4,25.5,14,0.00,,---,0.00,VWS V14.01,2013-04-09 06:05:00,
2013-04-09 01:06:00,71.2,19.6,25.07,SSW,202,22.6,24.2,14,0.00,,---,0.00,VWS V14.01,2013-04-09 06:06:00,
2013-04-09 01:07:00,71.2,19.6,25.07,SSW,202,12.5,12.5,14,0.00,,---,0.00,VWS V14.01,2013-04-09 06:07:00,
2013-04-09 01:08:00,71.2,19.6,25.07,SSW,202,23.3,23.3,14,0.00,,---,0.00,VWS V14.01,2013-04-09 06:08:00,
2013-04-09 01:09:00,71.2,19.6,25.07,SSW,202,20.8,22.6,14,0.00,,---,0.00,VWS V14.01,2013-04-09 06:09:00,
2013-04-09 01:10:00,71.4,19.8,25.07,SSW,202,14.8,26.6,14,0.00,,---,0.00,VWS V14.01,2013-04-09 06:10:00,
2013-04-09 01:11:00,71.4,19.8,25.07,SSW,202,20.1,26.6,14,0.00,,---,0.00,VWS V14.01,2013-04-09 06:11:00,
2013-04-09 01:12:00,71.4,19.8,25.07,SW,225,17.0,20.1,14,0.00,,---,0.00,VWS V14.01,2013-04-09 06:12:00,
2013-04-09 01:13:00,71.4,19.8,25.07,SSW,202,22.2,22.2,14,0.00,,---,0.00,VWS V14.01,2013-04-09 06:13:00,
2013-04-09 01:14:00,71.2,19.6,25.07,SW,225,22.8,23.5,14,0.00,,---,0.00,VWS V14.01,2013-04-09 06:14:00,
2013-04-09 01:15:00,71.2,19.6,25.07,SW,225,17.7,23.9,14,0.00,,---,0.00,VWS V14.01,2013-04-09 06:15:00,
2013-04-09 01:16:00,71.2,19.6,25.07,SW,225,19.9,19.9,14,0.00,,---,0.00,VWS V14.01,2013-04-09 06:16:00,
2013-04-09 01:17:00,71.2,19.6,25.07,SW,225,19.5,27.5,14,0.00,,---,0.00,VWS V14.01,2013-04-09 06:17:00,
2013-04-09 01:18:00,71.2,19.6,25.07,SSW,202,22.8,22.8,14,0.00,,---,0.00,VWS V14.01,2013-04-09 06:18:00,
2013-04-09 01:19:00,71.2,19.6,25.07,SSW,202,23.0,23.0,14,0.00,,---,0.00,VWS V14.01,2013-04-09 06:19:00,
2013-04-09 01:20:00,71.2,19.6,25.07,SW,225,23.5,23.9,14,0.00,,---,0.00,VWS V14.01,2013-04-09 06:20:00,
2013-04-09 01:21:00,71.1,19.5,25.07,SSW,202,19.2,23.7,14,0.00,,---,0.00,VWS V14.01,2013-04-09 06:21:00,
2013-04-09 01:22:00,71.1,19.5,25.07,SSW,202,27.7,27.7,14,0.00,,---,0.00,VWS V14.01,2013-04-09 06:22:00,
2013-04-09 01:23:00,71.2,19.6,25.07,SSW,202,23.3,27.7,14,0.00,,---,0.00,VWS V14.01,2013-04-09 06:23:00,
2013-04-09 01:24:00,71.2,19.6,25.07,SSW,202,16.8,25.3,14,0.00,,---,0.00,VWS V14.01,2013-04-09 06:24:00,
2013-04-09 01:26:00,71.2,19.6,25.07,SSW,202,23.9,28.6,14,0.00,,---,0.00,VWS V14.01,2013-04-09 06:26:00,
2013-04-09 01:27:00,71.2,19.6,25.07,SSW,202,16.6,23.9,14,0.00,,---,0.00,VWS V14.01,2013-04-09 06:27:00,
2013-04-09 01:28:00,70.9,19.4,25.07,SSW,202,19.5,19.5,14,0.00,,---,0.00,VWS V14.01,2013-04-09 06:28:00,
2013-04-09 01:29:00,70.9,19.4,25.07,SSW,202,17.7,21.3,14,0.00,,---,0.00,VWS V14.01,2013-04-09 06:29:00,
2013-04-09 01:30:00,70.9,19.4,25.07,SSW,202,14.5,21.9,14,0.00,,---,0.00,VWS V14.01,2013-04-09 06:30:00,
2013-04-09 01:31:00,70.9,19.4,25.07,SSW,202,15.4,21.9,14,0.00,,---,0.00,VWS V14.01,2013-04-09 06:31:00,
2013-04-09 01:32:00,70.7,19.2,25.07,SW,225,12.8,19.5,14,0.00,,---,0.00,VWS V14.01,2013-04-09 06:32:00,
2013-04-09 01:33:00,70.5,19.1,25.07,SSW,202,22.2,22.2,14,0.00,,---,0.00,VWS V14.01,2013-04-09 06:33:00,
2013-04-09 01:34:00,70.5,19.1,25.07,SSW,202,16.6,22.2,14,0.00,,---,0.00,VWS V14.01,2013-04-09 06:34:00,
2013-04-09 01:35:00,70.5,19.1,25.07,SSW,202,18.6,18.6,14,0.00,,---,0.00,VWS V14.01,2013-04-09 06:35:00,
2013-04-09 01:36:00,70.5,19.1,25.07,South,180,17.7,18.6,14,0.00,,---,0.00,VWS V14.01,2013-04-09 06:36:00,
2013-04-09 01:37:00,70.3,18.9,25.07,SSW,202,17.5,17.5,14,0.00,,---,0.00,VWS V14.01,2013-04-09 06:37:00,
2013-04-09 01:38:00,70.3,18.9,25.07,SSW,202,13.0,17.5,14,0.00,,---,0.00,VWS V14.01,2013-04-09 06:38:00,
2013-04-09 01:39:00,70.3,18.9,25.07,SSW,202,17.0,17.0,14,0.00,,---,0.00,VWS V14.01,2013-04-09 06:39:00,
2013-04-09 01:40:00,70.3,18.9,25.07,SSW,202,11.0,17.5,14,0.00,,---,0.00,VWS V14.01,2013-04-09 06:40:00,
2013-04-09 01:41:00,70.2,18.8,25.07,SW,225,19.9,19.9,14,0.00,,---,0.00,VWS V14.01,2013-04-09 06:41:00,
2013-04-09 01:42:00,70.2,18.8,25.07,SSW,202,12.5,19.9,14,0.00,,---,0.00,VWS V14.01,2013-04-09 06:42:00,
2013-04-09 01:43:00,70.2,18.8,25.07,SSW,202,12.5,12.5,14,0.00,,---,0.00,VWS V14.01,2013-04-09 06:43:00,
2013-04-09 01:44:00,70.3,18.9,25.07,SSW,202,17.7,17.7,14,0.00,,---,0.00,VWS V14.01,2013-04-09 06:44:00,
2013-04-09 01:45:00,70.3,18.9,25.07,SSW,202,25.1,25.1,14,0.00,,---,0.00,VWS V14.01,2013-04-09 06:45:00,
2013-04-09 01:46:00,70.3,18.9,25.07,SSW,202,23.0,25.1,14,0.00,,---,0.00,VWS V14.01,2013-04-09 06:46:00,
2013-04-09 01:47:00,70.3,18.9,25.07,SW,225,23.3,25.3,14,0.00,,---,0.00,VWS V14.01,2013-04-09 06:47:00,
2013-04-09 01:48:00,70.3,18.9,25.07,SSW,202,15.4,23.3,14,0.00,,---,0.00,VWS V14.01,2013-04-09 06:48:00,
2013-04-09 01:49:00,70.2,18.8,25.07,SSW,202,13.2,25.7,14,0.00,,---,0.00,VWS V14.01,2013-04-09 06:49:00,
2013-04-09 01:50:00,70.3,18.9,25.07,SSW,202,19.7,25.3,14,0.00,,---,0.00,VWS V14.01,2013-04-09 06:50:00,
2013-04-09 01:51:00,70.3,18.9,25.07,SSW,202,23.7,23.7,14,0.00,,---,0.00,VWS V14.01,2013-04-09 06:51:00,
2013-04-09 01:52:00,70.3,18.9,25.07,SSW,202,17.2,23.7,14,0.00,,---,0.00,VWS V14.01,2013-04-09 06:52:00,
2013-04-09 01:53:00,70.3,18.9,25.07,SSW,202,19.7,23.5,14,0.00,,---,0.00,VWS V14.01,2013-04-09 06:53:00,
2013-04-09 01:54:00,70.0,18.6,25.04,SW,225,24.6,24.6,14,0.00,,---,0.00,VWS V14.01,2013-04-09 06:54:00,
2013-04-09 01:55:00,70.2,18.8,25.04,SSW,202,19.9,24.6,14,0.00,,---,0.00,VWS V14.01,2013-04-09 06:55:00,
2013-04-09 01:56:00,70.2,18.8,25.04,SSW,202,17.7,27.3,14,0.00,,---,0.00,VWS V14.01,2013-04-09 06:56:00,
2013-04-09 01:57:00,70.2,18.8,25.04,SSW,202,17.5,21.3,14,0.00,,---,0.00,VWS V14.01,2013-04-09 06:57:00,
2013-04-09 01:58:00,70.2,18.8,25.04,SW,225,14.8,15.2,14,0.00,,---,0.00,VWS V14.01,2013-04-09 06:58:00,
2013-04-09 01:59:00,70.0,18.6,25.04,SSW,202,18.8,18.8,14,0.00,,---,0.00,VWS V14.01,2013-04-09 06:59:00,
2013-04-09 02:00:00,69.8,18.5,25.04,SSW,202,17.2,20.4,14,0.00,,---,0.00,VWS V14.01,2013-04-09 07:00:00,
2013-04-09 02:01:00,69.8,18.5,25.04,SSW,202,19.5,19.5,14,0.00,,---,0.00,VWS V14.01,2013-04-09 07:01:00,
2013-04-09 02:02:00,69.6,20.0,25.04,SSW,202,15.2,17.5,15,0.00,,---,0.00,VWS V14.01,2013-04-09 07:02:00,
2013-04-09 02:03:00,69.4,19.8,25.04,SSW,202,24.2,24.2,15,0.00,,---,0.00,VWS V14.01,2013-04-09 07:03:00,
2013-04-09 02:04:00,69.3,19.7,25.04,SSW,202,13.0,13.0,15,0.00,,---,0.00,VWS V14.01,2013-04-09 07:04:00,
2013-04-09 02:05:00,69.4,19.8,25.04,SSW,202,26.2,26.2,15,0.00,,---,0.00,VWS V14.01,2013-04-09 07:05:00,
2013-04-09 02:06:00,69.4,19.8,25.04,SSW,202,24.6,26.2,15,0.00,,---,0.00,VWS V14.01,2013-04-09 07:06:00,
2013-04-09 02:07:00,69.6,20.0,25.04,SW,225,19.5,25.3,15,0.00,,---,0.00,VWS V14.01,2013-04-09 07:07:00,
2013-04-09 02:09:00,69.6,20.0,25.04,SSW,202,20.1,27.1,15,0.00,,---,0.00,VWS V14.01,2013-04-09 07:09:00,
2013-04-09 02:10:00,69.6,20.0,25.01,SW,225,21.9,22.2,15,0.00,,---,0.00,VWS V14.01,2013-04-09 07:10:00,
2013-04-09 02:11:00,69.6,20.0,25.01,SSW,202,21.9,24.2,15,0.00,,---,0.00,VWS V14.01,2013-04-09 07:11:00,
2013-04-09 02:12:00,69.4,19.8,25.01,SSW,202,14.8,21.5,15,0.00,,---,0.00,VWS V14.01,2013-04-09 07:12:00,
2013-04-09 02:13:00,69.6,20.0,25.01,SSW,202,20.4,25.3,15,0.00,,---,0.00,VWS V14.01,2013-04-09 07:13:00,
2013-04-09 02:14:00,69.6,20.0,25.01,SW,225,24.4,34.5,15,0.00,,---,0.00,VWS V14.01,2013-04-09 07:14:00,
2013-04-09 02:15:00,69.4,19.8,25.01,SSW,202,28.4,30.7,15,0.00,,---,0.00,VWS V14.01,2013-04-09 07:15:00,
2013-04-09 02:16:00,69.4,19.8,25.01,SW,225,23.0,28.4,15,0.00,,---,0.00,VWS V14.01,2013-04-09 07:16:00,
2013-04-09 02:17:00,69.3,19.7,25.01,SSW,202,25.1,25.1,15,0.00,,---,0.00,VWS V14.01,2013-04-09 07:17:00,
2013-04-09 02:18:00,69.3,19.7,25.01,SSW,202,25.5,30.7,15,0.00,,---,0.00,VWS V14.01,2013-04-09 07:18:00,
2013-04-09 02:19:00,69.3,19.7,25.01,SW,225,23.3,25.5,15,0.00,,---,0.00,VWS V14.01,2013-04-09 07:19:00,
2013-04-09 02:20:00,69.1,19.5,25.01,SW,225,19.9,19.9,15,0.00,,---,0.00,VWS V14.01,2013-04-09 07:20:00,
2013-04-09 02:21:00,69.1,19.5,25.01,SW,225,24.2,25.1,15,0.00,,---,0.00,VWS V14.01,2013-04-09 07:21:00,
2013-04-09 02:22:00,69.3,19.7,25.01,SSW,202,32.4,32.4,15,0.00,,---,0.00,VWS V14.01,2013-04-09 07:22:00,
2013-04-09 02:23:00,69.3,19.7,25.01,SSW,202,28.9,32.4,15,0.00,,---,0.00,VWS V14.01,2013-04-09 07:23:00,
2013-04-09 02:24:00,69.1,19.5,25.01,SW,225,38.3,38.3,15,0.00,,---,0.00,VWS V14.01,2013-04-09 07:24:00,
2013-04-09 02:25:00,69.4,19.8,25.01,SSW,202,28.6,38.3,15,0.00,,---,0.00,VWS V14.01,2013-04-09 07:25:00,
2013-04-09 02:26:00,69.4,19.8,25.01,SW,225,26.2,27.3,15,0.00,,---,0.00,VWS V14.01,2013-04-09 07:26:00,
2013-04-09 02:27:00,69.4,19.8,25.01,SSW,202,23.5,36.5,15,0.00,,---,0.00,VWS V14.01,2013-04-09 07:27:00,
2013-04-09 02:28:00,69.4,19.8,25.01,SW,225,28.6,28.6,15,0.00,,---,0.00,VWS V14.01,2013-04-09 07:28:00,
2013-04-09 02:29:00,69.4,19.8,25.01,SSW,202,26.4,31.1,15,0.00,,---,0.00,VWS V14.01,2013-04-09 07:29:00,
2013-04-09 02:30:00,69.6,20.0,25.01,SW,225,30.9,34.5,15,0.00,,---,0.00,VWS V14.01,2013-04-09 07:30:00,
2013-04-09 02:31:00,69.6,20.0,25.01,SW,225,30.9,30.9,15,0.00,,---,0.00,VWS V14.01,2013-04-09 07:31:00,
2013-04-09 02:32:00,69.6,20.0,25.01,South,180,28.9,34.7,15,0.00,,---,0.00,VWS V14.01,2013-04-09 07:32:00,
2013-04-09 02:34:00,69.6,20.0,25.01,SSW,202,28.0,28.9,15,0.00,,---,0.00,VWS V14.01,2013-04-09 07:34:00,
2013-04-09 02:35:00,69.6,20.0,25.01,SSW,202,24.2,28.0,15,0.00,,---,0.00,VWS V14.01,2013-04-09 07:35:00,
2013-04-09 02:36:00,69.6,20.0,25.01,SSW,202,30.7,30.7,15,0.00,,---,0.00,VWS V14.01,2013-04-09 07:36:00,
2013-04-09 02:37:00,69.4,19.8,25.01,SSW,202,23.7,30.7,15,0.00,,---,0.00,VWS V14.01,2013-04-09 07:37:00,
2013-04-09 02:38:00,69.8,18.5,25.01,SW,225,27.7,27.7,14,0.00,,---,0.00,VWS V14.01,2013-04-09 07:38:00,
2013-04-09 02:39:00,69.8,18.5,25.01,SW,225,35.6,35.6,14,0.00,,---,0.00,VWS V14.01,2013-04-09 07:39:00,
2013-04-09 02:40:00,69.8,18.5,25.01,SSW,202,29.3,35.6,14,0.00,,---,0.00,VWS V14.01,2013-04-09 07:40:00,
2013-04-09 02:41:00,69.6,20.0,25.01,SSW,202,22.8,29.3,15,0.00,,---,0.00,VWS V14.01,2013-04-09 07:41:00,
2013-04-09 02:42:00,69.6,20.0,25.01,SSW,202,22.2,26.6,15,0.00,,---,0.00,VWS V14.01,2013-04-09 07:42:00,
2013-04-09 02:43:00,69.6,20.0,25.01,SSW,202,24.6,32.4,15,0.00,,---,0.00,VWS V14.01,2013-04-09 07:43:00,
2013-04-09 02:44:00,69.4,19.8,25.01,SW,225,28.9,28.9,15,0.00,,---,0.00,VWS V14.01,2013-04-09 07:44:00,
2013-04-09 02:45:00,69.4,19.8,25.01,SSW,202,19.9,31.8,15,0.00,,---,0.00,VWS V14.01,2013-04-09 07:45:00,
2013-04-09 02:46:00,69.4,19.8,25.01,SSW,202,19.9,19.9,15,0.00,,---,0.00,VWS V14.01,2013-04-09 07:46:00,
2013-04-09 02:47:00,69.4,19.8,25.01,SSW,202,31.3,31.3,15,0.00,,---,0.00,VWS V14.01,2013-04-09 07:47:00,
2013-04-09 02:48:00,69.3,19.7,25.01,SSW,202,23.3,31.8,15,0.00,,---,0.00,VWS V14.01,2013-04-09 07:48:00,
2013-04-09 02:49:00,69.1,19.5,25.01,SSW,202,21.3,26.9,15,0.00,,---,0.00,VWS V14.01,2013-04-09 07:49:00,
2013-04-09 02:50:00,69.1,19.5,25.01,SSW,202,22.8,22.8,15,0.00,,---,0.00,VWS V14.01,2013-04-09 07:50:00,
2013-04-09 02:51:00,69.4,19.8,25.01,SSW,202,25.1,25.3,15,0.00,,---,0.00,VWS V14.01,2013-04-09 07:51:00,
2013-04-09 02:52:00,69.4,19.8,25.01,SW,225,23.3,28.9,15,0.00,,---,0.00,VWS V14.01,2013-04-09 07:52:00,
2013-04-09 02:53:00,69.4,19.8,25.01,SW,225,30.7,30.7,15,0.00,,---,0.00,VWS V14.01,2013-04-09 07:53:00,
2013-04-09 02:54:00,69.4,19.8,25.01,South,180,22.2,30.7,15,0.00,,---,0.00,VWS V14.01,2013-04-09 07:54:00,
2013-04-09 02:55:00,69.4,19.8,25.01,SSW,202,18.8,30.2,15,0.00,,---,0.00,VWS V14.01,2013-04-09 07:55:00,
2013-04-09 02:56:00,69.4,19.8,25.01,SW,225,26.0,30.0,15,0.00,,---,0.00,VWS V14.01,2013-04-09 07:56:00,
2013-04-09 02:57:00,69.3,19.7,25.01,South,180,18.8,28.9,15,0.00,,---,0.00,VWS V14.01,2013-04-09 07:57:00,
2013-04-09 02:58:00,69.3,19.7,25.01,SW,225,29.5,29.5,15,0.00,,---,0.00,VWS V14.01,2013-04-09 07:58:00,
2013-04-09 02:59:00,69.3,19.7,25.01,SSW,202,20.6,29.5,15,0.00,,---,0.00,VWS V14.01,2013-04-09 07:59:00,
2013-04-09 03:00:00,69.1,19.5,25.01,SSW,202,26.9,26.9,15,0.00,,---,0.00,VWS V14.01,2013-04-09 08:00:00,
2013-04-09 03:01:00,69.1,19.5,25.01,SSE,158,21.9,28.0,15,0.00,,---,0.00,VWS V14.01,2013-04-09 08:01:00,
2013-04-09 03:02:00,69.1,19.5,25.01,SSW,202,22.8,29.3,15,0.00,,---,0.00,VWS V14.01,2013-04-09 08:02:00,
2013-04-09 03:03:00,69.1,19.5,25.01,SSW,202,30.7,30.7,15,0.00,,---,0.00,VWS V14.01,2013-04-09 08:03:00,
2013-04-09 03:04:00,69.1,19.5,25.01,SW,225,32.2,32.2,15,0.00,,---,0.00,VWS V14.01,2013-04-09 08:04:00,
2013-04-09 03:05:00,69.1,19.5,25.01,SSW,202,29.3,29.3,15,0.00,,---,0.00,VWS V14.01,2013-04-09 08:05:00,
2013-04-09 03:06:00,68.9,19.4,25.01,SW,225,19.7,30.9,15,0.00,,---,0.00,VWS V14.01,2013-04-09 08:06:00,
2013-04-09 03:07:00,68.9,19.4,25.01,SSW,202,24.2,30.9,15,0.00,,---,0.00,VWS V14.01,2013-04-09 08:07:00,
2013-04-09 03:08:00,68.9,19.4,25.01,SW,225,27.7,32.4,15,0.00,,---,0.00,VWS V14.01,2013-04-09 08:08:00,
2013-04-09 03:09:00,68.9,19.4,25.01,SSW,202,19.9,32.4,15,0.00,,---,0.00,VWS V14.01,2013-04-09 08:09:00,
2013-04-09 03:10:00,68.9,19.4,25.01,SSW,202,23.7,32.4,15,0.00,,---,0.00,VWS V14.01,2013-04-09 08:10:00,
2013-04-09 03:11:00,68.7,19.2,25.01,SSW,202,28.9,30.2,15,0.00,,---,0.00,VWS V14.01,2013-04-09 08:11:00,
2013-04-09 03:12:00,68.7,19.2,25.01,SW,225,28.0,28.9,15,0.00,,---,0.00,VWS V14.01,2013-04-09 08:12:00,
2013-04-09 03:13:00,68.7,19.2,25.01,South,180,23.7,29.3,15,0.00,,---,0.00,VWS V14.01,2013-04-09 08:13:00,
2013-04-09 03:14:00,68.7,19.2,25.01,SSW,202,23.9,23.9,15,0.00,,---,0.00,VWS V14.01,2013-04-09 08:14:00,
2013-04-09 03:15:00,68.7,19.2,25.01,SSW,202,23.7,24.6,15,0.00,,---,0.00,VWS V14.01,2013-04-09 08:15:00,
2013-04-09 03:16:00,68.7,19.2,25.01,SSW,202,16.8,24.2,15,0.00,,---,0.00,VWS V14.01,2013-04-09 08:16:00,
2013-04-09 03:17:00,68.5,19.1,25.01,SSW,202,23.7,26.2,15,0.00,,---,0.00,VWS V14.01,2013-04-09 08:17:00,
2013-04-09 03:18:00,68.7,19.2,25.01,SSE,158,22.6,22.6,15,0.00,,---,0.00,VWS V14.01,2013-04-09 08:18:00,
2013-04-09 03:19:00,68.7,19.2,25.01,SSW,202,18.1,30.7,15,0.00,,---,0.00,VWS V14.01,2013-04-09 08:19:00,
2013-04-09 03:20:00,68.7,19.2,25.01,SSW,202,18.1,18.1,15,0.00,,---,0.00,VWS V14.01,2013-04-09 08:20:00,
2013-04-09 03:21:00,68.5,19.1,25.01,SSW,202,23.0,24.2,15,0.00,,---,0.00,VWS V14.01,2013-04-09 08:21:00,
2013-04-09 03:22:00,68.7,19.2,25.01,SSW,202,22.4,22.4,15,0.00,,---,0.00,VWS V14.01,2013-04-09 08:22:00,
2013-04-09 03:23:00,68.5,19.1,25.01,SSW,202,15.7,22.6,15,0.00,,---,0.00,VWS V14.01,2013-04-09 08:23:00,
2013-04-09 03:24:00,68.5,19.1,25.01,SSW,202,15.7,15.7,15,0.00,,---,0.00,VWS V14.01,2013-04-09 08:24:00,
2013-04-09 03:25:00,68.5,19.1,25.01,SSW,202,19.5,23.9,15,0.00,,---,0.00,VWS V14.01,2013-04-09 08:25:00,
2013-04-09 03:26:00,68.5,19.1,25.01,South,180,22.2,24.2,15,0.00,,---,0.00,VWS V14.01,2013-04-09 08:26:00,
2013-04-09 03:27:00,68.5,19.1,25.01,South,180,23.9,23.9,15,0.00,,---,0.00,VWS V14.01,2013-04-09 08:27:00,
2013-04-09 03:28:00,68.4,19.0,25.01,South,180,23.3,23.9,15,0.00,,---,0.00,VWS V14.01,2013-04-09 08:28:00,
2013-04-09 03:29:00,68.4,19.0,25.01,South,180,19.7,23.3,15,0.00,,---,0.00,VWS V14.01,2013-04-09 08:29:00,
2013-04-09 03:30:00,68.4,19.0,25.01,SSW,202,17.5,20.4,15,0.00,,---,0.00,VWS V14.01,2013-04-09 08:30:00,
2013-04-09 03:31:00,68.4,19.0,25.01,SSW,202,23.9,23.9,15,0.00,,---,0.00,VWS V14.01,2013-04-09 08:31:00,
2013-04-09 03:32:00,68.5,19.1,25.01,SSW,202,23.5,23.9,15,0.00,,---,0.00,VWS V14.01,2013-04-09 08:32:00,
2013-04-09 03:33:00,68.5,19.1,25.01,SSW,202,27.1,27.1,15,0.00,,---,0.00,VWS V14.01,2013-04-09 08:33:00,
2013-04-09 03:34:00,68.5,19.1,25.01,SSE,158,24.6,27.1,15,0.00,,---,0.00,VWS V14.01,2013-04-09 08:34:00,
2013-04-09 03:35:00,68.5,19.1,25.01,SSW,202,16.1,24.6,15,0.00,,---,0.00,VWS V14.01,2013-04-09 08:35:00,
2013-04-09 03:36:00,68.5,19.1,25.01,SSW,202,22.6,22.6,15,0.00,,---,0.00,VWS V14.01,2013-04-09 08:36:00,
2013-04-09 03:37:00,68.5,19.1,25.01,SSW,202,19.5,27.1,15,0.00,,---,0.00,VWS V14.01,2013-04-09 08:37:00,
2013-04-09 03:38:00,68.7,19.2,25.01,SSW,202,17.5,23.9,15,0.00,,---,0.00,VWS V14.01,2013-04-09 08:38:00,
2013-04-09 03:39:00,68.5,19.1,25.01,SSW,202,25.7,25.7,15,0.00,,---,0.00,VWS V14.01,2013-04-09 08:39:00,
2013-04-09 03:40:00,68.5,19.1,25.01,SSW,202,25.7,25.7,15,0.00,,---,0.00,VWS V14.01,2013-04-09 08:40:00,
2013-04-09 03:41:00,68.5,19.1,25.01,SSW,202,25.7,25.7,15,0.00,,---,0.00,VWS V14.01,2013-04-09 08:41:00,
2013-04-09 03:42:00,68.5,19.1,25.01,SSW,202,23.9,25.7,15,0.00,,---,0.00,VWS V14.01,2013-04-09 08:42:00,
2013-04-09 03:43:00,68.5,19.1,25.01,SSW,202,21.9,23.9,15,0.00,,---,0.00,VWS V14.01,2013-04-09 08:43:00,
2013-04-09 03:44:00,68.5,19.1,25.01,SSW,202,15.2,27.3,15,0.00,,---,0.00,VWS V14.01,2013-04-09 08:44:00,
2013-04-09 03:45:00,68.5,19.1,25.01,SSW,202,19.9,19.9,15,0.00,,---,0.00,VWS V14.01,2013-04-09 08:45:00,
2013-04-09 03:46:00,68.4,19.0,25.01,South,180,18.1,19.9,15,0.00,,---,0.00,VWS V14.01,2013-04-09 08:46:00,
2013-04-09 03:47:00,68.4,19.0,25.01,SSW,202,15.4,18.1,15,0.00,,---,0.00,VWS V14.01,2013-04-09 08:47:00,
2013-04-09 03:48:00,68.4,19.0,25.01,SSW,202,15.4,15.4,15,0.00,,---,0.00,VWS V14.01,2013-04-09 08:48:00,
2013-04-09 03:49:00,68.2,18.8,25.01,SSW,202,14.8,19.5,15,0.00,,---,0.00,VWS V14.01,2013-04-09 08:49:00,
2013-04-09 03:50:00,68.2,18.8,25.01,SSW,202,19.5,19.5,15,0.00,,---,0.00,VWS V14.01,2013-04-09 08:50:00,
2013-04-09 03:51:00,68.0,18.7,25.01,SSW,202,15.4,15.4,15,0.00,,---,0.00,VWS V14.01,2013-04-09 08:51:00,
2013-04-09 03:52:00,68.0,18.7,25.01,SSW,202,16.6,20.4,15,0.00,,---,0.00,VWS V14.01,2013-04-09 08:52:00,
2013-04-09 03:53:00,68.2,18.8,25.01,SSE,158,12.5,22.4,15,0.00,,---,0.00,VWS V14.01,2013-04-09 08:53:00,
2013-04-09 03:54:00,68.2,18.8,25.01,South,180,23.0,23.0,15,0.00,,---,0.00,VWS V14.01,2013-04-09 08:54:00,
2013-04-09 03:55:00,68.2,18.8,25.01,South,180,17.0,23.0,15,0.00,,---,0.00,VWS V14.01,2013-04-09 08:55:00,
2013-04-09 03:56:00,68.0,18.7,25.01,South,180,17.0,24.6,15,0.00,,---,0.00,VWS V14.01,2013-04-09 08:56:00,
2013-04-09 03:57:00,68.0,18.7,25.01,South,180,13.0,17.7,15,0.00,,---,0.00,VWS V14.01,2013-04-09 08:57:00,
2013-04-09 03:58:00,67.8,18.5,25.01,SSW,202,15.4,17.5,15,0.00,,---,0.00,VWS V14.01,2013-04-09 08:58:00,
2013-04-09 03:59:00,67.6,18.4,25.01,SSW,202,17.2,23.3,15,0.00,,---,0.00,VWS V14.01,2013-04-09 08:59:00,
2013-04-09 04:00:00,67.5,18.2,25.01,SSE,158,13.2,17.7,15,0.00,,---,0.00,VWS V14.01,2013-04-09 09:00:00,
2013-04-09 04:01:00,67.5,18.2,25.01,SSW,202,22.8,22.8,15,0.00,,---,0.00,VWS V14.01,2013-04-09 09:01:00,
2013-04-09 04:02:00,67.5,18.2,25.01,South,180,19.7,23.5,15,0.00,,---,0.00,VWS V14.01,2013-04-09 09:02:00,
2013-04-09 04:03:00,67.5,18.2,25.01,South,180,12.8,19.7,15,0.00,,---,0.00,VWS V14.01,2013-04-09 09:03:00,
2013-04-09 04:04:00,67.5,18.2,25.01,South,180,17.0,17.0,15,0.00,,---,0.00,VWS V14.01,2013-04-09 09:04:00,
2013-04-09 04:05:00,67.5,18.2,25.01,South,180,17.5,19.7,15,0.00,,---,0.00,VWS V14.01,2013-04-09 09:05:00,
2013-04-09 04:06:00,67.5,18.2,25.01,South,180,17.5,17.5,15,0.00,,---,0.00,VWS V14.01,2013-04-09 09:06:00,
2013-04-09 04:07:00,67.5,18.2,25.01,SSW,202,15.2,17.9,15,0.00,,---,0.00,VWS V14.01,2013-04-09 09:07:00,
2013-04-09 04:08:00,67.5,18.2,25.01,South,180,12.5,17.5,15,0.00,,---,0.00,VWS V14.01,2013-04-09 09:08:00,
2013-04-09 04:09:00,67.5,18.2,25.04,SSW,202,19.7,19.7,15,0.00,,---,0.00,VWS V14.01,2013-04-09 09:09:00,
2013-04-09 04:10:00,67.5,18.2,25.04,South,180,14.8,19.9,15,0.00,,---,0.00,VWS V14.01,2013-04-09 09:10:00,
2013-04-09 04:11:00,67.5,18.2,25.04,SSW,202,17.7,22.6,15,0.00,,---,0.00,VWS V14.01,2013-04-09 09:11:00,
2013-04-09 04:12:00,67.3,18.1,25.04,SSE,158,10.7,19.7,15,0.00,,---,0.00,VWS V14.01,2013-04-09 09:12:00,
2013-04-09 04:13:00,67.3,18.1,25.04,South,180,15.4,20.6,15,0.00,,---,0.00,VWS V14.01,2013-04-09 09:13:00,
2013-04-09 04:14:00,67.1,17.9,25.04,South,180,20.4,20.4,15,0.00,,---,0.00,VWS V14.01,2013-04-09 09:14:00,
2013-04-09 04:15:00,67.1,17.9,25.04,SSW,202,20.4,20.4,15,0.00,,---,0.00,VWS V14.01,2013-04-09 09:15:00,
2013-04-09 04:16:00,67.1,17.9,25.04,SSW,202,20.4,20.4,15,0.00,,---,0.00,VWS V14.01,2013-04-09 09:16:00,
2013-04-09 04:17:00,67.1,17.9,25.04,SSW,202,14.5,20.4,15,0.00,,---,0.00,VWS V14.01,2013-04-09 09:17:00,
2013-04-09 04:18:00,67.1,17.9,25.04,South,180,12.8,17.7,15,0.00,,---,0.00,VWS V14.01,2013-04-09 09:18:00,
2013-04-09 04:19:00,67.1,17.9,25.04,SW,225,17.0,18.8,15,0.00,,---,0.00,VWS V14.01,2013-04-09 09:19:00,
2013-04-09 04:20:00,67.1,17.9,25.04,SSW,202,13.2,18.8,15,0.00,,---,0.00,VWS V14.01,2013-04-09 09:20:00,
2013-04-09 04:21:00,66.9,17.8,25.04,SSW,202,19.9,19.9,15,0.00,,---,0.00,VWS V14.01,2013-04-09 09:21:00,
2013-04-09 04:22:00,67.1,17.9,25.04,SSW,202,19.0,23.7,15,0.00,,---,0.00,VWS V14.01,2013-04-09 09:22:00,
2013-04-09 04:23:00,67.1,17.9,25.04,SSW,202,15.9,23.3,15,0.00,,---,0.00,VWS V14.01,2013-04-09 09:23:00,
2013-04-09 04:24:00,67.1,17.9,25.04,South,180,11.0,15.9,15,0.00,,---,0.00,VWS V14.01,2013-04-09 09:24:00,
2013-04-09 04:25:00,66.9,17.8,25.04,South,180,19.7,19.7,15,0.00,,---,0.00,VWS V14.01,2013-04-09 09:25:00,
2013-04-09 04:26:00,66.9,17.8,25.04,SSW,202,17.7,19.9,15,0.00,,---,0.00,VWS V14.01,2013-04-09 09:26:00,
2013-04-09 04:27:00,66.7,17.6,25.04,SSE,158,15.4,17.7,15,0.00,,---,0.00,VWS V14.01,2013-04-09 09:27:00,
2013-04-09 04:28:00,66.7,17.6,25.04,SSW,202,18.8,25.5,15,0.00,,---,0.00,VWS V14.01,2013-04-09 09:28:00,
2013-04-09 04:29:00,66.7,17.6,25.04,SSW,202,19.7,19.7,15,0.00,,---,0.00,VWS V14.01,2013-04-09 09:29:00,
2013-04-09 04:30:00,66.9,17.8,25.04,South,180,14.8,21.0,15,0.00,,---,0.00,VWS V14.01,2013-04-09 09:30:00,
2013-04-09 04:31:00,66.9,17.8,25.04,SSW,202,13.4,14.8,15,0.00,,---,0.00,VWS V14.01,2013-04-09 09:31:00,
2013-04-09 04:32:00,66.9,17.8,25.04,SSW,202,15.2,15.2,15,0.00,,---,0.00,VWS V14.01,2013-04-09 09:32:00,
2013-04-09 04:33:00,66.7,17.6,25.04,South,180,18.1,18.1,15,0.00,,---,0.00,VWS V14.01,2013-04-09 09:33:00,
2013-04-09 04:35:00,66.7,17.6,25.04,SSW,202,20.1,20.6,15,0.00,,---,0.00,VWS V14.01,2013-04-09 09:35:00,
2013-04-09 04:36:00,66.7,17.6,25.04,South,180,12.8,20.6,15,0.00,,---,0.00,VWS V14.01,2013-04-09 09:36:00,
2013-04-09 04:37:00,66.7,17.6,25.04,SSW,202,21.0,21.0,15,0.00,,---,0.00,VWS V14.01,2013-04-09 09:37:00,
2013-04-09 04:38:00,66.7,17.6,25.04,South,180,15.7,23.3,15,0.00,,---,0.00,VWS V14.01,2013-04-09 09:38:00,
2013-04-09 04:39:00,66.7,17.6,25.01,South,180,20.1,23.9,15,0.00,,---,0.00,VWS V14.01,2013-04-09 09:39:00,
2013-04-09 04:40:00,66.7,17.6,25.01,SSW,202,15.4,20.1,15,0.00,,---,0.00,VWS V14.01,2013-04-09 09:40:00,
2013-04-09 04:41:00,66.6,17.5,25.01,SSW,202,22.8,22.8,15,0.00,,---,0.00,VWS V14.01,2013-04-09 09:41:00,
2013-04-09 04:42:00,66.6,17.5,25.01,SSW,202,17.7,22.8,15,0.00,,---,0.00,VWS V14.01,2013-04-09 09:42:00,
2013-04-09 04:43:00,66.6,17.5,25.01,SSW,202,18.1,22.2,15,0.00,,---,0.00,VWS V14.01,2013-04-09 09:43:00,
2013-04-09 04:45:00,66.6,17.5,25.01,South,180,17.0,20.8,15,0.00,,---,0.00,VWS V14.01,2013-04-09 09:45:00,
2013-04-09 04:46:00,66.6,17.5,25.01,SSW,202,15.7,17.0,15,0.00,,---,0.00,VWS V14.01,2013-04-09 09:46:00,
2013-04-09 04:47:00,66.6,17.5,25.01,South,180,22.8,22.8,15,0.00,,---,0.00,VWS V14.01,2013-04-09 09:47:00,
2013-04-09 04:48:00,66.6,17.5,25.01,South,180,14.5,23.7,15,0.00,,---,0.00,VWS V14.01,2013-04-09 09:48:00,
2013-04-09 04:49:00,66.6,17.5,25.01,SSW,202,20.6,25.5,15,0.00,,---,0.00,VWS V14.01,2013-04-09 09:49:00,
2013-04-09 04:50:00,66.6,17.5,25.01,SSE,158,17.7,17.7,15,0.00,,---,0.00,VWS V14.01,2013-04-09 09:50:00,
2013-04-09 04:51:00,66.6,17.5,25.01,SSW,202,22.8,22.8,15,0.00,,---,0.00,VWS V14.01,2013-04-09 09:51:00,
2013-04-09 04:52:00,66.6,17.5,25.01,SSW,202,23.9,23.9,15,0.00,,---,0.00,VWS V14.01,2013-04-09 09:52:00,
2013-04-09 04:53:00,66.6,17.5,25.01,SSW,202,17.7,23.9,15,0.00,,---,0.00,VWS V14.01,2013-04-09 09:53:00,
2013-04-09 04:54:00,66.4,17.4,25.01,SSW,202,29.1,29.1,15,0.00,,---,0.00,VWS V14.01,2013-04-09 09:54:00,
2013-04-09 04:55:00,66.6,17.5,25.01,SSW,202,18.1,29.1,15,0.00,,---,0.00,VWS V14.01,2013-04-09 09:55:00,
2013-04-09 04:56:00,66.6,17.5,25.01,SSW,202,22.2,22.2,15,0.00,,---,0.00,VWS V14.01,2013-04-09 09:56:00,
2013-04-09 04:57:00,66.4,17.4,25.01,SSW,202,16.8,25.5,15,0.00,,---,0.00,VWS V14.01,2013-04-09 09:57:00,
2013-04-09 04:58:00,66.4,17.4,25.01,South,180,22.2,25.1,15,0.00,,---,0.00,VWS V14.01,2013-04-09 09:58:00,
2013-04-09 04:59:00,66.4,17.4,25.01,SSE,158,15.7,22.2,15,0.00,,---,0.00,VWS V14.01,2013-04-09 09:59:00,
2013-04-09 05:00:00,66.4,17.4,25.01,SSW,202,19.5,23.0,15,0.00,,---,0.00,VWS V14.01,2013-04-09 10:00:00,
2013-04-09 05:01:00,66.2,17.2,25.01,SSW,202,17.7,19.5,15,0.00,,---,0.00,VWS V14.01,2013-04-09 10:01:00,
2013-04-09 05:02:00,66.2,17.2,25.01,SSW,202,15.4,23.5,15,0.00,,---,0.00,VWS V14.01,2013-04-09 10:02:00,
2013-04-09 05:03:00,66.2,17.2,25.01,SSW,202,17.7,17.7,15,0.00,,---,0.00,VWS V14.01,2013-04-09 10:03:00,
2013-04-09 05:04:00,66.0,17.1,25.01,SSW,202,23.5,23.5,15,0.00,,---,0.00,VWS V14.01,2013-04-09 10:04:00,
2013-04-09 05:05:00,66.0,17.1,25.01,SSW,202,23.7,25.5,15,0.00,,---,0.00,VWS V14.01,2013-04-09 10:05:00,
2013-04-09 05:06:00,66.0,17.1,25.01,SSW,202,23.9,24.4,15,0.00,,---,0.00,VWS V14.01,2013-04-09 10:06:00,
2013-04-09 05:07:00,66.0,17.1,25.01,SSW,202,17.7,23.9,15,0.00,,---,0.00,VWS V14.01,2013-04-09 10:07:00,
2013-04-09 05:08:00,66.0,17.1,25.01,SSW,202,17.0,19.0,15,0.00,,---,0.00,VWS V14.01,2013-04-09 10:08:00,
2013-04-09 05:09:00,66.0,17.1,25.01,SSW,202,26.2,26.2,15,0.00,,---,0.00,VWS V14.01,2013-04-09 10:09:00,
2013-04-09 05:10:00,66.0,17.1,25.04,SSW,202,17.5,26.2,15,0.00,,---,0.00,VWS V14.01,2013-04-09 10:10:00,
2013-04-09 05:11:00,65.8,16.9,25.04,SSW,202,25.5,25.5,15,0.00,,---,0.00,VWS V14.01,2013-04-09 10:11:00,
2013-04-09 05:12:00,65.8,16.9,25.04,SSW,202,12.8,25.5,15,0.00,,---,0.00,VWS V14.01,2013-04-09 10:12:00,
2013-04-09 05:13:00,65.8,16.9,25.04,SSW,202,16.1,20.8,15,0.00,,---,0.00,VWS V14.01,2013-04-09 10:13:00,
2013-04-09 05:14:00,65.8,16.9,25.04,SSW,202,19.9,19.9,15,0.00,,---,0.00,VWS V14.01,2013-04-09 10:14:00,
2013-04-09 05:15:00,65.8,16.9,25.04,South,180,21.9,29.8,15,0.00,,---,0.00,VWS V14.01,2013-04-09 10:15:00,
2013-04-09 05:16:00,65.8,16.9,25.04,South,180,16.1,21.9,15,0.00,,---,0.00,VWS V14.01,2013-04-09 10:16:00,
2013-04-09 05:17:00,65.8,16.9,25.04,SW,225,19.7,19.7,15,0.00,,---,0.00,VWS V14.01,2013-04-09 10:17:00,
2013-04-09 05:18:00,65.8,16.9,25.04,South,180,25.7,25.7,15,0.00,,---,0.00,VWS V14.01,2013-04-09 10:18:00,
2013-04-09 05:19:00,66.0,17.1,25.04,SSW,202,17.9,25.7,15,0.00,,---,0.00,VWS V14.01,2013-04-09 10:19:00,
2013-04-09 05:20:00,65.7,16.8,25.04,SSW,202,10.1,22.2,15,0.00,,---,0.00,VWS V14.01,2013-04-09 10:20:00,
2013-04-09 05:21:00,65.7,16.8,25.04,SSW,202,15.7,28.6,15,0.00,,---,0.00,VWS V14.01,2013-04-09 10:21:00,
2013-04-09 05:22:00,65.7,16.8,25.04,SSW,202,14.5,17.7,15,0.00,,---,0.00,VWS V14.01,2013-04-09 10:22:00,
2013-04-09 05:23:00,65.7,16.8,25.04,South,180,13.9,17.0,15,0.00,,---,0.00,VWS V14.01,2013-04-09 10:23:00,
2013-04-09 05:24:00,65.7,16.8,25.04,South,180,21.9,21.9,15,0.00,,---,0.00,VWS V14.01,2013-04-09 10:24:00,
2013-04-09 05:25:00,65.7,16.8,25.04,SSW,202,16.1,21.9,15,0.00,,---,0.00,VWS V14.01,2013-04-09 10:25:00,
2013-04-09 05:26:00,65.7,16.8,25.01,South,180,14.5,21.9,15,0.00,,---,0.00,VWS V14.01,2013-04-09 10:26:00,
2013-04-09 05:27:00,65.8,16.9,25.01,SW,225,19.5,20.4,15,0.00,,---,0.00,VWS V14.01,2013-04-09 10:27:00,
2013-04-09 05:28:00,65.7,16.8,25.01,SSW,202,17.7,19.5,15,0.00,,---,0.00,VWS V14.01,2013-04-09 10:28:00,
2013-04-09 05:29:00,65.7,16.8,25.01,SSW,202,22.8,22.8,15,0.00,,---,0.00,VWS V14.01,2013-04-09 10:29:00,
2013-04-09 05:30:00,65.7,16.8,25.01,SSW,202,17.5,23.7,15,0.00,,---,0.00,VWS V14.01,2013-04-09 10:30:00,
2013-04-09 05:31:00,65.7,16.8,25.01,SSW,202,25.1,25.1,15,0.00,,---,0.00,VWS V14.01,2013-04-09 10:31:00,
2013-04-09 05:32:00,65.7,16.8,25.01,SSW,202,19.7,25.1,15,0.00,,---,0.00,VWS V14.01,2013-04-09 10:32:00,
2013-04-09 05:33:00,65.7,16.8,25.01,SSW,202,15.2,19.7,15,0.00,,---,0.00,VWS V14.01,2013-04-09 10:33:00,
2013-04-09 05:34:00,65.7,16.8,25.01,SSW,202,19.0,19.0,15,0.00,,---,0.00,VWS V14.01,2013-04-09 10:34:00,
2013-04-09 05:35:00,65.7,16.8,25.01,South,180,19.9,19.9,15,0.00,,---,0.00,VWS V14.01,2013-04-09 10:35:00,
2013-04-09 05:36:00,65.7,16.8,25.01,SSW,202,13.2,23.3,15,0.00,,---,0.00,VWS V14.01,2013-04-09 10:36:00,
2013-04-09 05:37:00,65.7,16.8,25.01,SSW,202,13.2,13.2,15,0.00,,---,0.00,VWS V14.01,2013-04-09 10:37:00,
2013-04-09 05:38:00,65.5,16.6,25.01,SSW,202,14.8,19.0,15,0.00,,---,0.00,VWS V14.01,2013-04-09 10:38:00,
2013-04-09 05:39:00,65.3,16.5,25.04,SSW,202,16.3,22.2,15,0.00,,---,0.00,VWS V14.01,2013-04-09 10:39:00,
2013-04-09 05:40:00,65.1,16.4,25.04,SSW,202,15.4,18.8,15,0.00,,---,0.00,VWS V14.01,2013-04-09 10:40:00,
2013-04-09 05:41:00,65.1,16.4,25.04,SSW,202,12.3,23.3,15,0.00,,---,0.00,VWS V14.01,2013-04-09 10:41:00,
2013-04-09 05:42:00,65.1,16.4,25.04,SSW,202,13.2,15.2,15,0.00,,---,0.00,VWS V14.01,2013-04-09 10:42:00,
2013-04-09 05:43:00,64.8,16.1,25.04,SSW,202,13.0,17.7,15,0.00,,---,0.00,VWS V14.01,2013-04-09 10:43:00,
2013-04-09 05:44:00,64.8,16.1,25.04,SSW,202,13.0,13.0,15,0.00,,---,0.00,VWS V14.01,2013-04-09 10:44:00,
2013-04-09 05:45:00,64.8,16.1,25.04,SW,225,19.5,24.6,15,0.00,,---,0.00,VWS V14.01,2013-04-09 10:45:00,
2013-04-09 05:46:00,64.9,16.2,25.04,SSW,202,20.6,24.4,15,0.00,,---,0.00,VWS V14.01,2013-04-09 10:46:00,
2013-04-09 05:47:00,64.9,16.2,25.04,SSW,202,14.8,20.6,15,0.00,,---,0.00,VWS V14.01,2013-04-09 10:47:00,
2013-04-09 05:48:00,65.1,16.4,25.04,SSW,202,24.4,24.4,15,0.00,,---,0.00,VWS V14.01,2013-04-09 10:48:00,
2013-04-09 05:49:00,65.1,16.4,25.04,SSW,202,17.5,24.4,15,0.00,,---,0.00,VWS V14.01,2013-04-09 10:49:00,
2013-04-09 05:50:00,64.8,16.1,25.04,SSW,202,15.4,17.5,15,0.00,,---,0.00,VWS V14.01,2013-04-09 10:50:00,
2013-04-09 05:51:00,64.9,16.2,25.04,SE,135,19.0,23.3,15,0.00,,---,0.00,VWS V14.01,2013-04-09 10:51:00,
2013-04-09 05:52:00,64.9,16.2,25.04,SSW,202,16.8,23.5,15,0.00,,---,0.00,VWS V14.01,2013-04-09 10:52:00,
2013-04-09 05:53:00,64.9,16.2,25.04,SW,225,16.1,25.3,15,0.00,,---,0.00,VWS V14.01,2013-04-09 10:53:00,
2013-04-09 05:54:00,64.9,16.2,25.04,SSW,202,20.4,20.4,15,0.00,,---,0.00,VWS V14.01,2013-04-09 10:54:00,
2013-04-09 05:55:00,64.9,16.2,25.04,SSW,202,16.3,20.4,15,0.00,,---,0.00,VWS V14.01,2013-04-09 10:55:00,
2013-04-09 05:56:00,64.8,16.1,25.04,SW,225,15.4,16.3,15,0.00,,---,0.00,VWS V14.01,2013-04-09 10:56:00,
2013-04-09 05:57:00,64.8,16.1,25.04,SW,225,15.4,15.4,15,0.00,,---,0.00,VWS V14.01,2013-04-09 10:57:00,
2013-04-09 05:58:00,64.8,16.1,25.04,SW,225,14.3,25.1,15,0.00,,---,0.00,VWS V14.01,2013-04-09 10:58:00,
2013-04-09 05:59:00,64.8,16.1,25.04,SSW,202,14.8,23.3,15,0.00,,---,0.00,VWS V14.01,2013-04-09 10:59:00,
2013-04-09 06:00:00,64.8,16.1,25.04,South,180,19.5,19.5,15,0.00,,---,0.00,VWS V14.01,2013-04-09 11:00:00,
2013-04-09 06:01:00,64.8,16.1,25.04,SSW,202,21.9,21.9,15,0.00,,---,0.00,VWS V14.01,2013-04-09 11:01:00,
2013-04-09 06:02:00,64.9,16.2,25.04,SSW,202,22.8,24.4,15,0.00,,---,0.00,VWS V14.01,2013-04-09 11:02:00,
2013-04-09 06:03:00,64.9,16.2,25.04,SSW,202,15.4,22.8,15,0.00,,---,0.00,VWS V14.01,2013-04-09 11:03:00,
2013-04-09 06:04:00,64.8,16.1,25.04,SSW,202,15.4,15.4,15,0.00,,---,0.00,VWS V14.01,2013-04-09 11:04:00,
2013-04-09 06:05:00,64.9,16.2,25.04,South,180,26.2,26.2,15,0.00,,---,0.00,VWS V14.01,2013-04-09 11:05:00,
2013-04-09 06:06:00,64.9,16.2,25.04,SSW,202,22.4,28.6,15,0.00,,---,0.00,VWS V14.01,2013-04-09 11:06:00,
2013-04-09 06:07:00,65.1,16.4,25.04,SSW,202,22.8,22.8,15,0.00,,---,0.00,VWS V14.01,2013-04-09 11:07:00,
2013-04-09 06:08:00,65.1,16.4,25.04,South,180,21.3,24.2,15,0.00,,---,0.00,VWS V14.01,2013-04-09 11:08:00,
2013-04-09 06:09:00,65.1,16.4,25.04,South,180,14.8,21.3,15,0.00,,---,0.00,VWS V14.01,2013-04-09 11:09:00,
2013-04-09 06:10:00,64.9,16.2,25.04,SSW,202,18.6,23.5,15,0.00,,---,0.00,VWS V14.01,2013-04-09 11:10:00,
2013-04-09 06:11:00,64.9,16.2,25.04,South,180,14.8,20.6,15,0.00,,---,0.00,VWS V14.01,2013-04-09 11:11:00,
2013-04-09 06:12:00,64.8,16.1,25.04,SSW,202,13.6,17.2,15,0.00,,---,0.00,VWS V14.01,2013-04-09 11:12:00,
2013-04-09 06:13:00,64.4,15.8,25.04,SSW,202,13.0,20.4,15,0.00,,---,0.00,VWS V14.01,2013-04-09 11:13:00,
2013-04-09 06:14:00,64.4,15.8,25.04,SSW,202,14.5,14.5,15,0.00,,---,0.00,VWS V14.01,2013-04-09 11:14:00,
2013-04-09 06:15:00,64.6,15.9,25.04,SSW,202,24.2,24.2,15,0.00,,---,0.00,VWS V14.01,2013-04-09 11:15:00,
2013-04-09 06:16:00,64.6,15.9,25.04,SSW,202,24.2,24.2,15,0.00,,---,0.00,VWS V14.01,2013-04-09 11:16:00,
2013-04-09 06:17:00,64.6,15.9,25.04,SSW,202,20.6,24.2,15,0.00,,---,0.00,VWS V14.01,2013-04-09 11:17:00,
2013-04-09 06:18:00,64.6,15.9,25.04,SSW,202,19.7,22.2,15,0.00,,---,0.00,VWS V14.01,2013-04-09 11:18:00,
2013-04-09 06:19:00,64.6,15.9,25.04,SSW,202,21.0,25.1,15,0.00,,---,0.00,VWS V14.01,2013-04-09 11:19:00,
2013-04-09 06:20:00,64.8,16.1,25.04,SSW,202,25.5,25.5,15,0.00,,---,0.00,VWS V14.01,2013-04-09 11:20:00,
2013-04-09 06:21:00,64.8,16.1,25.04,SSW,202,17.2,25.5,15,0.00,,---,0.00,VWS V14.01,2013-04-09 11:21:00,
2013-04-09 06:22:00,64.8,16.1,25.04,SSW,202,28.0,28.0,15,0.00,,---,0.00,VWS V14.01,2013-04-09 11:22:00,
2013-04-09 06:23:00,64.8,16.1,25.04,SSW,202,26.9,28.0,15,0.00,,---,0.00,VWS V14.01,2013-04-09 11:23:00,
2013-04-09 06:24:00,64.8,16.1,25.04,SW,225,23.7,26.9,15,0.00,,---,0.00,VWS V14.01,2013-04-09 11:24:00,
2013-04-09 06:25:00,64.8,16.1,25.04,SSW,202,22.6,22.6,15,0.00,,---,0.00,VWS V14.01,2013-04-09 11:25:00,
2013-04-09 06:26:00,64.8,16.1,25.04,South,180,27.7,27.7,15,0.00,,---,0.00,VWS V14.01,2013-04-09 11:26:00,
2013-04-09 06:27:00,64.8,16.1,25.04,SSW,202,17.5,28.4,15,0.00,,---,0.00,VWS V14.01,2013-04-09 11:27:00,
2013-04-09 06:28:00,64.8,16.1,25.04,SSW,202,22.8,23.7,15,0.00,,---,0.00,VWS V14.01,2013-04-09 11:28:00,
2013-04-09 06:29:00,64.6,15.9,25.04,SSW,202,18.8,27.5,15,0.00,,---,0.00,VWS V14.01,2013-04-09 11:29:00,
2013-04-09 06:30:00,64.6,15.9,25.04,SW,225,23.5,31.8,15,0.00,,---,0.00,VWS V14.01,2013-04-09 11:30:00,
2013-04-09 06:31:00,64.6,15.9,25.04,SSW,202,23.9,23.9,15,0.00,,---,0.00,VWS V14.01,2013-04-09 11:31:00,
2013-04-09 06:32:00,64.8,16.1,25.04,SSW,202,20.6,20.6,15,0.00,,---,0.00,VWS V14.01,2013-04-09 11:32:00,
2013-04-09 06:33:00,64.8,16.1,25.04,SSW,202,24.2,24.4,15,0.00,,---,0.00,VWS V14.01,2013-04-09 11:33:00,
2013-04-09 06:34:00,64.6,15.9,25.04,SSW,202,28.0,28.0,15,0.00,,---,0.00,VWS V14.01,2013-04-09 11:34:00,
2013-04-09 06:35:00,64.6,15.9,25.04,SSW,202,21.9,28.0,15,0.00,,---,0.00,VWS V14.01,2013-04-09 11:35:00,
2013-04-09 06:36:00,64.6,15.9,25.04,South,180,22.2,25.5,15,0.00,,---,0.00,VWS V14.01,2013-04-09 11:36:00,
2013-04-09 06:37:00,64.6,15.9,25.04,SSW,202,22.4,23.0,15,0.00,,---,0.00,VWS V14.01,2013-04-09 11:37:00,
2013-04-09 06:38:00,64.4,15.8,25.04,SSW,202,17.0,23.0,15,0.00,,---,0.00,VWS V14.01,2013-04-09 11:38:00,
2013-04-09 06:39:00,64.4,15.8,25.04,SSW,202,17.0,23.0,15,0.00,,---,0.00,VWS V14.01,2013-04-09 11:39:00,
2013-04-09 06:40:00,64.2,17.1,25.04,SSW,202,14.8,23.3,16,0.00,,---,0.00,VWS V14.01,2013-04-09 11:40:00,
2013-04-09 06:41:00,64.0,17.0,25.04,South,180,14.5,17.2,16,0.00,,---,0.00,VWS V14.01,2013-04-09 11:41:00,
2013-04-09 06:42:00,64.0,17.0,25.04,SSW,202,20.4,20.4,16,0.00,,---,0.00,VWS V14.01,2013-04-09 11:42:00,
2013-04-09 06:43:00,64.0,17.0,25.04,South,180,19.0,19.0,16,0.00,,---,0.00,VWS V14.01,2013-04-09 11:43:00,
2013-04-09 06:44:00,64.0,17.0,25.04,SSW,202,19.9,19.9,16,0.00,,---,0.00,VWS V14.01,2013-04-09 11:44:00,
2013-04-09 06:45:00,64.0,17.0,25.04,SSW,202,15.2,19.9,16,0.00,,---,0.00,VWS V14.01,2013-04-09 11:45:00,
2013-04-09 06:46:00,64.0,17.0,25.04,SSW,202,16.3,24.2,16,0.00,,---,0.00,VWS V14.01,2013-04-09 11:46:00,
2013-04-09 06:47:00,64.0,17.0,25.04,SSW,202,14.8,17.5,16,0.00,,---,0.00,VWS V14.01,2013-04-09 11:47:00,
2013-04-09 06:48:00,63.9,16.8,25.04,SSW,202,17.7,22.6,16,0.00,,---,0.00,VWS V14.01,2013-04-09 11:48:00,
2013-04-09 06:49:00,64.0,17.0,25.04,SW,225,15.4,19.5,16,0.00,,---,0.00,VWS V14.01,2013-04-09 11:49:00,
2013-04-09 06:50:00,64.0,17.0,25.04,South,180,19.0,20.1,16,0.00,,---,0.00,VWS V14.01,2013-04-09 11:50:00,
2013-04-09 06:51:00,64.0,17.0,25.04,SSW,202,15.2,20.1,16,0.00,,---,0.00,VWS V14.01,2013-04-09 11:51:00,
2013-04-09 06:52:00,64.0,17.0,25.04,SSW,202,23.9,23.9,16,0.00,,---,0.00,VWS V14.01,2013-04-09 11:52:00,
2013-04-09 06:53:00,64.0,17.0,25.04,South,180,14.5,23.9,16,0.00,,---,0.00,VWS V14.01,2013-04-09 11:53:00,
2013-04-09 06:54:00,64.0,17.0,25.07,SW,225,19.9,23.0,16,0.00,,---,0.00,VWS V14.01,2013-04-09 11:54:00,
2013-04-09 06:55:00,64.2,17.1,25.07,SSW,202,19.5,19.5,16,0.00,,---,0.00,VWS V14.01,2013-04-09 11:55:00,
2013-04-09 06:56:00,64.2,17.1,25.07,SSW,202,13.2,22.2,16,0.00,,---,0.00,VWS V14.01,2013-04-09 11:56:00,
2013-04-09 06:57:00,64.2,17.1,25.07,SSW,202,16.8,23.0,16,0.00,,---,0.00,VWS V14.01,2013-04-09 11:57:00,
2013-04-09 06:58:00,64.2,17.1,25.07,SSW,202,19.2,19.2,16,0.00,,---,0.00,VWS V14.01,2013-04-09 11:58:00,
2013-04-09 06:59:00,64.2,17.1,25.07,SW,225,17.2,19.2,16,0.00,,---,0.00,VWS V14.01,2013-04-09 11:59:00,
2013-04-09 07:00:00,64.2,17.1,25.07,South,180,17.7,18.1,16,0.00,,---,0.00,VWS V14.01,2013-04-09 12:00:00,
2013-04-09 07:01:00,64.4,15.8,25.07,SSW,202,24.2,24.2,15,0.00,,---,0.00,VWS V14.01,2013-04-09 12:01:00,
2013-04-09 07:02:00,64.4,15.8,25.07,South,180,19.7,24.2,15,0.00,,---,0.00,VWS V14.01,2013-04-09 12:02:00,
2013-04-09 07:03:00,64.6,15.9,25.07,SSW,202,20.6,27.7,15,0.00,,---,0.00,VWS V14.01,2013-04-09 12:03:00,
2013-04-09 07:04:00,64.6,15.9,25.07,South,180,27.3,27.3,15,0.00,,---,0.00,VWS V14.01,2013-04-09 12:04:00,
2013-04-09 07:05:00,64.6,15.9,25.07,SSW,202,16.6,27.3,15,0.00,,---,0.00,VWS V14.01,2013-04-09 12:05:00,
2013-04-09 07:06:00,64.8,16.1,25.07,SSW,202,17.2,20.6,15,0.00,,---,0.00,VWS V14.01,2013-04-09 12:06:00,
2013-04-09 07:07:00,64.8,16.1,25.07,SSW,202,19.7,19.7,15,0.00,,---,0.00,VWS V14.01,2013-04-09 12:07:00,
2013-04-09 07:08:00,64.9,16.2,25.07,SSW,202,14.1,19.7,15,0.00,,---,0.00,VWS V14.01,2013-04-09 12:08:00,
2013-04-09 07:09:00,64.9,16.2,25.10,SSW,202,10.7,13.2,15,0.00,,---,0.00,VWS V14.01,2013-04-09 12:09:00,
2013-04-09 07:10:00,64.8,16.1,25.10,SSW,202,14.8,17.2,15,0.00,,---,0.00,VWS V14.01,2013-04-09 12:10:00,
2013-04-09 07:11:00,64.6,15.9,25.10,SSW,202,12.5,17.2,15,0.00,,---,0.00,VWS V14.01,2013-04-09 12:11:00,
2013-04-09 07:12:00,64.6,15.9,25.10,SSW,202,18.6,18.6,15,0.00,,---,0.00,VWS V14.01,2013-04-09 12:12:00,
2013-04-09 07:13:00,64.8,16.1,25.10,SSW,202,14.8,14.8,15,0.00,,---,0.00,VWS V14.01,2013-04-09 12:13:00,
2013-04-09 07:14:00,64.8,16.1,25.10,South,180,22.6,22.6,15,0.00,,---,0.00,VWS V14.01,2013-04-09 12:14:00,
2013-04-09 07:15:00,64.8,16.1,25.10,South,180,22.6,22.6,15,0.00,,---,0.00,VWS V14.01,2013-04-09 12:15:00,
2013-04-09 07:16:00,64.8,16.1,25.10,SSW,202,17.7,22.6,15,0.00,,---,0.00,VWS V14.01,2013-04-09 12:16:00,
2013-04-09 07:17:00,64.9,16.2,25.10,SW,225,17.2,17.5,15,0.00,,---,0.00,VWS V14.01,2013-04-09 12:17:00,
2013-04-09 07:18:00,65.1,16.4,25.10,SSW,202,15.4,30.2,15,0.00,,---,0.00,VWS V14.01,2013-04-09 12:18:00,
2013-04-09 07:19:00,65.1,16.4,25.10,South,180,15.4,17.9,15,0.00,,---,0.00,VWS V14.01,2013-04-09 12:19:00,
2013-04-09 07:20:00,65.1,16.4,25.10,SSW,202,15.2,19.0,15,0.00,,---,0.00,VWS V14.01,2013-04-09 12:20:00,
2013-04-09 07:21:00,65.1,16.4,25.10,South,180,18.1,26.2,15,0.00,,---,0.00,VWS V14.01,2013-04-09 12:21:00,
2013-04-09 07:22:00,65.1,16.4,25.10,SSW,202,22.2,22.2,15,0.00,,---,0.00,VWS V14.01,2013-04-09 12:22:00,
2013-04-09 07:23:00,65.1,16.4,25.10,SSW,202,15.7,15.7,15,0.00,,---,0.00,VWS V14.01,2013-04-09 12:23:00,
2013-04-09 07:24:00,65.1,16.4,25.07,SSW,202,17.7,18.6,15,0.00,,---,0.00,VWS V14.01,2013-04-09 12:24:00,
2013-04-09 07:25:00,65.1,16.4,25.07,SSW,202,17.7,17.7,15,0.00,,---,0.00,VWS V14.01,2013-04-09 12:25:00,
2013-04-09 07:26:00,65.3,16.5,25.07,SSW,202,17.9,22.2,15,0.00,,---,0.00,VWS V14.01,2013-04-09 12:26:00,
2013-04-09 07:27:00,65.5,16.6,25.07,South,180,17.0,17.9,15,0.00,,---,0.00,VWS V14.01,2013-04-09 12:27:00,
2013-04-09 07:28:00,65.5,16.6,25.07,SSW,202,17.5,20.4,15,0.00,,---,0.00,VWS V14.01,2013-04-09 12:28:00,
2013-04-09 07:29:00,65.5,16.6,25.07,South,180,22.6,22.6,15,0.00,,---,0.00,VWS V14.01,2013-04-09 12:29:00,
2013-04-09 07:30:00,65.5,16.6,25.07,SSW,202,14.5,22.6,15,0.00,,---,0.00,VWS V14.01,2013-04-09 12:30:00,
2013-04-09 07:31:00,65.5,16.6,25.07,South,180,13.0,14.5,15,0.00,,---,0.00,VWS V14.01,2013-04-09 12:31:00,
2013-04-09 07:32:00,65.7,16.8,25.07,South,180,12.8,15.9,15,0.00,,---,0.00,VWS V14.01,2013-04-09 12:32:00,
2013-04-09 07:33:00,65.7,16.8,25.07,SSW,202,23.3,23.3,15,0.00,,---,0.00,VWS V14.01,2013-04-09 12:33:00,
2013-04-09 07:34:00,65.7,16.8,25.07,SSW,202,15.4,23.3,15,0.00,,---,0.00,VWS V14.01,2013-04-09 12:34:00,
2013-04-09 07:35:00,65.7,16.8,25.07,SSW,202,15.7,15.7,15,0.00,,---,0.00,VWS V14.01,2013-04-09 12:35:00,
2013-04-09 07:36:00,65.7,16.8,25.07,SSW,202,12.5,17.9,15,0.00,,---,0.00,VWS V14.01,2013-04-09 12:36:00,
2013-04-09 07:37:00,65.7,16.8,25.07,South,180,17.2,19.2,15,0.00,,---,0.00,VWS V14.01,2013-04-09 12:37:00,
2013-04-09 07:38:00,65.8,16.9,25.07,SSW,202,13.4,15.2,15,0.00,,---,0.00,VWS V14.01,2013-04-09 12:38:00,
2013-04-09 07:39:00,66.0,17.1,25.07,South,180,19.5,19.5,15,0.00,,---,0.00,VWS V14.01,2013-04-09 12:39:00,
2013-04-09 07:40:00,65.8,16.9,25.07,South,180,13.6,19.5,15,0.00,,---,0.00,VWS V14.01,2013-04-09 12:40:00,
2013-04-09 07:41:00,65.8,16.9,25.07,South,180,17.5,18.8,15,0.00,,---,0.00,VWS V14.01,2013-04-09 12:41:00,
2013-04-09 07:42:00,66.0,17.1,25.07,SSW,202,19.7,19.7,15,0.00,,---,0.00,VWS V14.01,2013-04-09 12:42:00,
2013-04-09 07:43:00,66.0,17.1,25.07,SSW,202,12.5,19.7,15,0.00,,---,0.00,VWS V14.01,2013-04-09 12:43:00,
2013-04-09 07:44:00,66.0,17.1,25.07,SSW,202,12.5,12.5,15,0.00,,---,0.00,VWS V14.01,2013-04-09 12:44:00,
2013-04-09 07:45:00,66.0,17.1,25.07,SSW,202,13.0,18.6,15,0.00,,---,0.00,VWS V14.01,2013-04-09 12:45:00,
2013-04-09 07:46:00,66.0,17.1,25.07,SSW,202,14.8,17.2,15,0.00,,---,0.00,VWS V14.01,2013-04-09 12:46:00,
2013-04-09 07:47:00,66.2,17.2,25.07,South,180,12.5,17.2,15,0.00,,---,0.00,VWS V14.01,2013-04-09 12:47:00,
2013-04-09 07:48:00,66.2,17.2,25.07,SW,225,15.2,15.2,15,0.00,,---,0.00,VWS V14.01,2013-04-09 12:48:00,
2013-04-09 07:49:00,66.2,17.2,25.07,SSW,202,15.4,16.1,15,0.00,,---,0.00,VWS V14.01,2013-04-09 12:49:00,
2013-04-09 07:51:00,66.4,17.4,25.07,SSW,202,13.0,13.0,15,0.00,,---,0.00,VWS V14.01,2013-04-09 12:51:00,
2013-04-09 07:52:00,66.4,17.4,25.07,SSW,202,23.3,23.3,15,0.00,,---,0.00,VWS V14.01,2013-04-09 12:52:00,
2013-04-09 07:53:00,66.4,17.4,25.07,SSW,202,15.2,25.7,15,0.00,,---,0.00,VWS V14.01,2013-04-09 12:53:00,
2013-04-09 07:54:00,66.4,17.4,25.07,SSW,202,17.7,20.1,15,0.00,,---,0.00,VWS V14.01,2013-04-09 12:54:00,
2013-04-09 07:55:00,66.4,17.4,25.07,South,180,23.3,23.3,15,0.00,,---,0.00,VWS V14.01,2013-04-09 12:55:00,
2013-04-09 07:56:00,66.4,17.4,25.07,SSW,202,19.5,23.3,15,0.00,,---,0.00,VWS V14.01,2013-04-09 12:56:00,
2013-04-09 07:57:00,66.4,17.4,25.07,SSW,202,17.5,23.3,15,0.00,,---,0.00,VWS V14.01,2013-04-09 12:57:00,
2013-04-09 07:58:00,66.6,17.5,25.07,SSW,202,13.2,17.5,15,0.00,,---,0.00,VWS V14.01,2013-04-09 12:58:00,
2013-04-09 08:00:00,66.6,17.5,25.07,South,180,16.6,25.1,15,0.00,,---,0.00,VWS V14.01,2013-04-09 13:00:00,
2013-04-09 08:01:00,66.6,17.5,25.07,SSW,202,17.0,25.1,15,0.00,,---,0.00,VWS V14.01,2013-04-09 13:01:00,
2013-04-09 08:02:00,66.7,17.6,25.07,SSW,202,13.0,17.0,15,0.00,,---,0.00,VWS V14.01,2013-04-09 13:02:00,
2013-04-09 08:03:00,66.7,17.6,25.07,SSW,202,15.4,15.4,15,0.00,,---,0.00,VWS V14.01,2013-04-09 13:03:00,
2013-04-09 08:04:00,66.9,17.8,25.07,South,180,17.5,17.7,15,0.00,,---,0.00,VWS V14.01,2013-04-09 13:04:00,
2013-04-09 08:05:00,66.9,17.8,25.07,SSW,202,13.0,17.5,15,0.00,,---,0.00,VWS V14.01,2013-04-09 13:05:00,
2013-04-09 08:06:00,66.9,17.8,25.07,SSW,202,21.9,21.9,15,0.00,,---,0.00,VWS V14.01,2013-04-09 13:06:00,
2013-04-09 08:07:00,66.9,17.8,25.07,SSW,202,17.2,21.9,15,0.00,,---,0.00,VWS V14.01,2013-04-09 13:07:00,
2013-04-09 08:08:00,66.9,17.8,25.07,South,180,10.5,17.2,15,0.00,,---,0.00,VWS V14.01,2013-04-09 13:08:00,
2013-04-09 08:09:00,66.9,17.8,25.07,SW,225,11.0,17.7,15,0.00,,---,0.00,VWS V14.01,2013-04-09 13:09:00,
2013-04-09 08:10:00,66.9,17.8,25.07,SSW,202,13.2,13.2,15,0.00,,---,0.00,VWS V14.01,2013-04-09 13:10:00,
2013-04-09 08:11:00,67.3,18.1,25.07,SW,225,17.7,17.7,15,0.00,,---,0.00,VWS V14.01,2013-04-09 13:11:00,
2013-04-09 08:12:00,67.3,18.1,25.07,SSW,202,17.9,17.9,15,0.00,,---,0.00,VWS V14.01,2013-04-09 13:12:00,
2013-04-09 08:13:00,67.3,18.1,25.07,SSW,202,13.2,17.9,15,0.00,,---,0.00,VWS V14.01,2013-04-09 13:13:00,
2013-04-09 08:14:00,67.3,18.1,25.07,South,180,16.8,21.0,15,0.00,,---,0.00,VWS V14.01,2013-04-09 13:14:00,
2013-04-09 08:15:00,67.3,18.1,25.07,SSW,202,21.5,21.5,15,0.00,,---,0.00,VWS V14.01,2013-04-09 13:15:00,
2013-04-09 08:16:00,67.3,18.1,25.07,SSW,202,21.5,21.5,15,0.00,,---,0.00,VWS V14.01,2013-04-09 13:16:00,
2013-04-09 08:17:00,67.5,18.2,25.07,SSW,202,10.3,21.5,15,0.00,,---,0.00,VWS V14.01,2013-04-09 13:17:00,
2013-04-09 08:18:00,67.5,18.2,25.07,SSW,202,15.2,20.8,15,0.00,,---,0.00,VWS V14.01,2013-04-09 13:18:00,
2013-04-09 08:19:00,67.6,18.4,25.07,SSW,202,17.2,17.2,15,0.00,,---,0.00,VWS V14.01,2013-04-09 13:19:00,
2013-04-09 08:20:00,67.8,18.5,25.07,SSW,202,15.4,15.4,15,0.00,,---,0.00,VWS V14.01,2013-04-09 13:20:00,
2013-04-09 08:21:00,67.6,18.4,25.07,SSW,202,17.7,17.7,15,0.00,,---,0.00,VWS V14.01,2013-04-09 13:21:00,
2013-04-09 08:22:00,67.6,18.4,25.07,SSW,202,14.1,17.7,15,0.00,,---,0.00,VWS V14.01,2013-04-09 13:22:00,
2013-04-09 08:23:00,67.6,18.4,25.07,SSW,202,27.3,27.3,15,0.00,,---,0.00,VWS V14.01,2013-04-09 13:23:00,
2013-04-09 08:24:00,67.6,18.4,25.07,SW,225,26.9,27.3,15,0.00,,---,0.00,VWS V14.01,2013-04-09 13:24:00,
2013-04-09 08:25:00,67.6,18.4,25.07,SSW,202,23.9,26.9,15,0.00,,---,0.00,VWS V14.01,2013-04-09 13:25:00,
2013-04-09 08:26:00,67.6,18.4,25.07,SSW,202,28.6,28.6,15,0.00,,---,0.00,VWS V14.01,2013-04-09 13:26:00,
2013-04-09 08:27:00,67.6,18.4,25.07,SSW,202,21.5,30.9,15,0.00,,---,0.00,VWS V14.01,2013-04-09 13:27:00,
2013-04-09 08:28:00,67.6,18.4,25.07,SSW,202,23.5,25.3,15,0.00,,---,0.00,VWS V14.01,2013-04-09 13:28:00,
2013-04-09 08:29:00,67.8,18.5,25.07,South,180,15.9,23.5,15,0.00,,---,0.00,VWS V14.01,2013-04-09 13:29:00,
2013-04-09 08:30:00,68.0,18.7,25.07,SW,225,22.4,22.4,15,0.00,,---,0.00,VWS V14.01,2013-04-09 13:30:00,
2013-04-09 08:31:00,68.0,18.7,25.07,SW,225,24.4,29.8,15,0.00,,---,0.00,VWS V14.01,2013-04-09 13:31:00,
2013-04-09 08:32:00,67.8,18.5,25.07,SSW,202,22.6,25.5,15,0.00,,---,0.00,VWS V14.01,2013-04-09 13:32:00,
2013-04-09 08:33:00,68.0,18.7,25.07,SSW,202,25.5,25.5,15,0.00,,---,0.00,VWS V14.01,2013-04-09 13:33:00,
2013-04-09 08:34:00,68.0,18.7,25.07,SSW,202,14.5,25.5,15,0.00,,---,0.00,VWS V14.01,2013-04-09 13:34:00,
2013-04-09 08:35:00,68.0,18.7,25.07,SSW,202,17.5,23.5,15,0.00,,---,0.00,VWS V14.01,2013-04-09 13:35:00,
2013-04-09 08:36:00,68.0,18.7,25.07,SSW,202,19.9,23.5,15,0.00,,---,0.00,VWS V14.01,2013-04-09 13:36:00,
2013-04-09 08:37:00,68.2,18.8,25.07,South,180,15.4,27.3,15,0.00,,---,0.00,VWS V14.01,2013-04-09 13:37:00,
2013-04-09 08:38:00,68.2,18.8,25.07,SSW,202,14.8,15.4,15,0.00,,---,0.00,VWS V14.01,2013-04-09 13:38:00,
2013-04-09 08:39:00,68.2,18.8,25.10,SSW,202,23.5,23.5,15,0.00,,---,0.00,VWS V14.01,2013-04-09 13:39:00,
2013-04-09 08:40:00,68.2,18.8,25.10,SSW,202,25.7,25.7,15,0.00,,---,0.00,VWS V14.01,2013-04-09 13:40:00,
2013-04-09 08:41:00,68.4,19.0,25.10,SW,225,25.1,25.7,15,0.00,,---,0.00,VWS V14.01,2013-04-09 13:41:00,
2013-04-09 08:42:00,68.4,19.0,25.10,SSW,202,14.5,27.3,15,0.00,,---,0.00,VWS V14.01,2013-04-09 13:42:00,
2013-04-09 08:43:00,68.4,19.0,25.10,SSW,202,19.9,19.9,15,0.00,,---,0.00,VWS V14.01,2013-04-09 13:43:00,
2013-04-09 08:44:00,68.5,19.1,25.10,SSW,202,21.9,23.5,15,0.00,,---,0.00,VWS V14.01,2013-04-09 13:44:00,
2013-04-09 08:45:00,68.5,19.1,25.10,SSW,202,17.2,25.5,15,0.00,,---,0.00,VWS V14.01,2013-04-09 13:45:00,
2013-04-09 08:46:00,68.7,19.2,25.10,SSW,202,26.9,26.9,15,0.00,,---,0.00,VWS V14.01,2013-04-09 13:46:00,
2013-04-09 08:47:00,68.9,19.4,25.10,SSW,202,14.8,26.9,15,0.00,,---,0.00,VWS V14.01,2013-04-09 13:47:00,
2013-04-09 08:48:00,68.7,19.2,25.10,SSW,202,19.9,22.4,15,0.00,,---,0.00,VWS V14.01,2013-04-09 13:48:00,
2013-04-09 08:49:00,68.7,19.2,25.10,South,180,15.4,24.4,15,0.00,,---,0.00,VWS V14.01,2013-04-09 13:49:00,
2013-04-09 08:50:00,68.7,19.2,25.10,SSW,202,22.6,23.7,15,0.00,,---,0.00,VWS V14.01,2013-04-09 13:50:00,
2013-04-09 08:51:00,68.7,19.2,25.10,SSW,202,15.4,27.3,15,0.00,,---,0.00,VWS V14.01,2013-04-09 13:51:00,
2013-04-09 08:52:00,68.9,19.4,25.10,SSW,202,17.5,17.5,15,0.00,,---,0.00,VWS V14.01,2013-04-09 13:52:00,
2013-04-09 08:53:00,68.9,19.4,25.10,SSW,202,17.7,27.5,15,0.00,,---,0.00,VWS V14.01,2013-04-09 13:53:00,
2013-04-09 08:54:00,68.9,19.4,25.10,SW,225,19.9,19.9,15,0.00,,---,0.00,VWS V14.01,2013-04-09 13:54:00,
2013-04-09 08:55:00,68.9,19.4,25.10,SW,225,14.5,23.5,15,0.00,,---,0.00,VWS V14.01,2013-04-09 13:55:00,
2013-04-09 08:56:00,69.1,19.5,25.10,South,180,16.3,23.5,15,0.00,,---,0.00,VWS V14.01,2013-04-09 13:56:00,
2013-04-09 08:57:00,69.1,19.5,25.10,SSW,202,17.2,22.6,15,0.00,,---,0.00,VWS V14.01,2013-04-09 13:57:00,
2013-04-09 08:58:00,69.3,19.7,25.10,SSW,202,24.2,24.2,15,0.00,,---,0.00,VWS V14.01,2013-04-09 13:58:00,
2013-04-09 08:59:00,69.3,19.7,25.10,South,180,17.5,17.5,15,0.00,,---,0.00,VWS V14.01,2013-04-09 13:59:00,
2013-04-09 09:00:00,69.3,19.7,25.10,SSW,202,25.5,25.5,15,0.00,,---,0.00,VWS V14.01,2013-04-09 14:00:00,
2013-04-09 09:01:00,69.3,19.7,25.10,SSW,202,26.9,26.9,15,0.00,,---,0.00,VWS V14.01,2013-04-09 14:01:00,
2013-04-09 09:02:00,69.1,19.5,25.10,SSW,202,27.3,28.0,15,0.00,,---,0.00,VWS V14.01,2013-04-09 14:02:00,
2013-04-09 09:03:00,69.1,19.5,25.10,SSW,202,24.2,27.3,15,0.00,,---,0.00,VWS V14.01,2013-04-09 14:03:00,
2013-04-09 09:04:00,69.1,19.5,25.10,SSW,202,22.8,24.2,15,0.00,,---,0.00,VWS V14.01,2013-04-09 14:04:00,
2013-04-09 09:05:00,69.1,19.5,25.10,SSW,202,17.5,28.0,15,0.00,,---,0.00,VWS V14.01,2013-04-09 14:05:00,
2013-04-09 09:06:00,69.3,19.7,25.10,SSW,202,19.5,22.4,15,0.00,,---,0.00,VWS V14.01,2013-04-09 14:06:00,
2013-04-09 09:07:00,69.3,19.7,25.10,SSW,202,19.9,23.5,15,0.00,,---,0.00,VWS V14.01,2013-04-09 14:07:00,
2013-04-09 09:08:00,69.4,19.8,25.10,South,180,19.9,19.9,15,0.00,,---,0.00,VWS V14.01,2013-04-09 14:08:00,
2013-04-09 09:09:00,69.4,19.8,25.10,SW,225,15.9,24.6,15,0.00,,---,0.00,VWS V14.01,2013-04-09 14:09:00,
2013-04-09 09:10:00,69.4,19.8,25.10,SSW,202,16.8,17.2,15,0.00,,---,0.00,VWS V14.01,2013-04-09 14:10:00,
2013-04-09 09:11:00,69.4,19.8,25.10,SSW,202,18.1,19.7,15,0.00,,---,0.00,VWS V14.01,2013-04-09 14:11:00,
2013-04-09 09:12:00,69.6,20.0,25.10,SSW,202,22.6,22.6,15,0.00,,---,0.00,VWS V14.01,2013-04-09 14:12:00,
2013-04-09 09:13:00,69.6,20.0,25.10,SSW,202,17.5,23.5,15,0.00,,---,0.00,VWS V14.01,2013-04-09 14:13:00,
2013-04-09 09:14:00,69.6,20.0,25.10,SSW,202,17.5,17.5,15,0.00,,---,0.00,VWS V14.01,2013-04-09 14:14:00,
2013-04-09 09:15:00,70.0,18.6,25.10,SSW,202,18.8,18.8,14,0.00,,---,0.00,VWS V14.01,2013-04-09 14:15:00,
2013-04-09 09:16:00,70.0,18.6,25.10,SSW,202,22.2,23.0,14,0.00,,---,0.00,VWS V14.01,2013-04-09 14:16:00,
2013-04-09 09:17:00,70.0,18.6,25.10,South,180,23.3,23.3,14,0.00,,---,0.00,VWS V14.01,2013-04-09 14:17:00,
2013-04-09 09:18:00,70.2,18.8,25.10,South,180,23.3,23.3,14,0.00,,---,0.00,VWS V14.01,2013-04-09 14:18:00,
2013-04-09 09:19:00,70.0,18.6,25.10,SSW,202,23.7,23.7,14,0.00,,---,0.00,VWS V14.01,2013-04-09 14:19:00,
2013-04-09 09:20:00,70.0,18.6,25.10,SSW,202,26.4,28.6,14,0.00,,---,0.00,VWS V14.01,2013-04-09 14:20:00,
2013-04-09 09:21:00,70.0,18.6,25.10,SSW,202,22.8,26.4,14,0.00,,---,0.00,VWS V14.01,2013-04-09 14:21:00,
2013-04-09 09:22:00,70.2,18.8,25.10,SSW,202,21.0,30.2,14,0.00,,---,0.00,VWS V14.01,2013-04-09 14:22:00,
2013-04-09 09:23:00,70.3,18.9,25.10,SSW,202,13.2,24.4,14,0.00,,---,0.00,VWS V14.01,2013-04-09 14:23:00,
2013-04-09 09:24:00,70.3,18.9,25.10,SSW,202,23.7,23.7,14,0.00,,---,0.00,VWS V14.01,2013-04-09 14:24:00,
2013-04-09 09:25:00,70.2,18.8,25.10,SSW,202,23.7,23.7,14,0.00,,---,0.00,VWS V14.01,2013-04-09 14:25:00,
2013-04-09 09:26:00,70.3,18.9,25.10,SW,225,24.6,27.7,14,0.00,,---,0.00,VWS V14.01,2013-04-09 14:26:00,
2013-04-09 09:27:00,70.5,19.1,25.10,SW,225,24.6,24.6,14,0.00,,---,0.00,VWS V14.01,2013-04-09 14:27:00,
2013-04-09 09:28:00,70.5,19.1,25.10,SSW,202,30.2,30.2,14,0.00,,---,0.00,VWS V14.01,2013-04-09 14:28:00,
2013-04-09 09:29:00,70.5,19.1,25.10,SSW,202,30.2,30.2,14,0.00,,---,0.00,VWS V14.01,2013-04-09 14:29:00,
2013-04-09 09:30:00,70.5,19.1,25.10,SSW,202,23.9,30.2,14,0.00,,---,0.00,VWS V14.01,2013-04-09 14:30:00,
2013-04-09 09:31:00,70.7,19.2,25.10,SSW,202,16.3,23.9,14,0.00,,---,0.00,VWS V14.01,2013-04-09 14:31:00,
2013-04-09 09:32:00,70.7,19.2,25.10,SSW,202,16.3,16.3,14,0.00,,---,0.00,VWS V14.01,2013-04-09 14:32:00,
2013-04-09 09:33:00,71.1,19.5,25.10,SSW,202,17.0,19.7,14,0.00,,---,0.00,VWS V14.01,2013-04-09 14:33:00,
2013-04-09 09:34:00,71.1,19.5,25.10,SW,225,14.8,17.0,14,0.00,,---,0.00,VWS V14.01,2013-04-09 14:34:00,
2013-04-09 09:35:00,71.1,19.5,25.10,SW,225,14.8,14.8,14,0.00,,---,0.00,VWS V14.01,2013-04-09 14:35:00,
2013-04-09 09:36:00,71.2,19.6,25.10,SSW,202,26.4,29.3,14,0.00,,---,0.00,VWS V14.01,2013-04-09 14:36:00,
2013-04-09 09:37:00,71.1,19.5,25.10,SW,225,23.7,23.7,14,0.00,,---,0.00,VWS V14.01,2013-04-09 14:37:00,
2013-04-09 09:38:00,70.9,19.4,25.10,South,180,22.6,24.4,14,0.00,,---,0.00,VWS V14.01,2013-04-09 14:38:00,
2013-04-09 09:39:00,71.1,19.5,25.10,SW,225,21.5,22.6,14,0.00,,---,0.00,VWS V14.01,2013-04-09 14:39:00,
2013-04-09 09:40:00,71.1,19.5,25.10,SW,225,15.4,15.4,14,0.00,,---,0.00,VWS V14.01,2013-04-09 14:40:00,
2013-04-09 09:41:00,71.4,19.8,25.10,SSW,202,17.7,22.2,14,0.00,,---,0.00,VWS V14.01,2013-04-09 14:41:00,
2013-04-09 09:42:00,71.4,19.8,25.10,SW,225,24.2,24.2,14,0.00,,---,0.00,VWS V14.01,2013-04-09 14:42:00,
2013-04-09 09:43:00,71.4,19.8,25.10,SSW,202,23.9,24.2,14,0.00,,---,0.00,VWS V14.01,2013-04-09 14:43:00,
2013-04-09 09:44:00,71.4,19.8,25.10,SW,225,23.5,23.9,14,0.00,,---,0.00,VWS V14.01,2013-04-09 14:44:00,
2013-04-09 09:45:00,71.4,19.8,25.10,SW,225,23.5,23.5,14,0.00,,---,0.00,VWS V14.01,2013-04-09 14:45:00,
2013-04-09 09:46:00,71.4,19.8,25.10,SW,225,23.5,23.5,14,0.00,,---,0.00,VWS V14.01,2013-04-09 14:46:00,
2013-04-09 09:47:00,71.4,19.8,25.10,South,180,30.9,30.9,14,0.00,,---,0.00,VWS V14.01,2013-04-09 14:47:00,
2013-04-09 09:48:00,71.1,19.5,25.10,SW,225,25.3,30.9,14,0.00,,---,0.00,VWS V14.01,2013-04-09 14:48:00,
2013-04-09 09:49:00,71.2,19.6,25.10,SSW,202,25.1,25.3,14,0.00,,---,0.00,VWS V14.01,2013-04-09 14:49:00,
2013-04-09 09:50:00,71.2,19.6,25.10,SSW,202,19.0,25.1,14,0.00,,---,0.00,VWS V14.01,2013-04-09 14:50:00,
2013-04-09 09:51:00,71.2,19.6,25.10,SSW,202,16.3,23.3,14,0.00,,---,0.00,VWS V14.01,2013-04-09 14:51:00,
2013-04-09 09:52:00,71.4,19.8,25.10,SSW,202,22.4,23.7,14,0.00,,---,0.00,VWS V14.01,2013-04-09 14:52:00,
2013-04-09 09:53:00,71.8,20.1,25.10,SSW,202,17.7,23.0,14,0.00,,---,0.00,VWS V14.01,2013-04-09 14:53:00,
2013-04-09 09:54:00,71.4,19.8,25.10,SSW,202,17.7,17.7,14,0.00,,---,0.00,VWS V14.01,2013-04-09 14:54:00,
2013-04-09 09:55:00,71.4,19.8,25.10,South,180,24.4,24.4,14,0.00,,---,0.00,VWS V14.01,2013-04-09 14:55:00,
2013-04-09 09:56:00,71.4,19.8,25.10,SSW,202,17.7,24.4,14,0.00,,---,0.00,VWS V14.01,2013-04-09 14:56:00,
2013-04-09 09:57:00,71.6,19.9,25.10,SSW,202,13.4,17.7,14,0.00,,---,0.00,VWS V14.01,2013-04-09 14:57:00,
2013-04-09 09:58:00,71.4,19.8,25.10,SSW,202,22.8,23.9,14,0.00,,---,0.00,VWS V14.01,2013-04-09 14:58:00,
2013-04-09 09:59:00,71.4,19.8,25.10,SW,225,30.4,30.4,14,0.00,,---,0.00,VWS V14.01,2013-04-09 14:59:00,
2013-04-09 10:00:00,71.6,19.9,25.10,SW,225,30.4,30.4,14,0.00,,---,0.00,VWS V14.01,2013-04-09 15:00:00,
2013-04-09 10:01:00,72.3,20.5,25.10,SSW,202,17.7,30.4,14,0.00,,---,0.00,VWS V14.01,2013-04-09 15:01:00,
2013-04-09 10:02:00,72.0,20.2,25.10,SW,225,17.9,23.7,14,0.00,,---,0.00,VWS V14.01,2013-04-09 15:02:00,
2013-04-09 10:03:00,72.0,20.2,25.10,SSW,202,19.5,27.3,14,0.00,,---,0.00,VWS V14.01,2013-04-09 15:03:00,
2013-04-09 10:04:00,72.3,20.5,25.10,South,180,12.8,19.5,14,0.00,,---,0.00,VWS V14.01,2013-04-09 15:04:00,
2013-04-09 10:05:00,72.3,20.5,25.10,SSW,202,17.5,23.0,14,0.00,,---,0.00,VWS V14.01,2013-04-09 15:05:00,
2013-04-09 10:06:00,72.1,20.4,25.10,SSW,202,25.1,25.1,14,0.00,,---,0.00,VWS V14.01,2013-04-09 15:06:00,
2013-04-09 10:07:00,72.0,20.2,25.10,SSW,202,22.6,25.1,14,0.00,,---,0.00,VWS V14.01,2013-04-09 15:07:00,
2013-04-09 10:08:00,72.3,20.5,25.10,South,180,17.9,22.6,14,0.00,,---,0.00,VWS V14.01,2013-04-09 15:08:00,
2013-04-09 10:09:00,72.5,20.6,25.10,SSW,202,25.7,25.7,14,0.00,,---,0.00,VWS V14.01,2013-04-09 15:09:00,
2013-04-09 10:10:00,72.1,20.4,25.10,SSW,202,17.7,25.7,14,0.00,,---,0.00,VWS V14.01,2013-04-09 15:10:00,
2013-04-09 10:11:00,72.1,20.4,25.10,SSW,202,19.5,21.9,14,0.00,,---,0.00,VWS V14.01,2013-04-09 15:11:00,
2013-04-09 10:12:00,72.3,20.5,25.10,SSW,202,22.6,23.3,14,0.00,,---,0.00,VWS V14.01,2013-04-09 15:12:00,
2013-04-09 10:13:00,72.5,20.6,25.10,SSE,158,18.8,22.6,14,0.00,,---,0.00,VWS V14.01,2013-04-09 15:13:00,
2013-04-09 10:14:00,72.3,20.5,25.10,SSW,202,17.2,22.6,14,0.00,,---,0.00,VWS V14.01,2013-04-09 15:14:00,
2013-04-09 10:15:00,72.5,20.6,25.10,SSW,202,15.7,19.7,14,0.00,,---,0.00,VWS V14.01,2013-04-09 15:15:00,
2013-04-09 10:16:00,72.1,20.4,25.10,SW,225,32.0,32.0,14,0.00,,---,0.00,VWS V14.01,2013-04-09 15:16:00,
2013-04-09 10:17:00,72.3,20.5,25.10,SSW,202,14.8,32.0,14,0.00,,---,0.00,VWS V14.01,2013-04-09 15:17:00,
2013-04-09 10:18:00,72.5,20.6,25.10,SW,225,24.2,24.2,14,0.00,,---,99.99,VWS V14.01,2013-04-09 15:18:00,
2013-04-09 10:19:00,72.7,20.8,25.10,SSW,202,16.6,24.2,14,0.00,,---,99.99,VWS V14.01,2013-04-09 15:19:00,
2013-04-09 10:20:00,72.9,20.9,25.10,SSW,202,27.1,27.1,14,0.00,,---,99.99,VWS V14.01,2013-04-09 15:20:00,
2013-04-09 10:21:00,72.9,20.9,25.10,SSW,202,33.1,33.1,14,0.00,,---,99.99,VWS V14.01,2013-04-09 15:21:00,
2013-04-09 10:22:00,72.7,20.8,25.10,SSW,202,33.1,33.1,14,0.00,,---,99.99,VWS V14.01,2013-04-09 15:22:00,
2013-04-09 10:23:00,72.5,20.6,25.10,SSW,202,26.0,26.0,14,0.00,,---,99.99,VWS V14.01,2013-04-09 15:23:00,
2013-04-09 10:24:00,72.9,20.9,25.10,SW,225,26.4,26.4,14,0.00,,---,99.99,VWS V14.01,2013-04-09 15:24:00,
2013-04-09 10:25:00,72.7,20.8,25.10,SW,225,26.6,26.6,14,0.00,,---,99.99,VWS V14.01,2013-04-09 15:25:00,
2013-04-09 10:26:00,72.9,20.9,25.10,SW,225,23.9,26.6,14,0.00,,---,99.99,VWS V14.01,2013-04-09 15:26:00,
2013-04-09 10:27:00,73.0,21.1,25.10,SW,225,23.9,23.9,14,0.00,,---,99.99,VWS V14.01,2013-04-09 15:27:00,
2013-04-09 10:29:00,73.4,19.6,25.10,SSW,202,15.2,23.9,13,0.00,,---,99.99,VWS V14.01,2013-04-09 15:29:00,
2013-04-09 10:30:00,73.0,21.1,25.10,South,180,22.6,22.6,14,0.00,,---,99.99,VWS V14.01,2013-04-09 15:30:00,
2013-04-09 10:31:00,72.9,20.9,25.10,South,180,22.6,22.6,14,0.00,,---,99.99,VWS V14.01,2013-04-09 15:31:00,
2013-04-09 10:32:00,72.7,20.8,25.10,South,180,22.6,22.6,14,0.00,,---,99.99,VWS V14.01,2013-04-09 15:32:00,
2013-04-09 10:33:00,72.9,20.9,25.10,South,180,22.6,22.6,14,0.00,,---,99.99,VWS V14.01,2013-04-09 15:33:00,
2013-04-09 10:34:00,73.2,21.2,25.10,SSW,202,22.4,22.6,14,0.00,,---,99.99,VWS V14.01,2013-04-09 15:34:00,
2013-04-09 10:35:00,73.2,21.2,25.10,South,180,17.9,23.3,14,0.00,,---,99.99,VWS V14.01,2013-04-09 15:35:00,
2013-04-09 10:36:00,73.2,21.2,25.10,SSW,202,16.8,20.6,14,0.00,,---,99.99,VWS V14.01,2013-04-09 15:36:00,
2013-04-09 10:37:00,73.9,20.0,25.10,SW,225,17.7,17.7,13,0.00,,---,99.99,VWS V14.01,2013-04-09 15:37:00,
2013-04-09 10:38:00,74.3,20.3,25.10,SSW,202,17.5,17.7,13,0.00,,---,99.99,VWS V14.01,2013-04-09 15:38:00,
2013-04-09 10:39:00,74.3,20.3,25.10,WSW,248,10.7,17.5,13,0.00,,---,99.99,VWS V14.01,2013-04-09 15:39:00,
2013-04-09 10:40:00,74.3,20.3,25.10,WSW,248,10.7,10.7,13,0.00,,---,99.99,VWS V14.01,2013-04-09 15:40:00,
2013-04-09 10:41:00,73.9,20.0,25.10,WSW,248,10.7,10.7,13,0.00,,---,99.99,VWS V14.01,2013-04-09 15:41:00,
2013-04-09 10:42:00,73.9,20.0,25.10,WSW,248,10.7,10.7,13,0.00,,---,99.99,VWS V14.01,2013-04-09 15:42:00,
2013-04-09 10:43:00,73.4,19.6,25.10,South,180,19.5,19.5,13,0.00,,---,99.99,VWS V14.01,2013-04-09 15:43:00,
2013-04-09 10:44:00,73.4,19.6,25.10,SSW,202,23.7,28.0,13,0.00,,---,99.99,VWS V14.01,2013-04-09 15:44:00,
2013-04-09 10:45:00,73.0,21.1,25.10,SSW,202,27.7,27.7,14,0.00,,---,99.99,VWS V14.01,2013-04-09 15:45:00,
2013-04-09 10:46:00,73.4,19.6,25.10,SSW,202,27.7,27.7,13,0.00,,---,99.99,VWS V14.01,2013-04-09 15:46:00,
2013-04-09 10:47:00,73.8,19.9,25.10,SW,225,12.8,27.7,13,0.00,,---,99.99,VWS V14.01,2013-04-09 15:47:00,
2013-04-09 10:48:00,73.8,19.9,25.10,SW,225,12.8,12.8,13,0.00,,---,99.99,VWS V14.01,2013-04-09 15:48:00,
2013-04-09 10:49:00,73.8,19.9,25.10,SW,225,12.8,12.8,13,0.00,,---,99.99,VWS V14.01,2013-04-09 15:49:00,
2013-04-09 10:50:00,73.9,20.0,25.10,SW,225,12.8,12.8,13,0.00,,---,99.99,VWS V14.01,2013-04-09 15:50:00,
2013-04-09 10:51:00,73.9,20.0,25.10,SW,225,12.8,12.8,13,0.00,,---,99.99,VWS V14.01,2013-04-09 15:51:00,
2013-04-09 10:52:00,73.9,20.0,25.10,SW,225,12.8,12.8,13,0.00,,---,99.99,VWS V14.01,2013-04-09 15:52:00,
2013-04-09 10:53:00,74.5,20.5,25.10,SW,225,12.8,12.8,13,0.00,,---,99.99,VWS V14.01,2013-04-09 15:53:00,
2013-04-09 10:54:00,74.7,20.6,25.10,South,180,13.0,13.0,13,0.00,,---,99.99,VWS V14.01,2013-04-09 15:54:00,
2013-04-09 10:55:00,74.7,20.6,25.10,SE,135,19.5,19.5,13,0.00,,---,99.99,VWS V14.01,2013-04-09 15:55:00,
2013-04-09 10:56:00,74.7,20.6,25.10,SSW,202,10.7,10.7,13,0.00,,---,99.99,VWS V14.01,2013-04-09 15:56:00,
2013-04-09 10:57:00,74.7,20.6,25.10,SSW,202,10.7,10.7,13,0.00,,---,99.99,VWS V14.01,2013-04-09 15:57:00,
2013-04-09 10:58:00,74.8,20.7,25.10,SSW,202,11.2,13.9,13,0.00,,---,99.99,VWS V14.01,2013-04-09 15:58:00,
2013-04-09 10:59:00,75.0,20.9,25.10,SSE,158,12.5,23.3,13,0.00,,---,99.99,VWS V14.01,2013-04-09 15:59:00,
2013-04-09 11:00:00,75.4,21.2,25.10,SE,135,15.2,15.2,13,0.00,,---,99.99,VWS V14.01,2013-04-09 16:00:00,
2013-04-09 11:01:00,75.0,20.9,25.10,South,180,17.9,17.9,13,0.00,,---,99.99,VWS V14.01,2013-04-09 16:01:00,
2013-04-09 11:02:00,74.7,20.6,25.10,South,180,17.9,17.9,13,0.00,,---,99.99,VWS V14.01,2013-04-09 16:02:00,
2013-04-09 11:03:00,74.7,20.6,25.10,South,180,17.9,17.9,13,0.00,,---,99.99,VWS V14.01,2013-04-09 16:03:00,
2013-04-09 11:04:00,74.7,20.6,25.10,South,180,17.9,17.9,13,0.00,,---,99.99,VWS V14.01,2013-04-09 16:04:00,
2013-04-09 11:05:00,75.4,21.2,25.10,South,180,13.0,13.0,13,0.00,,---,99.99,VWS V14.01,2013-04-09 16:05:00,
2013-04-09 11:06:00,75.6,21.3,25.10,South,180,16.1,20.8,13,0.00,,---,99.99,VWS V14.01,2013-04-09 16:06:00,
2013-04-09 11:07:00,75.6,21.3,25.10,SW,225,32.9,32.9,13,0.00,,---,99.99,VWS V14.01,2013-04-09 16:07:00,
2013-04-09 11:08:00,74.7,20.6,25.10,SW,225,32.7,35.1,13,0.00,,---,99.99,VWS V14.01,2013-04-09 16:08:00,
2013-04-09 11:09:00,74.7,20.6,25.10,South,180,17.2,33.3,13,0.00,,---,99.99,VWS V14.01,2013-04-09 16:09:00,
2013-04-09 11:10:00,74.5,20.5,25.10,SW,225,23.0,23.3,13,0.00,,---,99.99,VWS V14.01,2013-04-09 16:10:00,
2013-04-09 11:11:00,74.8,20.7,25.10,SW,225,22.4,23.0,13,0.00,,---,99.99,VWS V14.01,2013-04-09 16:11:00,
2013-04-09 11:12:00,75.0,20.9,25.10,South,180,15.7,23.7,13,0.00,,---,99.99,VWS V14.01,2013-04-09 16:12:00,
2013-04-09 11:13:00,74.8,20.7,25.10,SSW,202,17.2,22.4,13,0.00,,---,99.99,VWS V14.01,2013-04-09 16:13:00,
2013-04-09 11:15:00,75.2,21.0,25.10,SSW,202,18.1,18.1,13,0.00,,---,99.99,VWS V14.01,2013-04-09 16:15:00,
2013-04-09 11:16:00,75.2,21.0,25.10,SSW,202,15.4,26.0,13,0.00,,---,99.99,VWS V14.01,2013-04-09 16:16:00,
2013-04-09 11:17:00,75.7,21.5,25.10,SSW,202,12.3,15.7,13,99.99,,---,99.99,VWS V14.01,2013-04-09 16:17:00,
2013-04-09 11:18:00,76.1,21.7,25.10,SSW,202,12.5,15.2,13,99.99,,---,99.99,VWS V14.01,2013-04-09 16:18:00,
2013-04-09 11:19:00,76.5,22.0,25.10,SE,135,10.7,10.7,13,0.00,,---,99.99,VWS V14.01,2013-04-09 16:19:00,
2013-04-09 11:20:00,76.5,22.0,25.10,SW,225,15.4,19.5,13,0.00,,---,99.99,VWS V14.01,2013-04-09 16:20:00,
2013-04-09 11:21:00,76.3,21.9,25.10,SSW,202,15.4,27.7,13,0.00,,---,99.99,VWS V14.01,2013-04-09 16:21:00,
2013-04-09 11:22:00,76.3,21.9,25.10,SSW,202,15.2,15.4,13,0.00,,---,99.99,VWS V14.01,2013-04-09 16:22:00,
2013-04-09 11:23:00,76.6,22.1,25.10,SSW,202,26.0,26.0,13,0.00,,---,99.99,VWS V14.01,2013-04-09 16:23:00,
2013-04-09 11:24:00,76.6,22.1,25.10,South,180,13.6,26.0,13,0.00,,---,99.99,VWS V14.01,2013-04-09 16:24:00,
2013-04-09 11:25:00,76.5,22.0,25.10,SSW,202,17.7,23.7,13,0.00,,---,99.99,VWS V14.01,2013-04-09 16:25:00,
2013-04-09 11:26:00,76.1,21.7,25.10,SSW,202,21.9,21.9,13,0.00,,---,99.99,VWS V14.01,2013-04-09 16:26:00,
2013-04-09 11:27:00,76.1,21.7,25.10,SSW,202,16.8,21.9,13,0.00,,---,99.99,VWS V14.01,2013-04-09 16:27:00,
2013-04-09 11:28:00,76.1,21.7,25.10,SSW,202,20.1,20.1,13,0.00,,---,99.99,VWS V14.01,2013-04-09 16:28:00,
2013-04-09 11:29:00,75.7,21.5,25.10,SSW,202,23.3,26.6,13,0.00,,---,99.99,VWS V14.01,2013-04-09 16:29:00,
2013-04-09 11:30:00,75.6,21.3,25.10,SW,225,17.9,25.7,13,0.00,,---,99.99,VWS V14.01,2013-04-09 16:30:00,
2013-04-09 11:31:00,75.9,21.6,25.10,SSE,158,17.9,17.9,13,0.00,,---,99.99,VWS V14.01,2013-04-09 16:31:00,
2013-04-09 11:32:00,75.9,21.6,25.10,SSW,202,17.5,23.9,13,0.00,,---,99.99,VWS V14.01,2013-04-09 16:32:00,
2013-04-09 11:33:00,75.9,21.6,25.10,SSW,202,17.5,17.5,13,0.00,,---,99.99,VWS V14.01,2013-04-09 16:33:00,
2013-04-09 11:34:00,75.7,21.5,25.10,SW,225,19.7,22.2,13,0.00,,---,99.99,VWS V14.01,2013-04-09 16:34:00,
2013-04-09 11:35:00,75.9,21.6,25.10,SW,225,25.5,26.0,13,0.00,,---,99.99,VWS V14.01,2013-04-09 16:35:00,
2013-04-09 11:36:00,75.6,21.3,25.10,SW,225,23.9,26.2,13,0.00,,---,99.99,VWS V14.01,2013-04-09 16:36:00,
2013-04-09 11:37:00,75.6,21.3,25.10,SW,225,23.9,23.9,13,0.00,,---,99.99,VWS V14.01,2013-04-09 16:37:00,
2013-04-09 11:38:00,75.9,21.6,25.10,SSW,202,20.8,20.8,13,0.00,,---,99.99,VWS V14.01,2013-04-09 16:38:00,
2013-04-09 11:39:00,75.7,21.5,25.10,SW,225,22.6,28.0,13,0.00,,---,99.99,VWS V14.01,2013-04-09 16:39:00,
2013-04-09 11:40:00,75.4,21.2,25.10,SW,225,28.4,28.4,13,0.00,,---,99.99,VWS V14.01,2013-04-09 16:40:00,
2013-04-09 11:42:00,75.2,21.0,25.10,SW,225,28.0,35.4,13,0.00,,---,99.99,VWS V14.01,2013-04-09 16:42:00,
2013-04-09 11:43:00,75.2,21.0,25.10,SW,225,24.2,24.2,13,0.00,,---,99.99,VWS V14.01,2013-04-09 16:43:00,
2013-04-09 11:44:00,74.8,20.7,25.10,SW,225,20.1,24.2,13,0.00,,---,99.99,VWS V14.01,2013-04-09 16:44:00,
2013-04-09 11:45:00,75.6,21.3,25.10,SW,225,13.2,20.1,13,0.00,,---,99.99,VWS V14.01,2013-04-09 16:45:00,
2013-04-09 11:46:00,75.9,21.6,25.10,SW,225,29.5,29.5,13,0.00,,---,99.99,VWS V14.01,2013-04-09 16:46:00,
2013-04-09 11:47:00,75.7,21.5,25.10,SSW,202,19.9,19.9,13,0.00,,---,99.99,VWS V14.01,2013-04-09 16:47:00,
2013-04-09 11:48:00,75.4,21.2,25.10,SSW,202,25.1,29.3,13,0.00,,---,99.99,VWS V14.01,2013-04-09 16:48:00,
2013-04-09 11:49:00,75.4,21.2,25.10,SW,225,25.5,29.8,13,0.00,,---,99.99,VWS V14.01,2013-04-09 16:49:00,
2013-04-09 11:50:00,75.4,21.2,25.10,SW,225,23.7,25.5,13,0.00,,---,99.99,VWS V14.01,2013-04-09 16:50:00,
2013-04-09 11:51:00,76.1,21.7,25.10,SW,225,26.4,36.5,13,0.00,,---,99.99,VWS V14.01,2013-04-09 16:51:00,
2013-04-09 11:52:00,75.9,21.6,25.10,SW,225,28.6,32.9,13,0.00,,---,99.99,VWS V14.01,2013-04-09 16:52:00,
2013-04-09 11:53:00,75.7,21.5,25.10,SW,225,23.9,28.6,13,0.00,,---,99.99,VWS V14.01,2013-04-09 16:53:00,
2013-04-09 11:54:00,75.7,21.5,25.07,WSW,248,22.6,23.9,13,0.00,,---,99.99,VWS V14.01,2013-04-09 16:54:00,
2013-04-09 11:55:00,76.1,21.7,25.07,SW,225,27.7,32.7,13,0.00,,---,99.99,VWS V14.01,2013-04-09 16:55:00,
2013-04-09 11:56:00,75.9,21.6,25.07,SW,225,22.6,28.4,13,0.00,,---,99.99,VWS V14.01,2013-04-09 16:56:00,
2013-04-09 11:57:00,75.9,21.6,25.07,SSW,202,23.0,25.1,13,0.00,,---,99.99,VWS V14.01,2013-04-09 16:57:00,
2013-04-09 11:58:00,75.9,21.6,25.07,SSW,202,17.5,23.0,13,0.00,,---,99.99,VWS V14.01,2013-04-09 16:58:00,
2013-04-09 11:59:00,76.5,22.0,25.07,SSW,202,23.5,24.4,13,0.00,,---,99.99,VWS V14.01,2013-04-09 16:59:00,
2013-04-09 12:00:00,75.7,21.5,25.07,SW,225,26.2,26.2,13,0.00,,---,99.99,VWS V14.01,2013-04-09 17:00:00,
2013-04-09 12:01:00,75.7,21.5,25.07,SSW,202,28.6,28.6,13,0.00,,---,99.99,VWS V14.01,2013-04-09 17:01:00,
2013-04-09 12:02:00,75.7,21.5,25.07,SSW,202,15.2,28.6,13,0.00,,---,99.99,VWS V14.01,2013-04-09 17:02:00,
2013-04-09 12:03:00,75.7,21.5,25.07,SW,225,21.3,23.5,13,0.00,,---,99.99,VWS V14.01,2013-04-09 17:03:00,
2013-04-09 12:04:00,75.7,21.5,25.07,SW,225,21.3,21.3,13,0.00,,---,99.99,VWS V14.01,2013-04-09 17:04:00,
2013-04-09 12:05:00,76.1,21.7,25.07,SW,225,14.5,22.4,13,0.00,,---,99.99,VWS V14.01,2013-04-09 17:05:00,
2013-04-09 12:06:00,76.1,21.7,25.07,SSW,202,22.2,23.7,13,0.00,,---,99.99,VWS V14.01,2013-04-09 17:06:00,
2013-04-09 12:07:00,76.6,22.1,25.07,SW,225,35.6,35.6,13,0.00,,---,99.99,VWS V14.01,2013-04-09 17:07:00,
2013-04-09 12:08:00,76.5,22.0,25.07,SW,225,27.7,35.6,13,0.00,,---,99.99,VWS V14.01,2013-04-09 17:08:00,
2013-04-09 12:10:00,76.1,21.7,25.07,SSW,202,19.7,33.3,13,0.00,,---,99.99,VWS V14.01,2013-04-09 17:10:00,
2013-04-09 12:11:00,76.5,22.0,25.07,SSW,202,16.3,19.9,13,0.00,,---,99.99,VWS V14.01,2013-04-09 17:11:00,
2013-04-09 12:12:00,76.8,22.3,25.07,SSW,202,22.2,30.9,13,0.00,,---,99.99,VWS V14.01,2013-04-09 17:12:00,
2013-04-09 12:13:00,76.8,22.3,25.07,South,180,13.2,23.3,13,0.00,,---,99.99,VWS V14.01,2013-04-09 17:13:00,
2013-04-09 12:14:00,76.6,22.1,25.07,SW,225,32.0,32.0,13,0.00,,---,99.99,VWS V14.01,2013-04-09 17:14:00,
2013-04-09 12:15:00,76.6,22.1,25.07,SSW,202,11.2,32.0,13,0.00,,---,99.99,VWS V14.01,2013-04-09 17:15:00,
2013-04-09 12:16:00,76.6,22.1,25.07,SSW,202,12.5,12.5,13,0.00,,---,99.99,VWS V14.01,2013-04-09 17:16:00,
2013-04-09 12:17:00,77.4,22.7,25.07,SSW,202,29.3,29.3,13,0.00,,---,99.99,VWS V14.01,2013-04-09 17:17:00,
2013-04-09 12:18:00,76.8,22.3,25.07,SSW,202,22.6,29.3,13,0.00,,---,99.99,VWS V14.01,2013-04-09 17:18:00,
2013-04-09 12:19:00,76.8,22.3,25.07,SSW,202,20.1,22.6,13,0.00,,---,99.99,VWS V14.01,2013-04-09 17:19:00,
2013-04-09 12:20:00,76.6,22.1,25.07,SW,225,10.7,26.2,13,0.00,,---,99.99,VWS V14.01,2013-04-09 17:20:00,
2013-04-09 12:21:00,76.6,22.1,25.07,SW,225,10.7,10.7,13,0.00,,---,99.99,VWS V14.01,2013-04-09 17:21:00,
2013-04-09 12:22:00,76.6,22.1,25.07,SW,225,10.7,10.7,13,0.00,,---,99.99,VWS V14.01,2013-04-09 17:22:00,
2013-04-09 12:23:00,76.6,22.1,25.07,SSW,202,24.6,26.6,13,0.00,,---,99.99,VWS V14.01,2013-04-09 17:23:00,
2013-04-09 12:24:00,77.2,22.6,25.07,SSW,202,18.6,24.6,13,0.00,,---,99.99,VWS V14.01,2013-04-09 17:24:00,
2013-04-09 12:25:00,76.6,22.1,25.07,SW,225,24.2,24.2,13,0.00,,---,99.99,VWS V14.01,2013-04-09 17:25:00,
2013-04-09 12:26:00,76.6,22.1,25.07,SW,225,30.7,30.7,13,0.00,,---,99.99,VWS V14.01,2013-04-09 17:26:00,
2013-04-09 12:27:00,76.6,22.1,25.07,SW,225,30.7,30.7,13,0.00,,---,99.99,VWS V14.01,2013-04-09 17:27:00,
2013-04-09 12:28:00,76.6,22.1,25.07,SW,225,24.2,30.7,13,0.00,,---,99.99,VWS V14.01,2013-04-09 17:28:00,
2013-04-09 12:29:00,76.6,22.1,25.07,South,180,22.2,30.7,13,0.00,,---,99.99,VWS V14.01,2013-04-09 17:29:00,
2013-04-09 12:30:00,77.5,22.9,25.07,SW,225,31.1,31.1,13,0.00,,---,99.99,VWS V14.01,2013-04-09 17:30:00,
2013-04-09 12:31:00,77.7,23.0,25.07,South,180,17.7,31.1,13,0.00,,---,99.99,VWS V14.01,2013-04-09 17:31:00,
2013-04-09 12:32:00,78.3,23.4,25.07,South,180,11.9,19.2,13,0.00,,---,99.99,VWS V14.01,2013-04-09 17:32:00,
2013-04-09 12:33:00,78.3,23.4,25.07,South,180,15.9,17.7,13,0.00,,---,99.99,VWS V14.01,2013-04-09 17:33:00,
2013-04-09 12:34:00,78.3,23.4,25.07,SSW,202,15.2,15.9,13,0.00,,---,99.99,VWS V14.01,2013-04-09 17:34:00,
2013-04-09 12:35:00,78.3,23.4,25.07,South,180,17.7,26.0,13,0.00,,---,99.99,VWS V14.01,2013-04-09 17:35:00,
2013-04-09 12:36:00,77.5,22.9,25.07,South,180,17.9,17.9,13,0.00,,---,99.99,VWS V14.01,2013-04-09 17:36:00,
2013-04-09 12:37:00,78.1,23.3,25.07,SSE,158,10.7,17.9,13,0.00,,---,99.99,VWS V14.01,2013-04-09 17:37:00,
2013-04-09 12:38:00,78.4,23.6,25.07,SW,225,21.5,21.5,13,0.00,,---,99.99,VWS V14.01,2013-04-09 17:38:00,
2013-04-09 12:39:00,78.4,23.6,25.07,SSW,202,24.4,24.4,13,0.00,,---,99.99,VWS V14.01,2013-04-09 17:39:00,
2013-04-09 12:40:00,78.4,23.6,25.07,SSW,202,26.2,26.2,13,0.00,,---,99.99,VWS V14.01,2013-04-09 17:40:00,
2013-04-09 12:41:00,77.7,23.0,25.07,SSW,202,19.7,27.1,13,0.00,,---,99.99,VWS V14.01,2013-04-09 17:41:00,
2013-04-09 12:42:00,77.2,22.6,25.07,SSW,202,31.1,31.1,13,0.00,,---,99.99,VWS V14.01,2013-04-09 17:42:00,
2013-04-09 12:43:00,77.2,22.6,25.07,SSW,202,17.9,25.7,13,0.00,,---,99.99,VWS V14.01,2013-04-09 17:43:00,
2013-04-09 12:44:00,77.2,22.6,25.07,SSW,202,23.3,27.7,13,0.00,,---,99.99,VWS V14.01,2013-04-09 17:44:00,
2013-04-09 12:45:00,77.2,22.6,25.07,SSW,202,16.3,23.3,13,0.00,,---,99.99,VWS V14.01,2013-04-09 17:45:00,
2013-04-09 12:46:00,77.7,23.0,25.07,SW,225,26.9,27.5,13,0.00,,---,99.99,VWS V14.01,2013-04-09 17:46:00,
2013-04-09 12:47:00,77.7,23.0,25.07,SSW,202,27.3,27.3,13,0.00,,---,99.99,VWS V14.01,2013-04-09 17:47:00,
2013-04-09 12:48:00,78.3,23.4,25.07,SSW,202,17.9,27.3,13,0.00,,---,99.99,VWS V14.01,2013-04-09 17:48:00,
2013-04-09 12:49:00,77.7,23.0,25.07,South,180,15.4,33.1,13,0.00,,---,99.99,VWS V14.01,2013-04-09 17:49:00,
2013-04-09 12:50:00,77.5,22.9,25.07,SW,225,24.2,28.4,13,0.00,,---,99.99,VWS V14.01,2013-04-09 17:50:00,
2013-04-09 12:51:00,77.4,22.7,25.07,SSW,202,19.7,25.5,13,0.00,,---,99.99,VWS V14.01,2013-04-09 17:51:00,
2013-04-09 12:52:00,77.4,22.7,25.07,SSW,202,21.9,25.3,13,0.00,,---,99.99,VWS V14.01,2013-04-09 17:52:00,
2013-04-09 12:53:00,78.1,23.3,25.07,South,180,12.3,22.2,13,0.00,,---,99.99,VWS V14.01,2013-04-09 17:53:00,
2013-04-09 12:54:00,78.8,22.0,25.07,South,180,14.1,17.2,12,0.00,,---,99.99,VWS V14.01,2013-04-09 17:54:00,
2013-04-09 12:55:00,78.6,23.7,25.07,SSW,202,20.8,20.8,13,0.00,,---,99.99,VWS V14.01,2013-04-09 17:55:00,
2013-04-09 12:56:00,78.6,23.7,25.07,SSW,202,22.8,22.8,13,0.00,,---,99.99,VWS V14.01,2013-04-09 17:56:00,
2013-04-09 12:57:00,79.0,22.1,25.07,SSW,202,22.8,22.8,12,0.00,,---,99.99,VWS V14.01,2013-04-09 17:57:00,
2013-04-09 12:58:00,78.8,22.0,25.07,South,180,19.9,22.8,12,0.00,,---,99.99,VWS V14.01,2013-04-09 17:58:00,
2013-04-09 13:00:00,78.6,23.7,25.07,SSW,202,19.5,21.5,13,0.00,,---,99.99,VWS V14.01,2013-04-09 18:00:00,
2013-04-09 13:01:00,78.1,23.3,25.07,SW,225,30.2,30.2,13,0.00,,---,99.99,VWS V14.01,2013-04-09 18:01:00,
2013-04-09 13:02:00,77.9,23.1,25.07,SSW,202,25.7,30.2,13,0.00,,---,99.99,VWS V14.01,2013-04-09 18:02:00,
2013-04-09 13:03:00,77.7,23.0,25.07,SSW,202,21.9,25.7,13,0.00,,---,99.99,VWS V14.01,2013-04-09 18:03:00,
2013-04-09 13:04:00,78.1,23.3,25.07,SSW,202,15.4,15.4,13,0.00,,---,99.99,VWS V14.01,2013-04-09 18:04:00,
2013-04-09 13:05:00,78.4,23.6,25.07,SSW,202,23.0,23.0,13,0.00,,---,99.99,VWS V14.01,2013-04-09 18:05:00,
2013-04-09 13:06:00,78.1,23.3,25.07,West,270,22.8,30.4,13,0.00,,---,99.99,VWS V14.01,2013-04-09 18:06:00,
2013-04-09 13:07:00,78.6,23.7,25.07,SW,225,28.4,28.4,13,0.00,,---,99.99,VWS V14.01,2013-04-09 18:07:00,
2013-04-09 13:08:00,77.9,23.1,25.07,SW,225,25.7,30.2,13,0.00,,---,99.99,VWS V14.01,2013-04-09 18:08:00,
2013-04-09 13:09:00,78.4,23.6,25.07,SW,225,20.4,29.5,13,0.00,,---,99.99,VWS V14.01,2013-04-09 18:09:00,
2013-04-09 13:10:00,78.4,23.6,25.07,SSW,202,19.2,20.4,13,0.00,,---,99.99,VWS V14.01,2013-04-09 18:10:00,
2013-04-09 13:11:00,79.0,22.1,25.07,SSW,202,17.7,25.3,12,0.00,,---,99.99,VWS V14.01,2013-04-09 18:11:00,
2013-04-09 13:12:00,79.2,22.2,25.07,SSW,202,25.1,27.1,12,0.00,,---,99.99,VWS V14.01,2013-04-09 18:12:00,
2013-04-09 13:13:00,79.0,22.1,25.07,SW,225,23.5,25.1,12,0.00,,---,99.99,VWS V14.01,2013-04-09 18:13:00,
2013-04-09 13:14:00,79.0,22.1,25.07,SW,225,24.2,24.2,12,0.00,,---,99.99,VWS V14.01,2013-04-09 18:14:00,
2013-04-09 13:15:00,78.3,23.4,25.07,South,180,26.4,29.8,13,0.00,,---,99.99,VWS V14.01,2013-04-09 18:15:00,
2013-04-09 13:16:00,78.3,23.4,25.07,South,180,26.4,29.8,13,0.00,,---,99.99,VWS V14.01,2013-04-09 18:16:00,
2013-04-09 13:17:00,78.6,23.7,25.07,SSW,202,10.7,26.4,13,0.00,,---,99.99,VWS V14.01,2013-04-09 18:17:00,
2013-04-09 13:18:00,78.6,23.7,25.07,SW,225,14.3,15.4,13,0.00,,---,99.99,VWS V14.01,2013-04-09 18:18:00,
2013-04-09 13:19:00,78.6,23.7,25.07,South,180,10.7,14.3,13,0.00,,---,99.99,VWS V14.01,2013-04-09 18:19:00,
2013-04-09 13:20:00,78.6,23.7,25.07,South,180,10.7,10.7,13,0.00,,---,99.99,VWS V14.01,2013-04-09 18:20:00,
2013-04-09 13:21:00,79.3,22.4,25.07,SSW,202,17.7,25.5,12,0.00,,---,99.99,VWS V14.01,2013-04-09 18:21:00,
2013-04-09 13:22:00,79.2,22.2,25.07,SSW,202,22.6,22.6,12,0.00,,---,99.99,VWS V14.01,2013-04-09 18:22:00,
2013-04-09 13:23:00,79.2,22.2,25.07,SSE,158,11.4,22.6,12,0.00,,---,99.99,VWS V14.01,2013-04-09 18:23:00,
2013-04-09 13:24:00,79.5,22.5,25.07,SSW,202,17.9,17.9,12,0.00,,---,99.99,VWS V14.01,2013-04-09 18:24:00,
2013-04-09 13:25:00,79.5,22.5,25.07,SSE,158,16.8,16.8,12,0.00,,---,99.99,VWS V14.01,2013-04-09 18:25:00,
2013-04-09 13:26:00,79.3,22.4,25.07,South,180,15.4,22.2,12,0.00,,---,99.99,VWS V14.01,2013-04-09 18:26:00,
2013-04-09 13:27:00,79.7,22.6,25.07,SSE,158,20.1,25.7,12,0.00,,---,99.99,VWS V14.01,2013-04-09 18:27:00,
2013-04-09 13:28:00,79.9,22.8,25.07,South,180,16.6,20.1,12,0.00,,---,99.99,VWS V14.01,2013-04-09 18:28:00,
2013-04-09 13:29:00,79.9,22.8,25.07,South,180,11.0,25.7,12,0.00,,---,99.99,VWS V14.01,2013-04-09 18:29:00,
2013-04-09 13:30:00,80.2,23.1,25.07,SW,225,19.0,19.0,12,0.00,,---,99.99,VWS V14.01,2013-04-09 18:30:00,
2013-04-09 13:31:00,80.2,23.1,25.07,SSW,202,17.9,19.0,12,0.00,,---,99.99,VWS V14.01,2013-04-09 18:31:00,
2013-04-09 13:32:00,79.7,22.6,25.07,SSW,202,27.7,27.7,12,0.00,,---,99.99,VWS V14.01,2013-04-09 18:32:00,
2013-04-09 13:33:00,79.9,22.8,25.07,SSW,202,23.0,27.7,12,0.00,,---,99.99,VWS V14.01,2013-04-09 18:33:00,
2013-04-09 13:34:00,80.6,23.4,25.07,South,180,14.5,23.0,12,0.00,,---,99.99,VWS V14.01,2013-04-09 18:34:00,
2013-04-09 13:35:00,80.6,23.4,25.07,South,180,15.4,15.4,12,0.00,,---,99.99,VWS V14.01,2013-04-09 18:35:00,
2013-04-09 13:37:00,79.9,22.8,25.07,SSW,202,20.4,22.4,12,0.00,,---,99.99,VWS V14.01,2013-04-09 18:37:00,
2013-04-09 13:38:00,80.4,23.2,25.07,SSW,202,23.5,30.2,12,0.00,,---,99.99,VWS V14.01,2013-04-09 18:38:00,
2013-04-09 13:39:00,79.9,22.8,25.07,South,180,19.5,23.5,12,0.00,,---,99.99,VWS V14.01,2013-04-09 18:39:00,
2013-04-09 13:40:00,80.2,23.1,25.07,SSW,202,27.5,27.5,12,0.00,,---,99.99,VWS V14.01,2013-04-09 18:40:00,
2013-04-09 13:41:00,79.7,22.6,25.07,SW,225,27.5,27.5,12,0.00,,---,99.99,VWS V14.01,2013-04-09 18:41:00,
2013-04-09 13:42:00,79.3,22.4,25.07,South,180,17.2,27.7,12,0.00,,---,99.99,VWS V14.01,2013-04-09 18:42:00,
2013-04-09 13:43:00,79.9,22.8,25.07,South,180,14.1,18.1,12,0.00,,---,99.99,VWS V14.01,2013-04-09 18:43:00,
2013-04-09 13:44:00,80.4,23.2,25.07,SSW,202,15.7,15.7,12,0.00,,---,99.99,VWS V14.01,2013-04-09 18:44:00,
2013-04-09 13:45:00,80.4,23.2,25.07,SW,225,21.0,21.0,12,0.00,,---,99.99,VWS V14.01,2013-04-09 18:45:00,
2013-04-09 13:46:00,80.8,23.5,25.07,South,180,15.9,21.0,12,0.00,,---,99.99,VWS V14.01,2013-04-09 18:46:00,
2013-04-09 13:47:00,81.3,23.9,25.07,SSW,202,12.8,15.9,12,0.00,,---,99.99,VWS V14.01,2013-04-09 18:47:00,
2013-04-09 13:48:00,81.0,23.6,25.07,SSW,202,19.7,24.4,12,0.00,,---,99.99,VWS V14.01,2013-04-09 18:48:00,
2013-04-09 13:49:00,81.1,23.8,25.07,South,180,25.7,25.7,12,0.00,,---,99.99,VWS V14.01,2013-04-09 18:49:00,
2013-04-09 13:50:00,80.4,23.2,25.07,South,180,22.2,25.7,12,0.00,,---,99.99,VWS V14.01,2013-04-09 18:50:00,
2013-04-09 13:51:00,80.1,22.9,25.07,SSW,202,23.5,25.7,12,0.00,,---,99.99,VWS V14.01,2013-04-09 18:51:00,
2013-04-09 13:52:00,79.5,22.5,25.07,SSW,202,17.5,23.5,12,0.00,,---,99.99,VWS V14.01,2013-04-09 18:52:00,
2013-04-09 13:53:00,79.3,22.4,25.07,SW,225,17.7,24.2,12,0.00,,---,99.99,VWS V14.01,2013-04-09 18:53:00,
2013-04-09 13:54:00,79.7,22.6,25.07,SSW,202,17.7,22.8,12,0.00,,---,99.99,VWS V14.01,2013-04-09 18:54:00,
2013-04-09 13:55:00,79.7,22.6,25.07,SSW,202,15.4,17.7,12,0.00,,---,99.99,VWS V14.01,2013-04-09 18:55:00,
2013-04-09 13:56:00,80.4,23.2,25.07,SSW,202,14.8,16.8,12,0.00,,---,99.99,VWS V14.01,2013-04-09 18:56:00,
2013-04-09 13:57:00,80.6,23.4,25.07,SW,225,26.0,26.0,12,0.00,,---,99.99,VWS V14.01,2013-04-09 18:57:00,
2013-04-09 13:58:00,80.2,23.1,25.07,SSW,202,32.4,32.4,12,0.00,,---,99.99,VWS V14.01,2013-04-09 18:58:00,
2013-04-09 13:59:00,80.2,23.1,25.07,SSW,202,25.7,32.4,12,0.00,,---,99.99,VWS V14.01,2013-04-09 18:59:00,
2013-04-09 14:00:00,80.1,22.9,25.07,SSW,202,16.8,16.8,12,0.00,,---,99.99,VWS V14.01,2013-04-09 19:00:00,
2013-04-09 14:01:00,80.1,22.9,25.07,SSW,202,19.9,22.2,12,0.00,,---,99.99,VWS V14.01,2013-04-09 19:01:00,
2013-04-09 14:02:00,80.2,23.1,25.07,SSW,202,25.1,25.1,12,0.00,,---,99.99,VWS V14.01,2013-04-09 19:02:00,
2013-04-09 14:03:00,80.2,23.1,25.07,SSE,158,21.3,25.1,12,0.00,,---,99.99,VWS V14.01,2013-04-09 19:03:00,
2013-04-09 14:04:00,80.2,23.1,25.07,South,180,19.7,24.2,12,0.00,,---,99.99,VWS V14.01,2013-04-09 19:04:00,
2013-04-09 14:05:00,80.8,23.5,25.07,SSW,202,12.8,19.7,12,0.00,,---,99.99,VWS V14.01,2013-04-09 19:05:00,
2013-04-09 14:06:00,81.1,23.8,25.07,South,180,23.7,23.7,12,0.00,,---,99.99,VWS V14.01,2013-04-09 19:06:00,
2013-04-09 14:07:00,81.1,23.8,25.07,SW,225,12.5,23.7,12,0.00,,---,99.99,VWS V14.01,2013-04-09 19:07:00,
2013-04-09 14:08:00,81.1,23.8,25.07,SW,225,17.5,19.9,12,0.00,,---,99.99,VWS V14.01,2013-04-09 19:08:00,
2013-04-09 14:09:00,80.8,23.5,25.04,SSW,202,25.7,25.7,12,0.00,,---,99.99,VWS V14.01,2013-04-09 19:09:00,
2013-04-09 14:10:00,80.6,23.4,25.04,South,180,17.2,25.7,12,0.00,,---,99.99,VWS V14.01,2013-04-09 19:10:00,
2013-04-09 14:11:00,80.8,23.5,25.04,South,180,17.2,17.5,12,0.00,,---,99.99,VWS V14.01,2013-04-09 19:11:00,
2013-04-09 14:13:00,80.8,23.5,25.04,SSW,202,19.9,21.5,12,0.00,,---,99.99,VWS V14.01,2013-04-09 19:13:00,
2013-04-09 14:14:00,80.4,23.2,25.04,SSW,202,15.4,24.4,12,0.00,,---,99.99,VWS V14.01,2013-04-09 19:14:00,
2013-04-09 14:15:00,80.6,23.4,25.04,SW,225,11.0,15.4,12,0.00,,---,99.99,VWS V14.01,2013-04-09 19:15:00,
2013-04-09 14:16:00,80.4,23.2,25.04,South,180,19.9,29.5,12,0.00,,---,99.99,VWS V14.01,2013-04-09 19:16:00,
2013-04-09 14:17:00,80.2,23.1,25.04,SSW,202,25.5,25.5,12,0.00,,---,99.99,VWS V14.01,2013-04-09 19:17:00,
2013-04-09 14:18:00,80.6,23.4,25.04,SSW,202,18.1,25.5,12,0.00,,---,99.99,VWS V14.01,2013-04-09 19:18:00,
2013-04-09 14:19:00,80.8,23.5,25.04,South,180,15.9,21.5,12,0.00,,---,99.99,VWS V14.01,2013-04-09 19:19:00,
2013-04-09 14:20:00,80.8,23.5,25.04,SSW,202,13.2,19.5,12,0.00,,---,99.99,VWS V14.01,2013-04-09 19:20:00,
2013-04-09 14:21:00,80.8,23.5,25.04,South,180,10.3,15.9,12,0.00,,---,99.99,VWS V14.01,2013-04-09 19:21:00,
2013-04-09 14:22:00,81.1,23.8,25.04,SSE,158,19.5,19.5,12,0.00,,---,99.99,VWS V14.01,2013-04-09 19:22:00,
2013-04-09 14:23:00,81.3,23.9,25.04,South,180,19.2,23.7,12,0.00,,---,99.99,VWS V14.01,2013-04-09 19:23:00,
2013-04-09 14:24:00,81.1,23.8,25.04,SSW,202,9.8,19.5,12,0.00,,---,99.99,VWS V14.01,2013-04-09 19:24:00,
2013-04-09 14:25:00,81.9,24.3,25.04,South,180,13.6,14.8,12,0.00,,---,99.99,VWS V14.01,2013-04-09 19:25:00,
2013-04-09 14:26:00,82.4,22.7,25.04,SSW,202,15.9,15.9,11,0.00,,---,99.99,VWS V14.01,2013-04-09 19:26:00,
2013-04-09 14:27:00,82.4,22.7,25.04,South,180,17.5,24.6,11,0.00,,---,99.99,VWS V14.01,2013-04-09 19:27:00,
2013-04-09 14:28:00,82.4,22.7,25.04,SSE,158,19.9,23.5,11,0.00,,---,99.99,VWS V14.01,2013-04-09 19:28:00,
2013-04-09 14:29:00,82.2,24.6,25.04,SSW,202,23.7,23.7,12,0.00,,---,99.99,VWS V14.01,2013-04-09 19:29:00,
2013-04-09 14:30:00,82.0,24.5,25.04,South,180,14.1,23.7,12,0.00,,---,99.99,VWS V14.01,2013-04-09 19:30:00,
2013-04-09 14:31:00,82.0,24.5,25.04,South,180,10.5,15.2,12,0.00,,---,99.99,VWS V14.01,2013-04-09 19:31:00,
2013-04-09 14:32:00,82.0,24.5,25.04,SSW,202,12.1,17.9,12,0.00,,---,99.99,VWS V14.01,2013-04-09 19:32:00,
2013-04-09 14:33:00,82.0,24.5,25.04,SSW,202,25.1,25.1,12,0.00,,---,99.99,VWS V14.01,2013-04-09 19:33:00,
2013-04-09 14:34:00,82.0,24.5,25.04,SW,225,20.4,25.1,12,0.00,,---,99.99,VWS V14.01,2013-04-09 19:34:00,
2013-04-09 14:35:00,82.0,24.5,25.04,SW,225,22.8,22.8,12,0.00,,---,99.99,VWS V14.01,2013-04-09 19:35:00,
2013-04-09 14:36:00,81.5,24.0,25.04,SSW,202,17.5,26.4,12,0.00,,---,99.99,VWS V14.01,2013-04-09 19:36:00,
2013-04-09 14:37:00,81.7,24.2,25.04,SSW,202,13.6,25.5,12,0.00,,---,99.99,VWS V14.01,2013-04-09 19:37:00,
2013-04-09 14:38:00,82.0,24.5,25.04,South,180,15.9,17.5,12,0.00,,---,99.99,VWS V14.01,2013-04-09 19:38:00,
2013-04-09 14:39:00,82.4,22.7,25.04,SSW,202,13.0,16.3,11,0.00,,---,99.99,VWS V14.01,2013-04-09 19:39:00,
2013-04-09 14:40:00,81.9,24.3,25.04,SSW,202,12.8,14.8,12,0.00,,---,99.99,VWS V14.01,2013-04-09 19:40:00,
2013-04-09 14:41:00,80.8,23.5,25.04,SW,225,19.5,26.4,12,0.00,,---,99.99,VWS V14.01,2013-04-09 19:41:00,
2013-04-09 14:42:00,81.5,24.0,25.04,SSW,202,18.1,26.4,12,0.00,,---,99.99,VWS V14.01,2013-04-09 19:42:00,
2013-04-09 14:43:00,81.3,23.9,25.04,SSW,202,22.8,25.1,12,0.00,,---,99.99,VWS V14.01,2013-04-09 19:43:00,
2013-04-09 14:44:00,81.5,24.0,25.04,SSW,202,15.2,23.7,12,0.00,,---,99.99,VWS V14.01,2013-04-09 19:44:00,
2013-04-09 14:45:00,81.0,23.6,25.04,SSE,158,19.2,28.9,12,0.00,,---,99.99,VWS V14.01,2013-04-09 19:45:00,
2013-04-09 14:46:00,81.1,23.8,25.04,South,180,18.6,28.9,12,0.00,,---,99.99,VWS V14.01,2013-04-09 19:46:00,
2013-04-09 14:47:00,81.1,23.8,25.04,SSW,202,24.4,24.4,12,0.00,,---,99.99,VWS V14.01,2013-04-09 19:47:00,
2013-04-09 14:48:00,81.3,23.9,25.04,SSE,158,22.4,24.4,12,0.00,,---,99.99,VWS V14.01,2013-04-09 19:48:00,
2013-04-09 14:49:00,81.3,23.9,25.04,South,180,18.1,22.4,12,0.00,,---,99.99,VWS V14.01,2013-04-09 19:49:00,
2013-04-09 14:50:00,82.0,24.5,25.04,South,180,19.2,21.0,12,0.00,,---,99.99,VWS V14.01,2013-04-09 19:50:00,
2013-04-09 14:51:00,81.9,24.3,25.04,SE,135,25.3,25.3,12,0.00,,---,99.99,VWS V14.01,2013-04-09 19:51:00,
2013-04-09 14:52:00,81.9,24.3,25.04,South,180,14.8,25.3,12,0.00,,---,99.99,VWS V14.01,2013-04-09 19:52:00,
2013-04-09 14:53:00,81.7,24.2,25.04,SSW,202,17.0,17.0,12,0.00,,---,99.99,VWS V14.01,2013-04-09 19:53:00,
2013-04-09 14:54:00,81.7,24.2,24.98,South,180,17.7,17.7,12,0.00,,---,99.99,VWS V14.01,2013-04-09 19:54:00,
2013-04-09 14:55:00,82.2,24.6,24.98,SSW,202,16.6,17.7,12,0.00,,---,99.99,VWS V14.01,2013-04-09 19:55:00,
2013-04-09 14:57:00,82.0,24.5,24.98,SSW,202,17.9,23.7,12,0.00,,---,99.99,VWS V14.01,2013-04-09 19:57:00,
2013-04-09 14:58:00,82.0,24.5,24.98,SSW,202,13.2,17.9,12,0.00,,---,99.99,VWS V14.01,2013-04-09 19:58:00,
2013-04-09 14:59:00,82.6,22.8,24.98,SSW,202,10.7,21.9,11,0.00,,---,99.99,VWS V14.01,2013-04-09 19:59:00,
2013-04-09 15:00:00,82.6,22.8,24.98,South,180,17.5,17.7,11,0.00,,---,99.99,VWS V14.01,2013-04-09 20:00:00,
2013-04-09 15:01:00,82.4,22.7,24.98,SSW,202,20.8,20.8,11,0.00,,---,99.99,VWS V14.01,2013-04-09 20:01:00,
2013-04-09 15:02:00,82.4,22.7,24.98,SSW,202,23.0,23.7,11,0.00,,---,99.99,VWS V14.01,2013-04-09 20:02:00,
2013-04-09 15:03:00,82.2,24.6,24.98,SSW,202,15.4,23.0,12,0.00,,---,99.99,VWS V14.01,2013-04-09 20:03:00,
2013-04-09 15:04:00,82.2,24.6,24.98,South,180,13.0,27.5,12,0.00,,---,99.99,VWS V14.01,2013-04-09 20:04:00,
2013-04-09 15:05:00,82.2,24.6,24.98,SW,225,22.2,22.2,12,0.00,,---,99.99,VWS V14.01,2013-04-09 20:05:00,
2013-04-09 15:06:00,82.8,23.0,24.98,SSW,202,23.0,23.9,11,0.00,,---,99.99,VWS V14.01,2013-04-09 20:06:00,
2013-04-09 15:07:00,82.4,22.7,24.98,SW,225,17.5,24.2,11,0.00,,---,99.99,VWS V14.01,2013-04-09 20:07:00,
2013-04-09 15:08:00,82.4,22.7,24.98,SSW,202,19.2,25.3,11,0.00,,---,99.99,VWS V14.01,2013-04-09 20:08:00,
2013-04-09 15:09:00,82.0,24.5,25.01,SSW,202,24.2,25.7,12,0.00,,---,99.99,VWS V14.01,2013-04-09 20:09:00,
2013-04-09 15:10:00,81.7,24.2,25.01,SW,225,25.1,28.0,12,0.00,,---,99.99,VWS V14.01,2013-04-09 20:10:00,
2013-04-09 15:11:00,81.9,24.3,25.01,SSW,202,28.0,30.7,12,0.00,,---,99.99,VWS V14.01,2013-04-09 20:11:00,
2013-04-09 15:12:00,82.2,24.6,25.01,WSW,248,22.6,28.0,12,0.00,,---,99.99,VWS V14.01,2013-04-09 20:12:00,
2013-04-09 15:13:00,81.9,24.3,25.01,SSW,202,23.9,28.9,12,0.00,,---,99.99,VWS V14.01,2013-04-09 20:13:00,
2013-04-09 15:14:00,82.0,24.5,25.01,SE,135,17.5,17.5,12,0.00,,---,99.99,VWS V14.01,2013-04-09 20:14:00,
2013-04-09 15:15:00,82.0,24.5,25.01,SE,135,17.5,17.5,12,0.00,,---,99.99,VWS V14.01,2013-04-09 20:15:00,
2013-04-09 15:16:00,82.8,23.0,25.01,SSE,158,17.0,28.0,11,0.00,,---,99.99,VWS V14.01,2013-04-09 20:16:00,
2013-04-09 15:17:00,82.8,23.0,25.01,SSW,202,18.8,20.1,11,0.00,,---,99.99,VWS V14.01,2013-04-09 20:17:00,
2013-04-09 15:18:00,82.8,23.0,25.01,SSW,202,14.3,18.8,11,0.00,,---,99.99,VWS V14.01,2013-04-09 20:18:00,
2013-04-09 15:19:00,82.8,23.0,25.01,South,180,12.1,14.5,11,0.00,,---,99.99,VWS V14.01,2013-04-09 20:19:00,
2013-04-09 15:20:00,82.9,23.1,25.01,South,180,10.3,22.4,11,0.00,,---,99.99,VWS V14.01,2013-04-09 20:20:00,
2013-04-09 15:21:00,83.1,23.2,25.01,South,180,17.5,17.9,11,0.00,,---,99.99,VWS V14.01,2013-04-09 20:21:00,
2013-04-09 15:22:00,82.9,23.1,25.01,SSE,158,13.0,19.7,11,0.00,,---,99.99,VWS V14.01,2013-04-09 20:22:00,
2013-04-09 15:23:00,82.9,23.1,25.01,SSW,202,17.7,21.5,11,0.00,,---,99.99,VWS V14.01,2013-04-09 20:23:00,
2013-04-09 15:24:00,83.1,23.2,24.98,SW,225,23.9,23.9,11,0.00,,---,99.99,VWS V14.01,2013-04-09 20:24:00,
2013-04-09 15:25:00,83.5,23.5,24.98,SSW,202,22.2,32.9,11,0.00,,---,99.99,VWS V14.01,2013-04-09 20:25:00,
2013-04-09 15:26:00,82.9,23.1,24.98,SSW,202,15.4,34.0,11,0.00,,---,99.99,VWS V14.01,2013-04-09 20:26:00,
2013-04-09 15:28:00,82.9,23.1,24.98,South,180,24.2,24.2,11,0.00,,---,99.99,VWS V14.01,2013-04-09 20:28:00,
2013-04-09 15:29:00,82.6,22.8,24.98,South,180,15.4,26.2,11,0.00,,---,99.99,VWS V14.01,2013-04-09 20:29:00,
2013-04-09 15:30:00,82.6,22.8,24.98,SSW,202,17.7,17.7,11,0.00,,---,99.99,VWS V14.01,2013-04-09 20:30:00,
2013-04-09 15:31:00,82.4,22.7,24.98,South,180,17.5,19.2,11,0.00,,---,99.99,VWS V14.01,2013-04-09 20:31:00,
2013-04-09 15:32:00,82.2,24.6,24.98,SSE,158,26.0,26.0,12,0.00,,---,99.99,VWS V14.01,2013-04-09 20:32:00,
2013-04-09 15:33:00,82.6,22.8,24.98,SSW,202,22.8,26.0,11,0.00,,---,99.99,VWS V14.01,2013-04-09 20:33:00,
2013-04-09 15:34:00,82.6,22.8,24.98,SSW,202,17.2,23.0,11,0.00,,---,99.99,VWS V14.01,2013-04-09 20:34:00,
2013-04-09 15:35:00,82.8,23.0,24.98,South,180,22.2,22.2,11,0.00,,---,99.99,VWS V14.01,2013-04-09 20:35:00,
2013-04-09 15:36:00,83.3,23.4,24.98,South,180,18.8,22.2,11,0.00,,---,99.99,VWS V14.01,2013-04-09 20:36:00,
2013-04-09 15:37:00,83.3,23.4,24.98,SSW,202,16.1,18.8,11,0.00,,---,99.99,VWS V14.01,2013-04-09 20:37:00,
2013-04-09 15:38:00,83.1,23.2,24.98,South,180,12.3,16.1,11,0.00,,---,99.99,VWS V14.01,2013-04-09 20:38:00,
2013-04-09 15:39:00,83.1,23.2,24.98,South,180,12.3,12.3,11,0.00,,---,99.99,VWS V14.01,2013-04-09 20:39:00,
2013-04-09 15:40:00,84.0,23.9,25.01,South,180,13.4,14.5,11,0.00,,---,99.99,VWS V14.01,2013-04-09 20:40:00,
2013-04-09 15:41:00,84.0,23.9,25.01,SSW,202,12.8,14.5,11,0.00,,---,99.99,VWS V14.01,2013-04-09 20:41:00,
2013-04-09 15:42:00,83.7,23.6,25.01,SSW,202,20.6,28.6,11,0.00,,---,99.99,VWS V14.01,2013-04-09 20:42:00,
2013-04-09 15:43:00,83.3,23.4,25.01,SSW,202,25.7,25.7,11,0.00,,---,99.99,VWS V14.01,2013-04-09 20:43:00,
2013-04-09 15:44:00,83.1,23.2,25.01,SSE,158,26.6,29.5,11,0.00,,---,99.99,VWS V14.01,2013-04-09 20:44:00,
2013-04-09 15:45:00,83.3,23.4,25.01,SSW,202,23.5,26.6,11,0.00,,---,99.99,VWS V14.01,2013-04-09 20:45:00,
2013-04-09 15:47:00,83.5,23.5,25.01,SW,225,23.0,23.5,11,0.00,,---,99.99,VWS V14.01,2013-04-09 20:47:00,
2013-04-09 15:48:00,83.8,23.8,25.01,SW,225,19.9,19.9,11,0.00,,---,99.99,VWS V14.01,2013-04-09 20:48:00,
2013-04-09 15:49:00,84.2,24.0,25.01,SW,225,19.9,19.9,11,0.00,,---,99.99,VWS V14.01,2013-04-09 20:49:00,
2013-04-09 15:50:00,84.4,24.2,25.01,South,180,9.2,19.9,11,0.00,,---,99.99,VWS V14.01,2013-04-09 20:50:00,
2013-04-09 15:51:00,84.2,24.0,25.01,SSW,202,22.4,22.4,11,0.00,,---,99.99,VWS V14.01,2013-04-09 20:51:00,
2013-04-09 15:52:00,83.8,23.8,25.01,SSW,202,22.4,22.4,11,0.00,,---,99.99,VWS V14.01,2013-04-09 20:52:00,
2013-04-09 15:53:00,83.7,23.6,25.01,SW,225,13.0,22.4,11,0.00,,---,99.99,VWS V14.01,2013-04-09 20:53:00,
2013-04-09 15:54:00,84.2,24.0,24.98,South,180,14.3,22.6,11,0.00,,---,99.99,VWS V14.01,2013-04-09 20:54:00,
2013-04-09 15:55:00,84.7,24.5,24.98,South,180,15.4,15.4,11,0.00,,---,99.99,VWS V14.01,2013-04-09 20:55:00,
2013-04-09 15:56:00,84.6,24.3,24.98,SSW,202,21.9,21.9,11,0.00,,---,99.99,VWS V14.01,2013-04-09 20:56:00,
2013-04-09 15:57:00,84.6,24.3,24.98,SSW,202,21.9,21.9,11,0.00,,---,99.99,VWS V14.01,2013-04-09 20:57:00,
2013-04-09 15:58:00,84.7,24.5,24.98,South,180,12.5,21.9,11,0.00,,---,99.99,VWS V14.01,2013-04-09 20:58:00,
2013-04-09 15:59:00,84.9,24.6,24.98,South,180,19.0,19.0,11,0.00,,---,99.99,VWS V14.01,2013-04-09 20:59:00,
2013-04-09 16:00:00,84.7,24.5,24.98,South,180,13.6,19.0,11,0.00,,---,99.99,VWS V14.01,2013-04-09 21:00:00,
2013-04-09 16:01:00,85.1,24.7,24.98,SSW,202,10.3,13.6,11,0.00,,---,99.99,VWS V14.01,2013-04-09 21:01:00,
2013-04-09 16:02:00,85.5,25.0,24.98,South,180,13.2,17.0,11,0.00,,---,99.99,VWS V14.01,2013-04-09 21:02:00,
2013-04-09 16:03:00,85.5,25.0,24.98,SSW,202,17.2,17.2,11,0.00,,---,99.99,VWS V14.01,2013-04-09 21:03:00,
2013-04-09 16:04:00,85.5,25.0,24.98,SSW,202,17.2,17.2,11,0.00,,---,99.99,VWS V14.01,2013-04-09 21:04:00,
2013-04-09 16:05:00,84.0,23.9,24.98,SSW,202,23.7,23.7,11,0.00,,---,99.99,VWS V14.01,2013-04-09 21:05:00,
2013-04-09 16:06:00,84.0,23.9,24.98,South,180,14.8,23.7,11,0.00,,---,99.99,VWS V14.01,2013-04-09 21:06:00,
2013-04-09 16:07:00,83.7,23.6,24.98,SSE,158,19.5,19.5,11,0.00,,---,99.99,VWS V14.01,2013-04-09 21:07:00,
2013-04-09 16:08:00,84.0,23.9,24.98,SW,225,23.0,23.3,11,0.00,,---,99.99,VWS V14.01,2013-04-09 21:08:00,
2013-04-09 16:10:00,84.6,24.3,24.98,SW,225,23.0,23.0,11,0.00,,---,99.99,VWS V14.01,2013-04-09 21:10:00,
2013-04-09 16:11:00,84.6,24.3,24.98,SW,225,23.0,23.0,11,0.00,,---,99.99,VWS V14.01,2013-04-09 21:11:00,
2013-04-09 16:12:00,85.3,24.9,24.98,SSE,158,14.8,23.0,11,0.00,,---,99.99,VWS V14.01,2013-04-09 21:12:00,
2013-04-09 16:13:00,85.5,25.0,24.98,South,180,12.8,14.8,11,0.00,,---,99.99,VWS V14.01,2013-04-09 21:13:00,
2013-04-09 16:14:00,85.8,25.3,24.98,SSW,202,9.4,12.8,11,0.00,,---,99.99,VWS V14.01,2013-04-09 21:14:00,
2013-04-09 16:15:00,86.0,25.4,24.98,SSE,158,16.6,16.6,11,0.00,,---,99.99,VWS V14.01,2013-04-09 21:15:00,
2013-04-09 16:16:00,85.5,25.0,24.98,South,180,12.1,16.6,11,0.00,,---,99.99,VWS V14.01,2013-04-09 21:16:00,
2013-04-09 16:17:00,85.3,24.9,24.98,South,180,14.1,15.2,11,0.00,,---,99.99,VWS V14.01,2013-04-09 21:17:00,
2013-04-09 16:18:00,85.5,25.0,24.98,SSE,158,18.6,18.6,11,0.00,,---,99.99,VWS V14.01,2013-04-09 21:18:00,
2013-04-09 16:19:00,85.1,24.7,24.98,SSW,202,25.3,28.4,11,0.00,,---,99.99,VWS V14.01,2013-04-09 21:19:00,
2013-04-09 16:20:00,85.1,24.7,24.98,SW,225,13.2,13.2,11,0.00,,---,99.99,VWS V14.01,2013-04-09 21:20:00,
2013-04-09 16:21:00,85.5,25.0,24.98,South,180,12.5,13.2,11,0.00,,---,99.99,VWS V14.01,2013-04-09 21:21:00,
2013-04-09 16:22:00,85.6,25.2,24.98,South,180,15.2,15.2,11,0.00,,---,99.99,VWS V14.01,2013-04-09 21:22:00,
2013-04-09 16:23:00,85.6,25.2,24.98,SSE,158,14.8,15.2,11,0.00,,---,99.99,VWS V14.01,2013-04-09 21:23:00,
2013-04-09 16:24:00,85.6,25.2,24.98,SSW,202,19.9,19.9,11,0.00,,---,99.99,VWS V14.01,2013-04-09 21:24:00,
2013-04-09 16:25:00,85.6,25.2,24.98,South,180,12.8,19.9,11,0.00,,---,99.99,VWS V14.01,2013-04-09 21:25:00,
2013-04-09 16:26:00,84.7,24.5,24.98,SSW,202,16.1,16.1,11,0.00,,---,99.99,VWS V14.01,2013-04-09 21:26:00,
2013-04-09 16:27:00,84.9,24.6,24.98,South,180,13.4,13.4,11,0.00,,---,99.99,VWS V14.01,2013-04-09 21:27:00,
2013-04-09 16:28:00,84.9,24.6,24.98,South,180,20.6,22.6,11,0.00,,---,99.99,VWS V14.01,2013-04-09 21:28:00,
2013-04-09 16:29:00,84.6,24.3,24.98,SSE,158,13.0,20.6,11,0.00,,---,99.99,VWS V14.01,2013-04-09 21:29:00,
2013-04-09 16:30:00,84.2,24.0,24.98,SSW,202,11.0,13.0,11,0.00,,---,99.99,VWS V14.01,2013-04-09 21:30:00,
2013-04-09 16:31:00,84.2,24.0,24.98,South,180,12.5,17.2,11,0.00,,---,99.99,VWS V14.01,2013-04-09 21:31:00,
2013-04-09 16:32:00,84.6,24.3,24.98,SSW,202,17.5,17.5,11,0.00,,---,99.99,VWS V14.01,2013-04-09 21:32:00,
2013-04-09 16:33:00,84.6,24.3,24.98,SSW,202,8.1,17.5,11,0.00,,---,99.99,VWS V14.01,2013-04-09 21:33:00,
2013-04-09 16:34:00,84.2,24.0,24.98,South,180,17.2,25.5,11,0.00,,---,99.99,VWS V14.01,2013-04-09 21:34:00,
2013-04-09 16:35:00,84.2,24.0,24.98,SSE,158,12.8,19.9,11,0.00,,---,99.99,VWS V14.01,2013-04-09 21:35:00,
2013-04-09 16:36:00,84.4,24.2,24.98,South,180,19.0,19.0,11,0.00,,---,99.99,VWS V14.01,2013-04-09 21:36:00,
2013-04-09 16:37:00,84.2,24.0,24.98,SSW,202,30.0,31.3,11,0.00,,---,99.99,VWS V14.01,2013-04-09 21:37:00,
2013-04-09 16:40:00,83.8,23.8,24.98,SSW,202,12.8,31.1,11,0.00,,---,99.99,VWS V14.01,2013-04-09 21:40:00,
2013-04-09 16:41:00,83.8,23.8,25.01,SSW,202,17.0,18.8,11,0.00,,---,99.99,VWS V14.01,2013-04-09 21:41:00,
2013-04-09 16:42:00,83.8,23.8,25.01,South,180,13.4,17.0,11,0.00,,---,99.99,VWS V14.01,2013-04-09 21:42:00,
2013-04-09 16:43:00,84.2,24.0,25.01,SSW,202,10.1,13.4,11,0.00,,---,99.99,VWS V14.01,2013-04-09 21:43:00,
2013-04-09 16:44:00,84.2,24.0,25.01,SSW,202,10.1,10.1,11,0.00,,---,99.99,VWS V14.01,2013-04-09 21:44:00,
2013-04-09 16:45:00,84.2,24.0,25.01,SSW,202,16.6,17.2,11,0.00,,---,99.99,VWS V14.01,2013-04-09 21:45:00,
2013-04-09 16:46:00,84.2,24.0,25.01,SSW,202,16.6,16.6,11,0.00,,---,99.99,VWS V14.01,2013-04-09 21:46:00,
2013-04-09 16:47:00,84.2,24.0,25.01,SSW,202,24.6,24.6,11,0.00,,---,99.99,VWS V14.01,2013-04-09 21:47:00,
2013-04-09 16:48:00,84.2,24.0,25.01,South,180,23.9,23.9,11,0.00,,---,99.99,VWS V14.01,2013-04-09 21:48:00,
2013-04-09 16:49:00,84.2,24.0,25.01,SSW,202,16.8,23.9,11,0.00,,---,99.99,VWS V14.01,2013-04-09 21:49:00,
2013-04-09 16:50:00,84.0,23.9,25.01,South,180,22.4,23.9,11,0.00,,---,99.99,VWS V14.01,2013-04-09 21:50:00,
2013-04-09 16:51:00,83.8,23.8,25.01,SSW,202,22.2,22.4,11,0.00,,---,99.99,VWS V14.01,2013-04-09 21:51:00,
2013-04-09 16:52:00,83.8,23.8,25.01,SW,225,32.2,32.2,11,0.00,,---,99.99,VWS V14.01,2013-04-09 21:52:00,
2013-04-09 16:53:00,83.7,23.6,25.01,SSW,202,22.2,32.7,11,0.00,,---,99.99,VWS V14.01,2013-04-09 21:53:00,
2013-04-09 16:54:00,83.8,23.8,25.01,South,180,10.7,22.2,11,0.00,,---,99.99,VWS V14.01,2013-04-09 21:54:00,
2013-04-09 16:55:00,84.4,24.2,25.01,South,180,10.7,14.8,11,0.00,,---,99.99,VWS V14.01,2013-04-09 21:55:00,
2013-04-09 16:56:00,84.9,24.6,25.01,SSE,158,22.8,22.8,11,0.00,,---,99.99,VWS V14.01,2013-04-09 21:56:00,
2013-04-09 16:57:00,84.7,24.5,25.01,SSE,158,13.2,22.8,11,0.00,,---,99.99,VWS V14.01,2013-04-09 21:57:00,
2013-04-09 16:58:00,84.7,24.5,25.01,SSE,158,13.6,16.6,11,0.00,,---,99.99,VWS V14.01,2013-04-09 21:58:00,
2013-04-09 16:59:00,84.7,24.5,25.01,SSW,202,11.4,13.6,11,0.00,,---,99.99,VWS V14.01,2013-04-09 21:59:00,
2013-04-09 17:00:00,84.9,24.6,25.01,SW,225,20.4,20.4,11,0.00,,---,99.99,VWS V14.01,2013-04-09 22:00:00,
2013-04-09 17:01:00,85.1,24.7,25.01,SSW,202,12.5,20.4,11,0.00,,---,99.99,VWS V14.01,2013-04-09 22:01:00,
2013-04-09 17:02:00,85.1,24.7,25.01,South,180,12.8,23.5,11,0.00,,---,99.99,VWS V14.01,2013-04-09 22:02:00,
2013-04-09 17:03:00,85.1,24.7,25.01,SW,225,16.8,16.8,11,0.00,,---,99.99,VWS V14.01,2013-04-09 22:03:00,
2013-04-09 17:04:00,84.6,24.3,25.01,SW,225,24.2,24.2,11,0.00,,---,99.99,VWS V14.01,2013-04-09 22:04:00,
2013-04-09 17:06:00,84.6,24.3,25.01,SSW,202,22.8,26.4,11,0.00,,---,99.99,VWS V14.01,2013-04-09 22:06:00,
2013-04-09 17:07:00,84.6,24.3,25.01,SW,225,15.9,23.3,11,0.00,,---,99.99,VWS V14.01,2013-04-09 22:07:00,
2013-04-09 17:08:00,84.6,24.3,25.01,SW,225,24.2,25.1,11,0.00,,---,99.99,VWS V14.01,2013-04-09 22:08:00,
2013-04-09 17:09:00,84.6,24.3,25.01,South,180,15.9,24.2,11,0.00,,---,99.99,VWS V14.01,2013-04-09 22:09:00,
2013-04-09 17:10:00,84.0,23.9,25.01,SSW,202,17.5,17.5,11,0.00,,---,99.99,VWS V14.01,2013-04-09 22:10:00,
2013-04-09 17:11:00,83.8,23.8,25.01,SSW,202,16.1,21.0,11,0.00,,---,99.99,VWS V14.01,2013-04-09 22:11:00,
2013-04-09 17:12:00,83.7,23.6,25.01,South,180,21.3,26.4,11,0.00,,---,99.99,VWS V14.01,2013-04-09 22:12:00,
2013-04-09 17:13:00,83.7,23.6,25.01,SW,225,23.5,23.5,11,0.00,,---,99.99,VWS V14.01,2013-04-09 22:13:00,
2013-04-09 17:14:00,83.7,23.6,25.01,SSW,202,17.2,24.4,11,0.00,,---,99.99,VWS V14.01,2013-04-09 22:14:00,
2013-04-09 17:15:00,83.8,23.8,25.01,SSW,202,17.9,17.9,11,0.00,,---,99.99,VWS V14.01,2013-04-09 22:15:00,
2013-04-09 17:17:00,84.2,24.0,25.01,SSW,202,17.5,19.5,11,0.00,,---,99.99,VWS V14.01,2013-04-09 22:17:00,
2013-04-09 17:18:00,84.6,24.3,25.01,SSW,202,17.7,22.2,11,0.00,,---,99.99,VWS V14.01,2013-04-09 22:18:00,
2013-04-09 17:19:00,84.4,24.2,25.01,SSW,202,13.0,17.7,11,0.00,,---,99.99,VWS V14.01,2013-04-09 22:19:00,
2013-04-09 17:20:00,84.9,24.6,25.01,SSW,202,20.1,20.1,11,0.00,,---,99.99,VWS V14.01,2013-04-09 22:20:00,
2013-04-09 17:21:00,84.9,24.6,25.01,SSW,202,13.2,20.1,11,0.00,,---,99.99,VWS V14.01,2013-04-09 22:21:00,
2013-04-09 17:22:00,84.9,24.6,25.01,South,180,19.7,21.9,11,0.00,,---,99.99,VWS V14.01,2013-04-09 22:22:00,
2013-04-09 17:23:00,84.9,24.6,25.01,SW,225,17.7,19.7,11,0.00,,---,99.99,VWS V14.01,2013-04-09 22:23:00,
2013-04-09 17:24:00,84.7,24.5,24.98,South,180,16.1,19.7,11,0.00,,---,99.99,VWS V14.01,2013-04-09 22:24:00,
2013-04-09 17:25:00,84.7,24.5,24.98,SSE,158,7.8,16.1,11,0.00,,---,99.99,VWS V14.01,2013-04-09 22:25:00,
2013-04-09 17:26:00,84.9,24.6,24.98,SSE,158,11.4,20.4,11,0.00,,---,99.99,VWS V14.01,2013-04-09 22:26:00,
2013-04-09 17:27:00,85.1,24.7,24.98,South,180,13.2,17.2,11,0.00,,---,99.99,VWS V14.01,2013-04-09 22:27:00,
2013-04-09 17:28:00,85.1,24.7,24.98,South,180,14.3,17.5,11,0.00,,---,99.99,VWS V14.01,2013-04-09 22:28:00,
2013-04-09 17:29:00,84.9,24.6,24.98,SSW,202,11.9,15.2,11,0.00,,---,99.99,VWS V14.01,2013-04-09 22:29:00,
2013-04-09 17:30:00,84.9,24.6,24.98,South,180,16.6,16.8,11,0.00,,---,99.99,VWS V14.01,2013-04-09 22:30:00,
2013-04-09 17:31:00,84.9,24.6,24.98,South,180,28.4,28.4,11,0.00,,---,99.99,VWS V14.01,2013-04-09 22:31:00,
2013-04-09 17:32:00,84.9,24.6,24.98,South,180,28.4,28.4,11,0.00,,---,99.99,VWS V14.01,2013-04-09 22:32:00,
2013-04-09 17:33:00,84.7,24.5,24.98,SSW,202,23.3,28.4,11,0.00,,---,99.99,VWS V14.01,2013-04-09 22:33:00,
2013-04-09 17:34:00,84.2,24.0,24.98,SW,225,19.0,23.3,11,0.00,,---,99.99,VWS V14.01,2013-04-09 22:34:00,
2013-04-09 17:35:00,84.2,24.0,24.98,SSW,202,17.2,25.3,11,0.00,,---,99.99,VWS V14.01,2013-04-09 22:35:00,
2013-04-09 17:36:00,84.2,24.0,24.98,SW,225,28.4,28.4,11,0.00,,---,99.99,VWS V14.01,2013-04-09 22:36:00,
2013-04-09 17:37:00,84.0,23.9,24.98,SW,225,15.9,33.1,11,0.00,,---,99.99,VWS V14.01,2013-04-09 22:37:00,
2013-04-09 17:38:00,84.0,23.9,24.98,WSW,248,20.4,20.4,11,0.00,,---,99.99,VWS V14.01,2013-04-09 22:38:00,
2013-04-09 17:39:00,83.7,23.6,25.01,West,270,23.3,24.4,11,0.00,,---,99.99,VWS V14.01,2013-04-09 22:39:00,
2013-04-09 17:40:00,83.5,23.5,25.01,WSW,248,24.6,24.6,11,0.00,,---,99.99,VWS V14.01,2013-04-09 22:40:00,
2013-04-09 17:41:00,83.3,23.4,25.01,WSW,248,25.1,26.2,11,0.00,,---,99.99,VWS V14.01,2013-04-09 22:41:00,
2013-04-09 17:42:00,82.8,23.0,25.01,SW,225,16.6,26.2,11,0.00,,---,99.99,VWS V14.01,2013-04-09 22:42:00,
2013-04-09 17:43:00,82.8,23.0,25.01,SW,225,17.0,22.2,11,0.00,,---,99.99,VWS V14.01,2013-04-09 22:43:00,
2013-04-09 17:44:00,82.8,23.0,25.01,WSW,248,15.9,23.9,11,0.00,,---,99.99,VWS V14.01,2013-04-09 22:44:00,
2013-04-09 17:45:00,82.8,23.0,25.01,SW,225,13.0,15.9,11,0.00,,---,99.99,VWS V14.01,2013-04-09 22:45:00,
2013-04-09 17:46:00,82.8,23.0,25.01,WSW,248,14.5,15.4,11,0.00,,---,99.99,VWS V14.01,2013-04-09 22:46:00,
2013-04-09 17:47:00,82.9,23.1,25.01,SW,225,14.5,16.6,11,0.00,,---,99.99,VWS V14.01,2013-04-09 22:47:00,
2013-04-09 17:48:00,83.1,23.2,25.01,SSW,202,20.4,21.5,11,0.00,,---,99.99,VWS V14.01,2013-04-09 22:48:00,
2013-04-09 17:49:00,83.1,23.2,25.01,SW,225,12.5,20.4,11,0.00,,---,99.99,VWS V14.01,2013-04-09 22:49:00,
2013-04-09 17:50:00,82.9,23.1,25.01,SW,225,12.5,14.5,11,0.00,,---,99.99,VWS V14.01,2013-04-09 22:50:00,
2013-04-09 17:51:00,82.9,23.1,25.01,SW,225,10.3,12.5,11,0.00,,---,99.99,VWS V14.01,2013-04-09 22:51:00,
2013-04-09 17:52:00,82.9,23.1,25.01,West,270,8.5,10.3,11,0.00,,---,99.99,VWS V14.01,2013-04-09 22:52:00,
2013-04-09 17:53:00,82.9,23.1,25.01,SW,225,17.5,19.9,11,0.00,,---,99.99,VWS V14.01,2013-04-09 22:53:00,
2013-04-09 17:54:00,82.6,22.8,25.01,West,270,10.7,17.5,11,0.00,,---,99.99,VWS V14.01,2013-04-09 22:54:00,
2013-04-09 17:55:00,82.6,22.8,25.07,SSW,202,7.6,13.2,11,0.00,,---,99.99,VWS V14.01,2013-04-09 22:55:00,
2013-04-09 17:56:00,82.6,22.8,25.07,WSW,248,8.5,8.5,11,0.00,,---,99.99,VWS V14.01,2013-04-09 22:56:00,
2013-04-09 17:57:00,82.4,22.7,25.07,SW,225,16.6,16.6,11,0.00,,---,99.99,VWS V14.01,2013-04-09 22:57:00,
2013-04-09 17:58:00,82.0,24.5,25.07,WSW,248,16.6,19.5,12,0.00,,---,99.99,VWS V14.01,2013-04-09 22:58:00,
2013-04-09 17:59:00,81.9,24.3,25.07,WSW,248,14.8,18.6,12,0.00,,---,99.99,VWS V14.01,2013-04-09 22:59:00,
2013-04-09 18:00:00,81.9,24.3,25.07,West,270,11.0,14.8,12,0.00,,---,99.99,VWS V14.01,2013-04-09 23:00:00,
2013-04-09 18:01:00,82.0,24.5,25.07,WSW,248,10.3,11.0,12,0.00,,---,99.99,VWS V14.01,2013-04-09 23:01:00,
2013-04-09 18:02:00,82.0,24.5,25.07,West,270,18.8,18.8,12,0.00,,---,99.99,VWS V14.01,2013-04-09 23:02:00,
2013-04-09 18:03:00,81.9,24.3,25.07,West,270,14.8,18.8,12,0.00,,---,99.99,VWS V14.01,2013-04-09 23:03:00,
2013-04-09 18:05:00,81.7,24.2,25.07,WSW,248,13.0,14.8,12,0.00,,---,99.99,VWS V14.01,2013-04-09 23:05:00,
2013-04-09 18:06:00,81.7,24.2,25.07,West,270,12.3,17.2,12,0.00,,---,99.99,VWS V14.01,2013-04-09 23:06:00,
2013-04-09 18:07:00,81.5,24.0,25.07,WSW,248,13.2,15.4,12,0.00,,---,99.99,VWS V14.01,2013-04-09 23:07:00,
2013-04-09 18:08:00,81.5,24.0,25.07,WSW,248,7.8,13.2,12,0.00,,---,99.99,VWS V14.01,2013-04-09 23:08:00,
2013-04-09 18:09:00,81.7,24.2,25.07,WSW,248,17.2,17.2,12,0.00,,---,99.99,VWS V14.01,2013-04-09 23:09:00,
2013-04-09 18:10:00,81.5,24.0,25.07,WSW,248,15.2,15.2,12,0.00,,---,99.99,VWS V14.01,2013-04-09 23:10:00,
2013-04-09 18:11:00,81.3,23.9,25.07,West,270,14.8,15.2,12,0.00,,---,99.99,VWS V14.01,2013-04-09 23:11:00,
2013-04-09 18:12:00,81.1,23.8,25.07,WNW,292,17.5,17.7,12,0.00,,---,99.99,VWS V14.01,2013-04-09 23:12:00,
2013-04-09 18:13:00,80.1,22.9,25.07,NW,315,12.5,19.9,12,0.00,,---,99.99,VWS V14.01,2013-04-09 23:13:00,
2013-04-09 18:14:00,78.1,23.3,25.07,NNW,338,19.9,22.6,13,0.00,,---,99.99,VWS V14.01,2013-04-09 23:14:00,
2013-04-09 18:15:00,76.8,22.3,25.07,NNW,338,19.9,20.1,13,0.00,,---,99.99,VWS V14.01,2013-04-09 23:15:00,
2013-04-09 18:16:00,76.1,21.7,25.07,NNW,338,13.6,19.9,13,0.00,,---,99.99,VWS V14.01,2013-04-09 23:16:00,
2013-04-09 18:17:00,75.4,21.2,25.07,North,0,17.2,17.9,13,0.00,,---,99.99,VWS V14.01,2013-04-09 23:17:00,
2013-04-09 18:18:00,74.8,20.7,25.07,North,0,22.8,24.4,13,0.00,,---,99.99,VWS V14.01,2013-04-09 23:18:00,
2013-04-09 18:19:00,73.4,19.6,25.07,NNW,338,22.2,22.2,13,0.00,,---,99.99,VWS V14.01,2013-04-09 23:19:00,
2013-04-09 18:20:00,73.4,19.6,25.07,NNW,338,23.9,26.0,13,0.00,,---,99.99,VWS V14.01,2013-04-09 23:20:00,
2013-04-09 18:21:00,72.5,20.6,25.07,North,0,23.5,25.5,14,0.00,,---,99.99,VWS V14.01,2013-04-09 23:21:00,
2013-04-09 18:22:00,72.3,20.5,25.07,North,0,22.6,23.5,14,0.00,,---,99.99,VWS V14.01,2013-04-09 23:22:00,
2013-04-09 18:25:00,72.3,20.5,25.07,North,0,15.9,20.8,14,0.00,,---,99.99,VWS V14.01,2013-04-09 23:25:00,
2013-04-09 18:26:00,72.0,20.2,25.10,North,0,15.9,15.9,14,0.00,,---,99.99,VWS V14.01,2013-04-09 23:26:00,
2013-04-09 18:27:00,71.4,19.8,25.10,North,0,15.9,15.9,14,0.00,,---,99.99,VWS V14.01,2013-04-09 23:27:00,
2013-04-09 18:28:00,71.4,19.8,25.10,North,0,15.9,15.9,14,0.00,,---,99.99,VWS V14.01,2013-04-09 23:28:00,
2013-04-09 18:29:00,71.1,19.5,25.10,North,0,15.9,15.9,14,0.00,,---,99.99,VWS V14.01,2013-04-09 23:29:00,
2013-04-09 18:30:00,71.1,19.5,25.10,North,0,15.9,15.9,14,0.00,,---,99.99,VWS V14.01,2013-04-09 23:30:00,
2013-04-09 18:31:00,70.9,19.4,25.10,North,0,21.9,21.9,14,0.00,,---,99.99,VWS V14.01,2013-04-09 23:31:00,
2013-04-09 18:32:00,70.7,19.2,25.10,NNW,338,12.5,21.9,14,0.00,,---,99.99,VWS V14.01,2013-04-09 23:32:00,
2013-04-09 18:33:00,70.5,19.1,25.10,NNW,338,19.9,19.9,14,0.00,,---,99.99,VWS V14.01,2013-04-09 23:33:00,
2013-04-09 18:34:00,70.5,19.1,25.10,NNE,22,23.3,23.3,14,0.00,,---,99.99,VWS V14.01,2013-04-09 23:34:00,
2013-04-09 18:35:00,70.3,18.9,25.10,NNW,338,17.2,23.3,14,0.00,,---,99.99,VWS V14.01,2013-04-09 23:35:00,
2013-04-09 18:36:00,70.2,18.8,25.10,NNW,338,17.2,17.7,14,0.00,,---,99.99,VWS V14.01,2013-04-09 23:36:00,
2013-04-09 18:37:00,70.0,18.6,25.10,NNW,338,13.2,21.9,14,0.00,,---,99.99,VWS V14.01,2013-04-09 23:37:00,
2013-04-09 18:38:00,70.0,18.6,25.10,North,0,16.3,18.8,14,0.00,,---,99.99,VWS V14.01,2013-04-09 23:38:00,
2013-04-09 18:39:00,69.8,18.5,25.13,North,0,18.8,22.2,14,0.00,,---,99.99,VWS V14.01,2013-04-09 23:39:00,
2013-04-09 18:40:00,69.8,18.5,25.13,NNW,338,17.2,17.2,14,0.00,,---,99.99,VWS V14.01,2013-04-09 23:40:00,
2013-04-09 18:41:00,69.6,20.0,25.13,North,0,17.2,17.9,15,0.00,,---,99.99,VWS V14.01,2013-04-09 23:41:00,
2013-04-09 18:42:00,69.4,19.8,25.13,North,0,17.0,19.9,15,0.00,,---,99.99,VWS V14.01,2013-04-09 23:42:00,
2013-04-09 18:43:00,69.4,19.8,25.13,North,0,17.2,20.1,15,0.00,,---,99.99,VWS V14.01,2013-04-09 23:43:00,
2013-04-09 18:44:00,69.4,19.8,25.13,NNE,22,16.8,17.2,15,0.00,,---,99.99,VWS V14.01,2013-04-09 23:44:00,
2013-04-09 18:45:00,69.4,19.8,25.13,North,0,17.5,23.0,15,0.00,,---,99.99,VWS V14.01,2013-04-09 23:45:00,
2013-04-09 18:46:00,69.3,19.7,25.13,NNE,22,19.5,19.9,15,0.00,,---,99.99,VWS V14.01,2013-04-09 23:46:00,
2013-04-09 18:47:00,69.1,19.5,25.13,NNE,22,15.2,22.4,15,0.00,,---,99.99,VWS V14.01,2013-04-09 23:47:00,
2013-04-09 18:48:00,69.1,19.5,25.13,NE,45,16.1,16.1,15,0.00,,---,99.99,VWS V14.01,2013-04-09 23:48:00,
2013-04-09 18:49:00,68.9,19.4,25.13,North,0,22.4,22.4,15,0.00,,---,99.99,VWS V14.01,2013-04-09 23:49:00,
2013-04-09 18:50:00,68.5,19.1,25.13,NNE,22,19.0,23.9,15,0.00,,---,99.99,VWS V14.01,2013-04-09 23:50:00,
2013-04-09 18:51:00,68.5,19.1,25.13,NNE,22,23.5,23.5,15,0.00,,---,99.99,VWS V14.01,2013-04-09 23:51:00,
2013-04-09 18:52:00,68.4,19.0,25.13,NNE,22,22.8,23.5,15,0.00,,---,99.99,VWS V14.01,2013-04-09 23:52:00,
2013-04-09 18:53:00,68.2,18.8,25.13,NNE,22,15.7,23.3,15,0.00,,---,99.99,VWS V14.01,2013-04-09 23:53:00,
2013-04-09 18:54:00,68.2,18.8,25.13,NNE,22,17.2,18.6,15,0.00,,---,99.99,VWS V14.01,2013-04-09 23:54:00,
2013-04-09 18:55:00,68.2,18.8,25.13,NNE,22,19.2,19.2,15,0.00,,---,99.99,VWS V14.01,2013-04-09 23:55:00,
2013-04-09 18:56:00,68.2,18.8,25.13,NNE,22,15.4,19.2,15,0.00,,---,99.99,VWS V14.01,2013-04-09 23:56:00,
2013-04-09 18:57:00,68.0,18.7,25.13,NNE,22,15.2,19.9,15,0.00,,---,99.99,VWS V14.01,2013-04-09 23:57:00,
2013-04-09 18:58:00,67.8,18.5,25.13,NNE,22,18.6,18.6,15,0.00,,---,99.99,VWS V14.01,2013-04-09 23:58:00,
2013-04-09 18:59:00,67.6,18.4,25.13,North,0,17.2,17.2,15,0.00,,---,99.99,VWS V14.01,2013-04-09 23:59:00,
2013-04-09 19:00:00,67.6,18.4,25.13,North,0,17.2,17.2,15,0.00,,---,99.99,VWS V14.01,2013-04-10 00:00:00,
2013-04-09 19:01:00,67.5,18.2,25.13,NNE,22,13.0,17.2,15,0.00,,---,99.99,VWS V14.01,2013-04-10 00:01:00,
2013-04-09 19:02:00,67.5,18.2,25.13,NNE,22,19.2,19.2,15,0.00,,---,99.99,VWS V14.01,2013-04-10 00:02:00,
2013-04-09 19:03:00,67.3,18.1,25.13,NNE,22,17.5,19.2,15,0.00,,---,99.99,VWS V14.01,2013-04-10 00:03:00,
2013-04-09 19:04:00,67.1,17.9,25.13,North,0,17.0,20.6,15,0.00,,---,99.99,VWS V14.01,2013-04-10 00:04:00,
2013-04-09 19:05:00,67.1,17.9,25.13,NNE,22,17.7,19.7,15,0.00,,---,99.99,VWS V14.01,2013-04-10 00:05:00,
2013-04-09 19:06:00,66.7,17.6,25.13,North,0,19.7,19.7,15,0.00,,---,99.99,VWS V14.01,2013-04-10 00:06:00,
2013-04-09 19:07:00,66.7,17.6,25.13,NNE,22,17.5,19.7,15,0.00,,---,99.99,VWS V14.01,2013-04-10 00:07:00,
2013-04-09 19:08:00,66.7,17.6,25.13,North,0,12.5,12.5,15,0.00,,---,99.99,VWS V14.01,2013-04-10 00:08:00,
2013-04-09 19:09:00,66.6,17.5,25.16,North,0,17.5,17.9,15,0.00,,---,99.99,VWS V14.01,2013-04-10 00:09:00,
2013-04-09 19:10:00,66.6,17.5,25.16,NNE,22,11.0,17.5,15,0.00,,---,99.99,VWS V14.01,2013-04-10 00:10:00,
2013-04-09 19:11:00,66.4,17.4,25.16,NNE,22,16.1,16.1,15,0.00,,---,99.99,VWS V14.01,2013-04-10 00:11:00,
2013-04-09 19:12:00,66.4,17.4,25.16,NNE,22,15.2,16.1,15,0.00,,---,99.99,VWS V14.01,2013-04-10 00:12:00,
2013-04-09 19:13:00,66.2,17.2,25.16,NNE,22,10.7,15.2,15,0.00,,---,99.99,VWS V14.01,2013-04-10 00:13:00,
2013-04-09 19:14:00,66.0,17.1,25.16,NNE,22,13.6,13.6,15,0.00,,---,99.99,VWS V14.01,2013-04-10 00:14:00,
2013-04-09 19:15:00,66.0,17.1,25.16,North,0,13.6,16.1,15,0.00,,---,99.99,VWS V14.01,2013-04-10 00:15:00,
2013-04-09 19:16:00,65.8,16.9,25.16,NNE,22,10.5,10.5,15,0.00,,---,99.99,VWS V14.01,2013-04-10 00:16:00,
2013-04-09 19:17:00,65.8,16.9,25.16,NNE,22,10.1,10.5,15,0.00,,---,99.99,VWS V14.01,2013-04-10 00:17:00,
2013-04-09 19:18:00,65.8,16.9,25.16,NNE,22,10.1,10.1,15,0.00,,---,99.99,VWS V14.01,2013-04-10 00:18:00,
2013-04-09 19:19:00,65.7,16.8,25.16,North,0,13.0,13.2,15,0.00,,---,99.99,VWS V14.01,2013-04-10 00:19:00,
2013-04-09 19:20:00,65.7,16.8,25.16,North,0,11.0,13.0,15,0.00,,---,99.99,VWS V14.01,2013-04-10 00:20:00,
2013-04-09 19:21:00,65.5,16.6,25.16,North,0,10.3,11.0,15,0.00,,---,99.99,VWS V14.01,2013-04-10 00:21:00,
2013-04-09 19:22:00,65.3,16.5,25.16,NNE,22,17.5,17.7,15,0.00,,---,99.99,VWS V14.01,2013-04-10 00:22:00,
2013-04-09 19:23:00,65.3,16.5,25.16,North,0,10.5,17.7,15,0.00,,---,99.99,VWS V14.01,2013-04-10 00:23:00,
2013-04-09 19:24:00,65.3,16.5,25.10,NNE,22,17.5,17.5,15,0.00,,---,99.99,VWS V14.01,2013-04-10 00:24:00,
2013-04-09 19:25:00,65.1,16.4,25.10,North,0,18.6,19.7,15,0.00,,---,99.99,VWS V14.01,2013-04-10 00:25:00,
2013-04-09 19:26:00,65.1,16.4,25.10,NNE,22,14.8,18.6,15,0.00,,---,99.99,VWS V14.01,2013-04-10 00:26:00,
2013-04-09 19:27:00,65.1,16.4,25.10,NE,45,15.9,15.9,15,0.00,,---,99.99,VWS V14.01,2013-04-10 00:27:00,
2013-04-09 19:28:00,64.9,16.2,25.10,NNE,22,14.1,18.6,15,0.00,,---,99.99,VWS V14.01,2013-04-10 00:28:00,
2013-04-09 19:29:00,64.8,16.1,25.10,NNE,22,14.8,19.0,15,0.00,,---,99.99,VWS V14.01,2013-04-10 00:29:00,
2013-04-09 19:30:00,64.8,16.1,25.10,NNE,22,15.4,15.4,15,0.00,,---,99.99,VWS V14.01,2013-04-10 00:30:00,
2013-04-09 19:31:00,64.8,16.1,25.10,NNE,22,14.8,17.7,15,0.00,,---,99.99,VWS V14.01,2013-04-10 00:31:00,
2013-04-09 19:32:00,64.8,20.3,25.10,North,0,17.5,17.5,18,0.00,,---,99.99,VWS V14.01,2013-04-10 00:32:00,
2013-04-09 19:33:00,64.8,20.3,25.10,NNE,22,13.9,17.5,18,0.00,,---,99.99,VWS V14.01,2013-04-10 00:33:00,
2013-04-09 19:34:00,64.6,20.1,25.10,NNE,22,12.3,15.2,18,0.00,,---,99.99,VWS V14.01,2013-04-10 00:34:00,
2013-04-09 19:35:00,64.4,20.0,25.10,NNE,22,14.1,14.1,18,0.00,,---,99.99,VWS V14.01,2013-04-10 00:35:00,
2013-04-09 19:36:00,64.4,20.0,25.10,NNE,22,14.8,15.4,18,0.00,,---,99.99,VWS V14.01,2013-04-10 00:36:00,
2013-04-09 19:37:00,64.2,19.9,25.10,NNE,22,16.3,16.3,18,0.00,,---,99.99,VWS V14.01,2013-04-10 00:37:00,
2013-04-09 19:38:00,64.2,19.9,25.10,NNE,22,13.6,17.0,18,0.00,,---,99.99,VWS V14.01,2013-04-10 00:38:00,
2013-04-09 19:39:00,64.2,19.9,25.13,NNE,22,14.8,14.8,18,0.00,,---,99.99,VWS V14.01,2013-04-10 00:39:00,
2013-04-09 19:40:00,64.2,19.9,25.13,NNE,22,13.0,14.8,18,0.00,,---,99.99,VWS V14.01,2013-04-10 00:40:00,
2013-04-09 19:41:00,64.2,19.9,25.13,NNE,22,17.5,19.7,18,0.00,,---,99.99,VWS V14.01,2013-04-10 00:41:00,
2013-04-09 19:42:00,63.9,19.6,25.13,NNE,22,14.1,17.7,18,0.00,,---,99.99,VWS V14.01,2013-04-10 00:42:00,
2013-04-09 19:43:00,63.9,19.6,25.13,NNE,22,14.1,14.1,18,0.00,,---,99.99,VWS V14.01,2013-04-10 00:43:00,
2013-04-09 19:44:00,63.9,19.6,25.13,NNE,22,15.4,15.4,18,0.00,,---,99.99,VWS V14.01,2013-04-10 00:44:00,
2013-04-09 19:45:00,63.9,19.6,25.13,North,0,15.7,15.7,18,0.00,,---,99.99,VWS V14.01,2013-04-10 00:45:00,
2013-04-09 19:46:00,63.7,19.4,25.13,NNW,338,12.5,17.0,18,0.00,,---,99.99,VWS V14.01,2013-04-10 00:46:00,
2013-04-09 19:47:00,63.7,19.4,25.13,North,0,12.3,14.8,18,0.00,,---,99.99,VWS V14.01,2013-04-10 00:47:00,
2013-04-09 19:48:00,63.5,19.3,25.13,North,0,10.1,12.3,18,0.00,,---,99.99,VWS V14.01,2013-04-10 00:48:00,
2013-04-09 19:49:00,63.5,19.3,25.13,NNE,22,10.7,11.0,18,0.00,,---,99.99,VWS V14.01,2013-04-10 00:49:00,
2013-04-09 19:50:00,63.5,19.3,25.13,North,0,15.4,15.4,18,0.00,,---,99.99,VWS V14.01,2013-04-10 00:50:00,
2013-04-09 19:51:00,63.1,19.0,25.13,North,0,10.7,15.4,18,0.00,,---,99.99,VWS V14.01,2013-04-10 00:51:00,
2013-04-09 19:52:00,63.1,19.0,25.13,NNE,22,13.4,13.9,18,0.00,,---,99.99,VWS V14.01,2013-04-10 00:52:00,
2013-04-09 19:53:00,63.0,18.8,25.13,NNE,22,15.2,15.2,18,0.00,,---,99.99,VWS V14.01,2013-04-10 00:53:00,
2013-04-09 19:54:00,63.0,18.8,25.13,North,0,13.6,15.2,18,0.00,,---,99.99,VWS V14.01,2013-04-10 00:54:00,
2013-04-09 19:55:00,62.8,18.7,25.13,North,0,12.5,13.6,18,0.00,,---,99.99,VWS V14.01,2013-04-10 00:55:00,
2013-04-09 19:56:00,62.8,18.7,25.13,North,0,12.8,12.8,18,0.00,,---,99.99,VWS V14.01,2013-04-10 00:56:00,
2013-04-09 19:57:00,62.6,18.5,25.13,North,0,10.3,12.8,18,0.00,,---,99.99,VWS V14.01,2013-04-10 00:57:00,
2013-04-09 19:58:00,62.6,18.5,25.13,North,0,8.7,11.0,18,0.00,,---,99.99,VWS V14.01,2013-04-10 00:58:00,
2013-04-09 19:59:00,62.2,19.5,25.13,North,0,10.1,10.1,19,0.00,,---,99.99,VWS V14.01,2013-04-10 00:59:00,
2013-04-09 20:00:00,62.2,19.5,25.13,NNW,338,7.4,10.7,19,0.00,,---,0.00,VWS V14.01,2013-04-10 01:00:00,
2013-04-09 20:01:00,62.2,19.5,25.13,North,0,9.6,10.3,19,0.00,,---,99.99,VWS V14.01,2013-04-10 01:01:00,
2013-04-09 20:02:00,62.1,19.3,25.13,NNE,22,7.6,9.6,19,0.00,,---,99.99,VWS V14.01,2013-04-10 01:02:00,
2013-04-09 20:03:00,61.9,19.2,25.13,North,0,7.6,10.1,19,0.00,,---,99.99,VWS V14.01,2013-04-10 01:03:00,
2013-04-09 20:04:00,61.9,19.2,25.13,North,0,8.5,8.5,19,0.00,,---,99.99,VWS V14.01,2013-04-10 01:04:00,
2013-04-09 20:05:00,61.9,19.2,25.13,North,0,7.6,9.4,19,0.00,,---,99.99,VWS V14.01,2013-04-10 01:05:00,
2013-04-09 20:06:00,61.7,19.0,25.13,North,0,8.5,10.5,19,0.00,,---,99.99,VWS V14.01,2013-04-10 01:06:00,
2013-04-09 20:07:00,61.7,19.0,25.13,North,0,10.7,10.7,19,0.00,,---,99.99,VWS V14.01,2013-04-10 01:07:00,
2013-04-09 20:08:00,61.5,18.9,25.13,North,0,10.7,10.7,19,0.00,,---,99.99,VWS V14.01,2013-04-10 01:08:00,
2013-04-09 20:09:00,61.5,18.9,25.13,North,0,9.8,10.7,19,0.00,,---,99.99,VWS V14.01,2013-04-10 01:09:00,
2013-04-09 20:10:00,61.5,18.9,25.13,NNE,22,11.0,11.0,19,0.00,,---,99.99,VWS V14.01,2013-04-10 01:10:00,
2013-04-09 20:11:00,61.3,18.8,25.13,NNE,22,9.8,9.8,19,0.00,,---,99.99,VWS V14.01,2013-04-10 01:11:00,
2013-04-09 20:12:00,61.3,18.8,25.13,NNE,22,9.4,9.4,19,0.00,,---,99.99,VWS V14.01,2013-04-10 01:12:00,
2013-04-09 20:14:00,61.3,18.8,25.13,North,0,8.5,10.3,19,0.00,,---,99.99,VWS V14.01,2013-04-10 01:14:00,
2013-04-09 20:15:00,61.3,18.8,25.13,NNE,22,10.1,10.3,19,0.00,,---,99.99,VWS V14.01,2013-04-10 01:15:00,
2013-04-09 20:17:00,61.2,18.6,25.13,North,0,8.5,10.1,19,0.00,,---,99.99,VWS V14.01,2013-04-10 01:17:00,
2013-04-09 20:18:00,61.0,18.5,25.13,NNE,22,9.0,9.2,19,0.00,,---,99.99,VWS V14.01,2013-04-10 01:18:00,
2013-04-09 20:19:00,61.0,18.5,25.13,NNE,22,7.6,9.0,19,0.00,,---,99.99,VWS V14.01,2013-04-10 01:19:00,
2013-04-09 20:20:00,60.8,18.3,25.13,NNE,22,9.6,9.6,19,0.00,,---,99.99,VWS V14.01,2013-04-10 01:20:00,
2013-04-09 20:21:00,60.6,18.2,25.13,NNE,22,8.7,9.6,19,0.00,,---,99.99,VWS V14.01,2013-04-10 01:21:00,
2013-04-09 20:22:00,60.6,18.2,25.13,NNE,22,8.5,8.7,19,0.00,,---,99.99,VWS V14.01,2013-04-10 01:22:00,
2013-04-09 20:23:00,60.6,18.2,25.13,NNE,22,7.4,8.5,19,0.00,,---,99.99,VWS V14.01,2013-04-10 01:23:00,
2013-04-09 20:24:00,60.4,18.0,25.13,NE,45,6.7,7.8,19,0.00,,---,99.99,VWS V14.01,2013-04-10 01:24:00,
2013-04-09 20:25:00,60.4,18.0,25.13,NNE,22,5.8,5.8,19,0.00,,---,99.99,VWS V14.01,2013-04-10 01:25:00,
2013-04-09 20:26:00,60.4,18.0,25.13,NNE,22,5.8,5.8,19,0.00,,---,99.99,VWS V14.01,2013-04-10 01:26:00,
2013-04-09 20:27:00,60.1,17.7,25.13,NE,45,7.2,8.7,19,0.00,,---,99.99,VWS V14.01,2013-04-10 01:27:00,
2013-04-09 20:28:00,60.1,17.7,25.13,NE,45,6.9,8.7,19,0.00,,---,99.99,VWS V14.01,2013-04-10 01:28:00,
2013-04-09 20:29:00,60.1,17.7,25.13,NE,45,6.9,6.9,19,0.00,,---,99.99,VWS V14.01,2013-04-10 01:29:00,
2013-04-09 20:30:00,59.9,17.6,25.13,NNE,22,8.5,8.5,19,0.00,,---,99.99,VWS V14.01,2013-04-10 01:30:00,
2013-04-09 20:31:00,59.9,17.6,25.13,NE,45,6.3,8.5,19,0.00,,---,99.99,VWS V14.01,2013-04-10 01:31:00,
2013-04-09 20:32:00,59.9,17.6,25.13,NE,45,6.5,6.5,19,0.00,,---,99.99,VWS V14.01,2013-04-10 01:32:00,
2013-04-09 20:33:00,59.9,17.6,25.13,ENE,68,7.4,7.4,19,0.00,,---,99.99,VWS V14.01,2013-04-10 01:33:00,
2013-04-09 20:34:00,59.9,17.6,25.13,NE,45,9.2,9.2,19,0.00,,---,99.99,VWS V14.01,2013-04-10 01:34:00,
2013-04-09 20:35:00,59.9,17.6,25.13,NE,45,8.7,9.2,19,0.00,,---,99.99,VWS V14.01,2013-04-10 01:35:00,
2013-04-09 20:36:00,59.9,17.6,25.13,NE,45,8.5,8.7,19,0.00,,---,99.99,VWS V14.01,2013-04-10 01:36:00,
2013-04-09 20:37:00,59.7,17.4,25.13,NNE,22,10.3,10.5,19,0.00,,---,99.99,VWS V14.01,2013-04-10 01:37:00,
2013-04-09 20:38:00,59.7,17.4,25.13,NE,45,11.0,11.0,19,0.00,,---,99.99,VWS V14.01,2013-04-10 01:38:00,
2013-04-09 20:39:00,59.7,17.4,25.16,NE,45,9.8,11.0,19,0.00,,---,99.99,VWS V14.01,2013-04-10 01:39:00,
2013-04-09 20:40:00,59.7,17.4,25.16,NE,45,8.7,10.1,19,0.00,,---,99.99,VWS V14.01,2013-04-10 01:40:00,
2013-04-09 20:41:00,59.7,17.4,25.16,NNE,22,10.5,10.5,19,0.00,,---,99.99,VWS V14.01,2013-04-10 01:41:00,
2013-04-09 20:42:00,59.7,17.4,25.16,NE,45,11.0,11.0,19,0.00,,---,99.99,VWS V14.01,2013-04-10 01:42:00,
2013-04-09 20:43:00,59.7,17.4,25.16,NE,45,12.5,13.4,19,0.00,,---,99.99,VWS V14.01,2013-04-10 01:43:00,
2013-04-09 20:44:00,59.7,17.4,25.16,NE,45,11.0,12.8,19,0.00,,---,99.99,VWS V14.01,2013-04-10 01:44:00,
2013-04-09 20:45:00,59.7,17.4,25.16,NE,45,9.8,11.0,19,0.00,,---,99.99,VWS V14.01,2013-04-10 01:45:00,
2013-04-09 20:46:00,59.7,17.4,25.16,NE,45,9.2,9.8,19,0.00,,---,99.99,VWS V14.01,2013-04-10 01:46:00,
2013-04-09 20:47:00,59.7,17.4,25.16,NNE,22,12.3,14.8,19,0.00,,---,99.99,VWS V14.01,2013-04-10 01:47:00,
2013-04-09 20:48:00,59.7,20.8,25.16,NE,45,13.0,13.0,22,0.00,,---,99.99,VWS V14.01,2013-04-10 01:48:00,
2013-04-09 20:49:00,59.7,20.8,25.16,NE,45,12.5,13.2,22,0.00,,---,99.99,VWS V14.01,2013-04-10 01:49:00,
2013-04-09 20:50:00,59.7,20.8,25.16,NNE,22,11.0,13.0,22,0.00,,---,99.99,VWS V14.01,2013-04-10 01:50:00,
2013-04-09 20:51:00,59.7,20.8,25.16,ENE,68,10.5,13.0,22,0.00,,---,99.99,VWS V14.01,2013-04-10 01:51:00,
2013-04-09 20:52:00,59.7,20.8,25.16,ENE,68,10.3,10.5,22,0.00,,---,99.99,VWS V14.01,2013-04-10 01:52:00,
2013-04-09 20:53:00,59.7,20.8,25.16,NE,45,12.8,12.8,22,0.00,,---,99.99,VWS V14.01,2013-04-10 01:53:00,
2013-04-09 20:54:00,59.7,20.8,25.16,NE,45,15.2,15.2,22,0.00,,---,99.99,VWS V14.01,2013-04-10 01:54:00,
2013-04-09 20:55:00,59.4,20.5,25.16,NE,45,15.4,15.4,22,0.00,,---,99.99,VWS V14.01,2013-04-10 01:55:00,
2013-04-09 20:56:00,59.4,20.5,25.16,ENE,68,12.3,15.4,22,0.00,,---,99.99,VWS V14.01,2013-04-10 01:56:00,
2013-04-09 20:57:00,59.4,20.5,25.16,NE,45,13.4,13.4,22,0.00,,---,99.99,VWS V14.01,2013-04-10 01:57:00,
2013-04-09 20:58:00,59.4,20.5,25.16,NE,45,12.5,13.4,22,0.00,,---,99.99,VWS V14.01,2013-04-10 01:58:00,
2013-04-09 20:59:00,59.4,20.5,25.16,NNE,22,12.8,14.8,22,0.00,,---,99.99,VWS V14.01,2013-04-10 01:59:00,
2013-04-09 21:00:00,59.4,20.5,25.16,NE,45,15.7,19.5,22,0.00,,---,99.99,VWS V14.01,2013-04-10 02:00:00,
2013-04-09 21:01:00,59.4,20.5,25.16,NE,45,15.2,15.7,22,0.00,,---,99.99,VWS V14.01,2013-04-10 02:01:00,
2013-04-09 21:02:00,59.2,20.4,25.16,NNE,22,10.7,18.1,22,0.00,,---,99.99,VWS V14.01,2013-04-10 02:02:00,
2013-04-09 21:03:00,59.2,20.4,25.16,NNE,22,10.5,17.5,22,0.00,,---,99.99,VWS V14.01,2013-04-10 02:03:00,
2013-04-09 21:04:00,59.2,20.4,25.16,NE,45,13.4,16.1,22,0.00,,---,99.99,VWS V14.01,2013-04-10 02:04:00,
2013-04-09 21:05:00,59.2,20.4,25.16,NE,45,16.3,16.3,22,0.00,,---,99.99,VWS V14.01,2013-04-10 02:05:00,
2013-04-09 21:06:00,59.0,20.2,25.16,NNE,22,17.7,17.7,22,0.00,,---,99.99,VWS V14.01,2013-04-10 02:06:00,
2013-04-09 21:07:00,58.8,20.1,25.16,NNE,22,17.7,17.7,22,0.00,,---,99.99,VWS V14.01,2013-04-10 02:07:00,
2013-04-09 21:08:00,58.8,20.1,25.16,NNE,22,17.7,17.7,22,0.00,,---,99.99,VWS V14.01,2013-04-10 02:08:00,
2013-04-09 21:09:00,58.8,16.7,25.19,NNE,22,17.7,17.7,19,0.00,,---,99.99,VWS V14.01,2013-04-10 02:09:00,
2013-04-09 21:10:00,58.8,16.7,25.19,NE,45,17.0,17.7,19,0.00,,---,99.99,VWS V14.01,2013-04-10 02:10:00,
2013-04-09 21:11:00,58.8,16.7,25.19,NE,45,17.0,17.0,19,0.00,,---,99.99,VWS V14.01,2013-04-10 02:11:00,
2013-04-09 21:12:00,58.8,16.7,25.19,NE,45,17.0,17.0,19,0.00,,---,99.99,VWS V14.01,2013-04-10 02:12:00,
2013-04-09 21:13:00,58.8,16.7,25.19,NE,45,17.0,17.0,19,0.00,,---,99.99,VWS V14.01,2013-04-10 02:13:00,
2013-04-09 21:14:00,58.5,16.4,25.19,NE,45,17.0,17.0,19,0.00,,---,99.99,VWS V14.01,2013-04-10 02:14:00,
2013-04-09 21:15:00,58.5,16.4,25.19,NE,45,17.0,17.0,19,0.00,,---,99.99,VWS V14.01,2013-04-10 02:15:00,
2013-04-09 21:16:00,58.5,16.4,25.19,NE,45,17.0,17.0,19,0.00,,---,99.99,VWS V14.01,2013-04-10 02:16:00,
2013-04-09 21:17:00,58.5,16.4,25.19,NE,45,17.0,17.0,19,0.00,,---,99.99,VWS V14.01,2013-04-10 02:17:00,
2013-04-09 21:18:00,58.5,16.4,25.19,NE,45,17.0,17.0,19,0.00,,---,99.99,VWS V14.01,2013-04-10 02:18:00,
2013-04-09 21:19:00,58.5,16.4,25.19,NE,45,17.0,17.0,19,0.00,,---,99.99,VWS V14.01,2013-04-10 02:19:00,
2013-04-09 21:20:00,58.3,19.6,25.19,NE,45,17.0,17.0,22,0.00,,---,99.99,VWS V14.01,2013-04-10 02:20:00,
2013-04-09 21:21:00,58.3,19.6,25.19,NE,45,17.0,17.0,22,0.00,,---,99.99,VWS V14.01,2013-04-10 02:21:00,
2013-04-09 21:23:00,58.1,19.5,25.19,NE,45,17.0,17.0,22,0.00,,---,99.99,VWS V14.01,2013-04-10 02:23:00,
2013-04-09 21:24:00,58.1,19.5,25.22,NE,45,17.0,17.0,22,0.00,,---,99.99,VWS V14.01,2013-04-10 02:24:00,
2013-04-09 21:25:00,58.1,19.5,25.22,NE,45,10.7,17.0,22,0.00,,---,99.99,VWS V14.01,2013-04-10 02:25:00,
2013-04-09 21:26:00,57.9,19.3,25.22,NE,45,13.4,17.0,22,0.00,,---,99.99,VWS V14.01,2013-04-10 02:26:00,
2013-04-09 21:27:00,57.9,19.3,25.22,NE,45,13.0,13.4,22,0.00,,---,99.99,VWS V14.01,2013-04-10 02:27:00,
2013-04-09 21:28:00,57.7,19.2,25.22,NE,45,13.0,13.0,22,0.00,,---,99.99,VWS V14.01,2013-04-10 02:28:00,
2013-04-09 21:29:00,57.7,19.2,25.22,NE,45,13.0,13.0,22,0.00,,---,99.99,VWS V14.01,2013-04-10 02:29:00,
2013-04-09 21:30:00,57.6,19.0,25.22,NE,45,13.0,13.0,22,0.00,,---,99.99,VWS V14.01,2013-04-10 02:30:00,
2013-04-09 21:31:00,57.6,19.0,25.22,NE,45,13.0,13.0,22,0.00,,---,99.99,VWS V14.01,2013-04-10 02:31:00,
2013-04-09 21:32:00,57.6,19.0,25.22,NE,45,13.0,13.0,22,0.00,,---,99.99,VWS V14.01,2013-04-10 02:32:00,
2013-04-09 21:33:00,57.6,19.0,25.22,NE,45,13.0,13.0,22,0.00,,---,99.99,VWS V14.01,2013-04-10 02:33:00,
2013-04-09 21:35:00,57.4,18.9,25.22,NE,45,13.0,13.0,22,0.00,,---,99.99,VWS V14.01,2013-04-10 02:35:00,
2013-04-09 21:36:00,57.4,18.9,25.22,NE,45,13.0,13.0,22,0.00,,---,99.99,VWS V14.01,2013-04-10 02:36:00,
2013-04-09 21:37:00,57.4,18.9,25.22,NE,45,13.0,13.0,22,0.00,,---,99.99,VWS V14.01,2013-04-10 02:37:00,
2013-04-09 21:38:00,57.2,18.7,25.22,NE,45,13.0,13.0,22,0.00,,---,99.99,VWS V14.01,2013-04-10 02:38:00,
2013-04-09 21:39:00,57.2,18.7,25.19,NE,45,13.0,13.0,22,0.00,,---,99.99,VWS V14.01,2013-04-10 02:39:00,
2013-04-09 21:40:00,57.2,18.7,25.19,NE,45,13.0,13.0,22,0.00,,---,99.99,VWS V14.01,2013-04-10 02:40:00,
2013-04-09 21:41:00,57.2,18.7,25.19,NE,45,12.8,13.0,22,0.00,,---,99.99,VWS V14.01,2013-04-10 02:41:00,
2013-04-09 21:42:00,57.2,18.7,25.19,NE,45,14.5,14.5,22,0.00,,---,99.99,VWS V14.01,2013-04-10 02:42:00,
2013-04-09 21:43:00,57.0,18.6,25.19,NE,45,14.5,14.5,22,0.00,,---,99.99,VWS V14.01,2013-04-10 02:43:00,
2013-04-09 21:44:00,57.0,18.6,25.19,NE,45,14.5,14.5,22,0.00,,---,99.99,VWS V14.01,2013-04-10 02:44:00,
2013-04-09 21:45:00,56.8,18.4,25.19,NE,45,14.5,14.5,22,0.00,,---,99.99,VWS V14.01,2013-04-10 02:45:00,
2013-04-09 21:46:00,56.8,18.4,25.19,NE,45,14.5,14.5,22,0.00,,---,99.99,VWS V14.01,2013-04-10 02:46:00,
2013-04-09 21:47:00,56.8,18.4,25.19,NE,45,14.5,14.5,22,0.00,,---,99.99,VWS V14.01,2013-04-10 02:47:00,
2013-04-09 21:48:00,56.8,18.4,25.19,NE,45,14.5,14.5,22,0.00,,---,99.99,VWS V14.01,2013-04-10 02:48:00,
2013-04-09 21:49:00,56.8,18.4,25.19,NE,45,14.5,14.5,22,0.00,,---,99.99,VWS V14.01,2013-04-10 02:49:00,
2013-04-09 21:50:00,56.7,18.3,25.19,NE,45,14.5,14.5,22,0.00,,---,99.99,VWS V14.01,2013-04-10 02:50:00,
2013-04-09 21:51:00,56.7,18.3,25.19,NE,45,12.1,14.5,22,0.00,,---,99.99,VWS V14.01,2013-04-10 02:51:00,
2013-04-09 21:52:00,56.7,18.3,25.19,NE,45,10.5,12.1,22,0.00,,---,99.99,VWS V14.01,2013-04-10 02:52:00,
2013-04-09 21:53:00,56.5,18.1,25.19,NE,45,9.4,11.4,22,0.00,,---,99.99,VWS V14.01,2013-04-10 02:53:00,
2013-04-09 21:54:00,56.5,18.1,25.22,NE,45,13.0,15.4,22,0.00,,---,99.99,VWS V14.01,2013-04-10 02:54:00,
2013-04-09 21:55:00,56.5,18.1,25.22,NE,45,13.6,16.6,22,0.00,,---,99.99,VWS V14.01,2013-04-10 02:55:00,
2013-04-09 21:56:00,56.5,18.1,25.22,NNE,22,14.8,14.8,22,0.00,,---,99.99,VWS V14.01,2013-04-10 02:56:00,
2013-04-09 21:57:00,56.5,18.1,25.22,NE,45,14.8,15.2,22,0.00,,---,99.99,VWS V14.01,2013-04-10 02:57:00,
2013-04-09 21:58:00,56.5,18.1,25.22,ENE,68,10.3,14.8,22,0.00,,---,99.99,VWS V14.01,2013-04-10 02:58:00,
2013-04-09 21:59:00,56.5,18.1,25.22,NE,45,15.2,15.2,22,0.00,,---,99.99,VWS V14.01,2013-04-10 02:59:00,
2013-04-09 22:00:00,56.3,18.0,25.22,NE,45,12.3,15.2,22,0.00,,---,99.99,VWS V14.01,2013-04-10 03:00:00,
2013-04-09 22:01:00,56.3,18.0,25.22,NE,45,13.0,13.6,22,0.00,,---,99.99,VWS V14.01,2013-04-10 03:01:00,
2013-04-09 22:02:00,56.3,18.0,25.22,NE,45,12.5,15.7,22,0.00,,---,99.99,VWS V14.01,2013-04-10 03:02:00,
2013-04-09 22:03:00,56.3,18.0,25.22,NE,45,15.9,15.9,22,0.00,,---,99.99,VWS V14.01,2013-04-10 03:03:00,
2013-04-09 22:04:00,56.3,18.0,25.22,NE,45,14.8,15.9,22,0.00,,---,99.99,VWS V14.01,2013-04-10 03:04:00,
2013-04-09 22:05:00,56.3,18.0,25.22,NE,45,12.5,15.4,22,0.00,,---,99.99,VWS V14.01,2013-04-10 03:05:00,
2013-04-09 22:06:00,56.3,18.0,25.22,NE,45,10.5,12.5,22,0.00,,---,99.99,VWS V14.01,2013-04-10 03:06:00,
2013-04-09 22:07:00,56.1,17.8,25.22,NNE,22,11.9,12.8,22,0.00,,---,99.99,VWS V14.01,2013-04-10 03:07:00,
2013-04-09 22:08:00,55.9,17.7,25.22,NE,45,11.0,12.3,22,0.00,,---,99.99,VWS V14.01,2013-04-10 03:08:00,
2013-04-09 22:09:00,55.9,17.7,25.22,NNE,22,10.7,12.3,22,0.00,,---,99.99,VWS V14.01,2013-04-10 03:09:00,
2013-04-09 22:10:00,55.9,17.7,25.22,NNE,22,11.9,11.9,22,0.00,,---,99.99,VWS V14.01,2013-04-10 03:10:00,
2013-04-09 22:11:00,55.9,17.7,25.22,NNE,22,10.5,12.1,22,0.00,,---,99.99,VWS V14.01,2013-04-10 03:11:00,
2013-04-09 22:12:00,55.9,17.7,25.22,NNE,22,8.5,13.2,22,0.00,,---,99.99,VWS V14.01,2013-04-10 03:12:00,
2013-04-09 22:13:00,55.9,17.7,25.22,NE,45,7.8,8.5,22,0.00,,---,99.99,VWS V14.01,2013-04-10 03:13:00,
2013-04-09 22:14:00,55.8,17.5,25.22,NE,45,10.1,10.1,22,0.00,,---,99.99,VWS V14.01,2013-04-10 03:14:00,
2013-04-09 22:15:00,55.6,17.4,25.22,NE,45,9.8,10.1,22,0.00,,---,99.99,VWS V14.01,2013-04-10 03:15:00,
2013-04-09 22:16:00,55.6,17.4,25.22,NNE,22,8.7,11.0,22,0.00,,---,99.99,VWS V14.01,2013-04-10 03:16:00,
2013-04-09 22:17:00,55.6,17.4,25.22,NNE,22,11.0,11.0,22,0.00,,---,99.99,VWS V14.01,2013-04-10 03:17:00,
2013-04-09 22:18:00,55.6,17.4,25.22,NNE,22,12.3,13.4,22,0.00,,---,99.99,VWS V14.01,2013-04-10 03:18:00,
2013-04-09 22:19:00,55.6,17.4,25.22,NNE,22,13.0,13.0,22,0.00,,---,99.99,VWS V14.01,2013-04-10 03:19:00,
2013-04-09 22:20:00,55.6,17.4,25.22,NNE,22,10.5,15.9,22,0.00,,---,99.99,VWS V14.01,2013-04-10 03:20:00,
2013-04-09 22:21:00,55.6,17.4,25.22,NE,45,8.5,10.5,22,0.00,,---,99.99,VWS V14.01,2013-04-10 03:21:00,
2013-04-09 22:22:00,55.6,17.4,25.22,NNE,22,8.5,10.3,22,0.00,,---,99.99,VWS V14.01,2013-04-10 03:22:00,
2013-04-09 22:23:00,55.4,17.2,25.22,NNE,22,8.5,10.3,22,0.00,,---,99.99,VWS V14.01,2013-04-10 03:23:00,
2013-04-09 22:24:00,55.4,17.2,25.22,NNE,22,9.0,9.0,22,0.00,,---,99.99,VWS V14.01,2013-04-10 03:24:00,
2013-04-09 22:25:00,55.4,17.2,25.22,NE,45,6.3,9.0,22,0.00,,---,99.99,VWS V14.01,2013-04-10 03:25:00,
2013-04-09 22:26:00,55.4,17.2,25.22,NNE,22,11.0,12.8,22,0.00,,---,99.99,VWS V14.01,2013-04-10 03:26:00,
2013-04-09 22:27:00,55.4,17.2,25.22,NNE,22,8.7,11.0,22,0.00,,---,99.99,VWS V14.01,2013-04-10 03:27:00,
2013-04-09 22:28:00,55.4,17.2,25.22,NE,45,9.8,10.7,22,0.00,,---,99.99,VWS V14.01,2013-04-10 03:28:00,
2013-04-09 22:29:00,55.4,17.2,25.22,NE,45,10.3,10.3,22,0.00,,---,99.99,VWS V14.01,2013-04-10 03:29:00,
2013-04-09 22:31:00,55.4,17.2,25.22,NNE,22,13.2,15.4,22,0.00,,---,99.99,VWS V14.01,2013-04-10 03:31:00,
2013-04-09 22:32:00,55.4,17.2,25.22,NNE,22,12.3,16.6,22,0.00,,---,99.99,VWS V14.01,2013-04-10 03:32:00,
2013-04-09 22:33:00,55.4,17.2,25.22,NNE,22,12.5,14.1,22,0.00,,---,99.99,VWS V14.01,2013-04-10 03:33:00,
2013-04-09 22:34:00,55.4,17.2,25.22,NNE,22,12.8,12.8,22,0.00,,---,99.99,VWS V14.01,2013-04-10 03:34:00,
2013-04-09 22:35:00,55.4,17.2,25.22,NNE,22,8.5,12.8,22,0.00,,---,99.99,VWS V14.01,2013-04-10 03:35:00,
2013-04-09 22:36:00,55.4,17.2,25.22,NNE,22,10.5,11.0,22,0.00,,---,99.99,VWS V14.01,2013-04-10 03:36:00,
2013-04-09 22:37:00,55.4,17.2,25.22,NNE,22,9.6,13.0,22,0.00,,---,99.99,VWS V14.01,2013-04-10 03:37:00,
2013-04-09 22:38:00,55.2,18.1,25.22,NNE,22,10.1,10.1,23,0.00,,---,99.99,VWS V14.01,2013-04-10 03:38:00,
2013-04-09 22:39:00,55.2,18.1,25.25,NE,45,13.2,13.2,23,0.00,,---,99.99,VWS V14.01,2013-04-10 03:39:00,
2013-04-09 22:40:00,55.2,18.1,25.25,NNE,22,14.5,14.5,23,0.00,,---,99.99,VWS V14.01,2013-04-10 03:40:00,
2013-04-09 22:41:00,55.2,18.1,25.25,NNE,22,15.4,15.4,23,0.00,,---,99.99,VWS V14.01,2013-04-10 03:41:00,
2013-04-09 22:42:00,55.2,18.1,25.25,NNE,22,15.4,15.4,23,0.00,,---,99.99,VWS V14.01,2013-04-10 03:42:00,
2013-04-09 22:43:00,55.2,18.1,25.25,NNE,22,12.8,15.4,23,0.00,,---,99.99,VWS V14.01,2013-04-10 03:43:00,
2013-04-09 22:44:00,55.2,18.1,25.25,NNE,22,11.0,12.8,23,0.00,,---,99.99,VWS V14.01,2013-04-10 03:44:00,
2013-04-09 22:45:00,55.2,18.1,25.25,NNE,22,9.8,9.8,23,0.00,,---,99.99,VWS V14.01,2013-04-10 03:45:00,
2013-04-09 22:46:00,55.2,18.1,25.25,NNE,22,10.1,11.4,23,0.00,,---,99.99,VWS V14.01,2013-04-10 03:46:00,
2013-04-09 22:47:00,55.2,18.1,25.25,NNE,22,12.5,13.0,23,0.00,,---,99.99,VWS V14.01,2013-04-10 03:47:00,
2013-04-09 22:48:00,55.2,18.1,25.25,NNE,22,10.1,12.5,23,0.00,,---,99.99,VWS V14.01,2013-04-10 03:48:00,
2013-04-09 22:50:00,55.2,18.1,25.25,NNE,22,12.3,12.3,23,0.00,,---,99.99,VWS V14.01,2013-04-10 03:50:00,
2013-04-09 22:51:00,55.2,18.1,25.25,NNE,22,10.1,12.3,23,0.00,,---,99.99,VWS V14.01,2013-04-10 03:51:00,
2013-04-09 22:52:00,55.2,18.1,25.25,NNE,22,12.5,12.5,23,0.00,,---,99.99,VWS V14.01,2013-04-10 03:52:00,
2013-04-09 22:53:00,55.0,17.9,25.25,NNE,22,13.0,15.9,23,0.00,,---,99.99,VWS V14.01,2013-04-10 03:53:00,
2013-04-09 22:55:00,55.0,17.9,25.25,NNE,22,14.8,14.8,23,0.00,,---,99.99,VWS V14.01,2013-04-10 03:55:00,
2013-04-09 22:56:00,55.0,17.9,25.25,NNE,22,11.0,14.8,23,0.00,,---,99.99,VWS V14.01,2013-04-10 03:56:00,
2013-04-09 22:57:00,55.0,17.9,25.25,NNE,22,13.2,13.2,23,0.00,,---,99.99,VWS V14.01,2013-04-10 03:57:00,
2013-04-09 22:58:00,55.0,17.9,25.25,NNE,22,11.0,15.2,23,0.00,,---,99.99,VWS V14.01,2013-04-10 03:58:00,
2013-04-09 22:59:00,55.0,17.9,25.25,NNE,22,14.8,16.8,23,0.00,,---,99.99,VWS V14.01,2013-04-10 03:59:00,
2013-04-09 23:00:00,55.0,17.9,25.25,NNE,22,17.9,17.9,23,0.00,,---,99.99,VWS V14.01,2013-04-10 04:00:00,
2013-04-09 23:01:00,55.2,18.1,25.25,NNE,22,13.0,17.9,23,0.00,,---,99.99,VWS V14.01,2013-04-10 04:01:00,
2013-04-09 23:02:00,55.0,17.9,25.25,NNE,22,13.2,13.2,23,0.00,,---,99.99,VWS V14.01,2013-04-10 04:02:00,
2013-04-09 23:03:00,55.0,17.9,25.25,NNE,22,12.5,14.8,23,0.00,,---,99.99,VWS V14.01,2013-04-10 04:03:00,
2013-04-09 23:04:00,55.0,17.9,25.25,NE,45,10.3,12.8,23,0.00,,---,99.99,VWS V14.01,2013-04-10 04:04:00,
2013-04-09 23:06:00,55.0,17.9,25.25,North,0,11.0,11.0,23,0.00,,---,99.99,VWS V14.01,2013-04-10 04:06:00,
2013-04-09 23:07:00,55.0,17.9,25.25,North,0,11.0,11.0,23,0.00,,---,99.99,VWS V14.01,2013-04-10 04:07:00,
2013-04-09 23:08:00,54.9,17.8,25.25,NNE,22,13.9,13.9,23,0.00,,---,99.99,VWS V14.01,2013-04-10 04:08:00,
2013-04-09 23:10:00,54.9,17.8,25.25,NNE,22,12.8,13.9,23,0.00,,---,99.99,VWS V14.01,2013-04-10 04:10:00,
2013-04-09 23:11:00,54.7,17.6,25.25,NNE,22,12.8,12.8,23,0.00,,---,99.99,VWS V14.01,2013-04-10 04:11:00,
2013-04-09 23:12:00,54.7,17.6,25.25,NNE,22,13.9,13.9,23,0.00,,---,99.99,VWS V14.01,2013-04-10 04:12:00,
2013-04-09 23:13:00,54.7,17.6,25.25,NNE,22,12.5,14.5,23,0.00,,---,99.99,VWS V14.01,2013-04-10 04:13:00,
2013-04-09 23:14:00,54.7,17.6,25.25,North,0,12.5,13.6,23,0.00,,---,99.99,VWS V14.01,2013-04-10 04:14:00,
2013-04-09 23:15:00,54.7,17.6,25.25,NNE,22,13.0,13.0,23,0.00,,---,99.99,VWS V14.01,2013-04-10 04:15:00,
2013-04-09 23:16:00,54.7,17.6,25.25,NNE,22,10.7,14.5,23,0.00,,---,99.99,VWS V14.01,2013-04-10 04:16:00,
2013-04-09 23:17:00,54.5,17.5,25.25,North,0,14.8,14.8,23,0.00,,---,99.99,VWS V14.01,2013-04-10 04:17:00,
2013-04-09 23:18:00,54.5,17.5,25.25,NNE,22,17.5,17.5,23,0.00,,---,99.99,VWS V14.01,2013-04-10 04:18:00,
2013-04-09 23:19:00,54.5,17.5,25.25,NNE,22,14.1,17.5,23,0.00,,---,99.99,VWS V14.01,2013-04-10 04:19:00,
2013-04-09 23:20:00,54.5,14.3,25.25,NNE,22,11.0,15.2,20,0.00,,---,99.99,VWS V14.01,2013-04-10 04:20:00,
2013-04-09 23:21:00,54.5,14.3,25.25,NNE,22,13.0,15.2,20,0.00,,---,99.99,VWS V14.01,2013-04-10 04:21:00,
2013-04-09 23:22:00,54.5,14.3,25.25,NNE,22,8.1,13.0,20,0.00,,---,99.99,VWS V14.01,2013-04-10 04:22:00,
2013-04-09 23:23:00,54.3,14.1,25.25,NNE,22,7.8,8.1,20,0.00,,---,99.99,VWS V14.01,2013-04-10 04:23:00,
2013-04-09 23:24:00,54.1,17.2,25.25,NNE,22,10.3,10.3,23,0.00,,---,99.99,VWS V14.01,2013-04-10 04:24:00,
2013-04-09 23:25:00,54.1,17.2,25.25,NNE,22,7.6,10.3,23,0.00,,---,99.99,VWS V14.01,2013-04-10 04:25:00,
2013-04-09 23:26:00,54.1,17.2,25.25,NNE,22,8.7,10.5,23,0.00,,---,99.99,VWS V14.01,2013-04-10 04:26:00,
2013-04-09 23:27:00,54.0,17.0,25.25,NNE,22,14.8,14.8,23,0.00,,---,99.99,VWS V14.01,2013-04-10 04:27:00,
2013-04-09 23:28:00,54.0,17.0,25.25,NNE,22,15.2,15.2,23,0.00,,---,99.99,VWS V14.01,2013-04-10 04:28:00,
2013-04-09 23:29:00,54.0,13.8,25.25,NNE,22,13.2,15.2,20,0.00,,---,99.99,VWS V14.01,2013-04-10 04:29:00,
2013-04-09 23:30:00,54.0,13.8,25.25,NNE,22,13.2,13.2,20,0.00,,---,99.99,VWS V14.01,2013-04-10 04:30:00,
2013-04-09 23:31:00,54.0,13.8,25.25,NNE,22,15.2,15.2,20,0.00,,---,99.99,VWS V14.01,2013-04-10 04:31:00,
2013-04-09 23:32:00,53.8,13.7,25.25,North,0,15.4,15.4,20,0.00,,---,99.99,VWS V14.01,2013-04-10 04:32:00,
2013-04-09 23:33:00,53.8,13.7,25.25,NNE,22,12.8,15.4,20,0.00,,---,99.99,VWS V14.01,2013-04-10 04:33:00,
2013-04-09 23:34:00,53.8,13.7,25.25,NNE,22,14.8,14.8,20,0.00,,---,99.99,VWS V14.01,2013-04-10 04:34:00,
2013-04-09 23:35:00,53.8,13.7,25.25,NNE,22,15.4,15.4,20,0.00,,---,99.99,VWS V14.01,2013-04-10 04:35:00,
2013-04-09 23:36:00,53.8,13.7,25.25,NNE,22,13.9,15.4,20,0.00,,---,99.99,VWS V14.01,2013-04-10 04:36:00,
2013-04-09 23:37:00,53.8,13.7,25.25,NNE,22,13.2,17.7,20,0.00,,---,99.99,VWS V14.01,2013-04-10 04:37:00,
2013-04-09 23:38:00,53.8,13.7,25.25,NNE,22,12.3,15.4,20,0.00,,---,99.99,VWS V14.01,2013-04-10 04:38:00,
2013-04-09 23:39:00,53.8,13.7,25.25,NNE,22,16.8,16.8,20,0.00,,---,99.99,VWS V14.01,2013-04-10 04:39:00,
2013-04-09 23:40:00,53.8,13.7,25.25,NNE,22,15.4,17.5,20,0.00,,---,99.99,VWS V14.01,2013-04-10 04:40:00,
2013-04-09 23:41:00,53.8,13.7,25.25,NNE,22,13.2,15.4,20,0.00,,---,99.99,VWS V14.01,2013-04-10 04:41:00,
2013-04-09 23:42:00,53.6,13.5,25.25,NNE,22,12.5,13.2,20,0.00,,---,99.99,VWS V14.01,2013-04-10 04:42:00,
2013-04-09 23:43:00,53.6,13.5,25.25,NNE,22,11.9,13.4,20,0.00,,---,99.99,VWS V14.01,2013-04-10 04:43:00,
2013-04-09 23:44:00,53.6,13.5,25.25,NNE,22,11.9,11.9,20,0.00,,---,99.99,VWS V14.01,2013-04-10 04:44:00,
2013-04-09 23:45:00,53.4,14.5,25.25,North,0,13.6,15.2,21,0.00,,---,99.99,VWS V14.01,2013-04-10 04:45:00,
2013-04-09 23:46:00,53.4,14.5,25.25,NNE,22,14.3,15.2,21,0.00,,---,99.99,VWS V14.01,2013-04-10 04:46:00,
2013-04-09 23:47:00,53.2,14.3,25.25,NNE,22,15.4,15.4,21,0.00,,---,99.99,VWS V14.01,2013-04-10 04:47:00,
2013-04-09 23:48:00,53.2,14.3,25.25,NNE,22,15.4,15.4,21,0.00,,---,99.99,VWS V14.01,2013-04-10 04:48:00,
2013-04-09 23:49:00,53.2,14.3,25.25,North,0,15.4,15.4,21,0.00,,---,99.99,VWS V14.01,2013-04-10 04:49:00,
2013-04-09 23:50:00,53.1,14.2,25.25,North,0,13.2,15.9,21,0.00,,---,99.99,VWS V14.01,2013-04-10 04:50:00,
2013-04-09 23:51:00,53.1,14.2,25.25,NNE,22,13.2,13.2,21,0.00,,---,99.99,VWS V14.01,2013-04-10 04:51:00,
2013-04-09 23:52:00,53.1,14.2,25.25,NNE,22,10.7,14.3,21,0.00,,---,99.99,VWS V14.01,2013-04-10 04:52:00,
2013-04-09 23:53:00,53.1,14.2,25.25,NNE,22,10.7,12.5,21,0.00,,---,99.99,VWS V14.01,2013-04-10 04:53:00,
2013-04-09 23:54:00,52.7,13.9,25.25,NNE,22,10.5,13.2,21,0.00,,---,99.99,VWS V14.01,2013-04-10 04:54:00,
2013-04-09 23:55:00,52.7,13.9,25.25,North,0,14.5,15.4,21,0.00,,---,99.99,VWS V14.01,2013-04-10 04:55:00,
2013-04-09 23:56:00,52.7,13.9,25.25,NNE,22,12.8,14.5,21,0.00,,---,99.99,VWS V14.01,2013-04-10 04:56:00,
2013-04-09 23:57:00,52.7,13.9,25.25,NNE,22,10.5,13.4,21,0.00,,---,99.99,VWS V14.01,2013-04-10 04:57:00,
2013-04-09 23:58:00,52.5,13.7,25.25,NNE,22,11.4,13.4,21,0.00,,---,99.99,VWS V14.01,2013-04-10 04:58:00,
2013-04-09 23:59:00,52.5,13.7,25.25,NE,45,10.1,11.4,21,0.00,,---,99.99,VWS V14.01,2013-04-10 04:59:00,